GFSSE_con_mucape_000.txt.gz
CAPE
1363 1103 1222 1081 1298 1639 1729 1880 2003 2063 2196 1927 1900 2341 2314 2378 2140 2122 2119 1894 1878 1894 2165 2137 1923 1530 1262 1138 1547 1865 1978 2022 1963 1775 1311 975 810 757 714 757 660 349 975
1546 1238 1211 1161 1235 1566 1841 2035 2283 2529 2375 1933 2277 1653 1719 1758 1830 1814 2072 2229 1938 1772 2022 2122 1978 1911 1537 1815 2272 2297 2166 1798 1698 1743 1600 1286 823 665 722 673 549 467 839
1477 1259 1095 1232 1194 1352 1665 1970 2274 2208 2273 2241 2037 1873 2094 2051 1524 1021 1470 1874 2147 1825 1848 2006 1943 2121 1909 2078 2166 2054 1775 1565 1626 1706 1706 746 519 599 662 638 591 886 535
1695 1407 1196 1342 1481 1457 1726 1849 2004 2023 1921 1978 1992 1904 1598 1399 710 0 1160 1475 1557 1834 1966 2006 1878 1853 1783 2045 2114 2062 1768 1543 1519 1342 609 285 187 900 878 715 709 520 511
1741 1526 1266 1500 1615 1719 1769 1899 1942 2006 1799 1785 1831 1826 1686 1866 1091 364 1564 2123 2141 2257 1945 1897 1793 1961 1844 1633 1811 1879 1785 1596 1402 906 227 159 189 1123 1158 1038 1007 1026 1015
1848 1721 1430 1444 1635 1652 1512 1622 1911 1921 1693 1580 1589 1753 1829 1729 1676 1739 1538 1800 1535 1719 1426 1494 1543 1498 1231 1280 1442 1641 1646 1480 1127 519 163 344 424 1369 1335 1392 1534 1116 871
1817 1797 1953 1540 1610 1560 1407 1351 1535 1623 1370 1351 1581 1700 1755 1774 1767 1897 1772 1440 1662 1568 1531 1450 1714 1129 890 997 1267 1248 1378 1235 758 114 181 260 383 1432 1254 1067 1240 1010 879
1829 1832 2013 1609 1525 1599 1511 1401 1406 1452 1439 1337 1439 1556 1626 1691 1656 1580 1836 1867 1860 1766 1566 1502 1373 1035 739 816 940 750 724 988 485 92 128 178 979 1377 1250 1112 1123 833 817
1169 1331 1618 1730 1547 1261 1084 1117 1022 1090 1231 1319 1340 1383 1539 1559 1579 1577 1386 1325 1275 1246 1155 1213 975 709 436 337 571 490 527 508 538 161 95 94 1117 1115 1200 1056 1010 687 736
1154 1018 1452 1697 1614 1602 1418 395 355 692 736 936 1282 1085 889 1048 1222 1023 779 812 1112 1077 1062 1050 756 539 347 249 140 188 146 316 643 219 101 123 652 898 1107 1049 926 710 411
555 656 1012 1545 1444 1097 656 199 544 547 430 487 703 612 673 969 702 602 380 261 249 629 686 837 680 386 238 70 1 0 3 158 360 272 125 103 103 165 821 1053 814 679 218
8 9 77 778 771 752 159 266 1351 1430 1322 1118 1036 900 732 648 329 126 173 195 169 161 220 342 296 148 33 120 2 0 0 0 34 21 24 83 71 137 362 684 808 466 163
0 0 0 81 468 763 597 693 1065 792 667 431 491 445 443 5 3 122 1 2 4 40 4 46 136 266 260 268 17 1 1 1 4 27 0 11 41 154 290 758 595 271 149
0 0 0 2 55 138 112 158 156 28 0 4 198 426 409 282 145 13 23 4 20 8 10 7 119 93 227 366 77 7 14 18 10 10 0 5 0 19 293 434 499 202 153
0 0 0 0 0 4 3 0 0 0 0 0 0 0 19 126 135 21 0 0 0 4 19 1 0 90 135 143 81 14 44 7 0 0 7 7 2 0 73 282 399 394 136
0 0 0 0 0 0 0 0 0 0 0 0 0 0 0 1 103 214 3 1 83 120 165 66 148 36 116 85 158 169 181 126 21 0 0 0 6 2 0 92 338 369 292
0 0 0 0 0 0 0 0 0 0 0 0 0 0 0 0 8 4 0 0 0 9 65 191 151 177 303 217 163 125 91 116 92 14 0 0 0 1 0 0 204 357 624
0 0 0 0 0 0 0 0 0 0 0 0 0 0 0 0 0 0 0 0 0 0 0 34 27 47 83 113 93 133 65 77 93 69 17 0 0 0 2 0 3 235 285
0 0 0 0 0 0 0 0 0 0 0 0 0 0 0 0 0 0 0 0 0 0 0 0 0 2 3 0 14 161 75 29 148 29 8 0 0 1 0 4 0 0 168
0 0 0 0 0 0 0 0 0 0 0 0 0 0 0 0 0 0 0 0 0 0 0 0 0 0 0 0 0 1 177 305 304 120 66 8 0 0 4 8 7 0 23
0 0 0 0 0 0 0 0 0 0 0 0 0 0 0 0 0 0 0 0 0 0 0 0 0 0 0 0 0 0 0 159 283 135 36 149 12 0 1 11 45 1 49
0 0 0 0 0 0 0 0 0 0 0 0 0 0 0 0 0 0 0 0 0 0 0 0 0 0 0 0 0 0 4 47 164 116 115 141 117 4 2 6 35 34 0
0 0 0 0 0 0 0 0 0 0 0 0 0 0 0 0 0 0 0 0 0 0 0 0 0 0 0 0 0 0 0 3 0 5 105 155 181 23 17 0 44 28 0
0 0 0 0 0 0 0 0 0 0 0 0 0 0 0 0 0 0 0 0 7 9 0 0 0 0 0 0 0 0 0 0 0 0 0 13 26 45 61 26 1 25 7
0 0 0 0 0 0 0 0 0 0 0 0 0 0 0 0 0 0 0 16 48 55 39 44 40 14 6 4 0 0 0 0 0 0 0 0 14 29 61 51 20 3 4
0 0 0 0 0 0 0 0 0 0 0 0 0 0 0 0 0 0 0 0 0 18 35 48 57 62 58 38 23 13 1 0 0 0 0 0 0 4 19 15 31 0 0

GFSSE_con_mucape_003.txt.gz
CAPE
1351 1101 903 904 1216 1493 1629 1871 2226 2165 2114 2131 1905 1783 1790 1769 1935 1675 1432 1664 1891 1827 1570 1719 1732 1592 1284 1272 1323 1514 1861 2031 2021 1794 1378 1087 978 908 1100 1015 1120 588 1607
1364 1152 950 860 1091 1461 1758 1890 2037 2515 2210 2234 2193 1899 1766 1818 1259 1149 1333 1269 1097 1373 1441 1353 1565 1516 1405 1627 1849 1716 1703 1777 1940 1894 1651 1287 959 798 876 940 834 766 1563
1359 1131 911 841 886 1318 1700 1994 2112 2252 2459 2293 2212 2219 1969 1321 614 956 883 738 659 928 1165 1754 1731 1643 1663 1813 1886 2008 1722 1813 1747 1823 1663 731 651 917 714 767 672 1400 1483
1468 1231 1062 938 1038 1109 1508 1717 2021 2138 2085 2328 2274 2112 1570 1124 373 393 111 49 651 867 1077 1206 1355 1583 1624 1761 1841 1892 1713 1592 1632 1600 661 344 770 1019 783 499 733 852 921
1604 1332 1096 1362 1372 1254 1305 1545 1757 1854 1882 1942 2179 2202 1702 1450 849 676 221 269 680 1302 1373 1390 1273 1671 1587 1451 1326 1689 1795 1555 1485 1018 374 223 82 1105 1061 712 743 919 936
1664 1586 1200 1487 1476 1193 805 1119 1580 1608 1493 1697 1943 2105 1909 1661 1225 828 356 820 1247 1236 1000 1175 1271 1288 1142 1020 1240 1229 1569 1501 1162 714 176 291 157 1465 1241 1134 1502 1162 1159
1845 1813 1703 1585 1642 1413 1142 867 1189 1597 1462 1411 1591 1872 1725 1430 1409 1301 1148 1077 1080 630 389 927 1119 751 744 861 1015 1031 1217 1366 991 435 94 82 106 1597 1268 1283 1493 1213 1076
1806 1796 1991 1556 1481 1364 1243 1220 1129 1216 1391 1439 1398 1474 1492 1454 1208 989 1072 1385 1300 1184 1287 1589 1223 768 558 534 647 674 689 994 734 256 68 124 1182 1628 1288 1132 1273 1073 897
1318 1585 1767 1861 1618 1395 1006 533 597 874 875 1152 1366 1351 1310 1391 1264 926 410 350 545 740 797 804 892 567 250 376 459 497 453 489 511 573 73 81 1384 1528 1248 1212 1303 1127 953
1665 1460 1573 1642 1594 1614 1522 605 337 551 695 825 1014 824 775 985 901 669 482 502 113 307 369 329 474 484 297 250 286 215 212 279 476 221 308 271 1170 808 1016 993 1075 1145 883
983 994 1696 1885 1818 1316 791 300 824 965 616 695 713 396 476 1257 858 651 288 469 437 87 27 37 71 100 180 126 80 60 31 52 151 375 327 266 505 200 312 916 871 942 773
197 122 314 1187 1542 1290 609 323 1283 1388 1076 1041 1036 1010 747 785 802 576 292 244 171 178 158 191 66 50 82 311 190 0 1 0 34 160 101 266 248 105 153 793 771 714 579
0 0 9 448 1000 1429 1069 1075 1370 1089 1037 735 743 564 610 182 140 351 371 316 85 0 5 1 41 42 21 41 129 125 6 4 0 5 4 50 393 153 144 180 735 502 487
0 0 0 216 518 569 512 590 717 422 235 207 469 447 357 193 211 175 166 65 63 17 5 0 0 0 1 2 1 52 73 19 47 70 21 0 75 24 35 200 333 573 518
0 0 0 0 80 269 154 78 14 0 0 0 0 0 3 0 49 23 2 1 1 0 7 22 0 0 56 25 31 5 83 157 55 21 0 0 0 0 0 29 200 359 399
0 0 0 0 0 0 2 0 0 0 0 0 0 0 0 0 1 10 3 2 2 11 57 246 188 169 137 103 98 99 150 175 214 70 21 0 0 3 7 1 13 266 355
0 0 0 0 0 0 0 0 0 0 0 0 0 0 0 0 0 0 0 0 0 0 1 0 0 15 269 299 323 233 167 207 288 182 77 44 8 0 2 1 0 76 471
0 0 0 0 0 0 0 0 0 0 0 0 0 0 0 0 0 0 0 0 0 0 0 0 0 0 0 30 32 78 184 204 151 119 127 36 68 15 0 0 0 0 96
0 0 0 0 0 0 0 0 0 0 0 0 0 0 0 0 0 0 0 0 0 0 0 0 0 0 0 0 0 0 9 233 262 135 138 154 133 55 24 0 0 0 10
0 0 0 0 0 0 0 0 0 0 0 0 0 0 0 0 0 0 0 0 0 0 0 0 0 0 0 0 0 0 0 76 293 343 234 234 141 62 13 5 0 0 4
0 0 0 0 0 0 0 0 0 0 0 0 0 0 0 0 0 0 0 0 0 0 0 0 0 0 0 0 0 0 0 0 0 417 503 264 238 89 30 17 16 0 4
0 0 0 0 0 0 0 0 0 0 0 0 0 0 0 0 0 0 0 0 0 0 0 0 0 0 0 0 0 0 0 0 0 18 31 308 432 319 93 19 16 0 0
0 0 0 0 0 0 0 0 0 0 0 0 0 0 0 0 0 0 0 0 0 2 1 6 0 0 0 2 10 0 0 0 0 0 2 12 63 295 258 36 11 11 0
0 0 0 0 0 0 0 0 0 0 0 0 0 0 0 0 6 14 7 4 7 7 17 39 21 33 53 0 24 5 34 5 0 0 0 0 3 7 43 48 17 15 7
0 0 0 0 0 0 0 0 0 0 0 0 0 0 0 0 0 0 0 5 11 11 38 91 111 125 78 88 69 54 59 41 39 0 0 0 0 5 11 23 39 92 29
0 0 0 0 0 0 0 0 0 0 0 0 0 0 0 0 0 0 0 0 0 0 0 62 101 92 118 108 108 91 80 72 18 37 0 0 0 3 8 0 13 52 50

GFSSE_con_mucape_006.txt.gz
CAPE
940 598 784 823 1268 1622 1845 2112 2383 2207 2135 2017 1915 1998 2097 2084 1867 1775 1571 1458 1400 1279 1215 1538 1769 1454 990 1104 1183 1829 1942 1879 1675 1661 1548 1173 946 1042 848 894 1223 937 1574
1025 544 706 799 1104 1550 1890 2121 2485 2653 2415 2402 2215 2038 1811 1896 1778 1849 1525 1290 1074 758 337 964 1273 1547 1557 1714 1684 1634 1683 1756 1691 1627 1530 1394 1096 740 914 1037 710 884 1668
1144 990 221 886 828 1072 1531 2018 2251 2433 2158 2389 2439 1943 1852 1311 1318 1313 1000 656 677 89 36 500 979 1196 1425 1588 1695 1617 1697 1766 1657 1623 1561 906 754 1036 744 713 684 1394 1361
1170 1020 818 1180 1104 852 1076 1397 1981 2209 2171 2187 2275 1989 1660 1271 933 1059 434 94 113 296 219 641 707 778 1191 913 1361 1632 1574 1629 1454 1527 1061 510 790 1211 545 460 603 939 1505
1350 1156 917 1285 1216 1065 1208 1485 1683 1851 2033 2189 2194 2001 1864 1627 1055 792 805 417 596 1057 1394 753 366 523 735 694 1039 1340 1252 1363 1395 1259 731 413 679 1064 733 400 658 690 803
1555 1397 1135 1417 1401 1209 937 1341 1734 1727 1817 2117 2182 2233 2304 1454 1121 902 460 271 894 912 545 504 219 355 643 548 813 1045 1201 1241 1109 742 597 220 208 1430 1031 1134 947 586 672
1642 1780 1363 1494 1642 1576 1388 1470 1573 1752 1669 1668 1989 2010 1917 1830 1689 1312 1259 1258 959 512 341 140 47 70 233 743 777 1100 1225 1157 1087 757 663 188 828 1877 1222 1201 1324 1248 1012
1783 1955 1744 1555 1629 1507 1362 1227 1152 1323 1445 1592 1623 1594 1800 1676 1497 1288 1206 1228 994 687 426 253 463 762 871 547 661 776 744 731 717 572 362 89 1269 1963 1409 1346 1497 1126 1071
1278 1547 1972 1948 1607 1526 1243 866 887 932 1103 1372 1440 1351 1446 1548 1006 659 654 496 467 393 341 624 697 752 631 709 668 536 430 364 269 300 321 243 1724 1972 1492 1260 1235 1215 1073
1547 1478 1624 1711 2056 1731 1324 840 617 912 988 1127 1345 1180 1412 1186 510 427 347 112 172 214 245 289 342 433 452 406 417 420 266 210 183 247 240 563 1388 1556 1383 1356 1253 1181 959
920 1184 1805 1768 2042 1668 1424 700 1060 1020 1068 974 790 853 604 1272 789 621 386 261 288 103 12 4 1 0 51 58 293 314 156 53 14 113 175 357 1116 838 962 1411 1102 1205 1113
297 172 426 1060 1541 1670 1180 642 1833 1497 1300 1145 1159 1061 1010 890 510 358 237 204 66 119 153 86 80 38 13 0 83 93 15 4 0 54 304 266 778 443 448 1101 1364 1149 1097
31 41 52 738 1332 1788 1623 1551 1436 1200 1204 1070 990 849 534 284 249 273 284 248 116 0 0 0 5 28 0 23 32 42 57 1 0 0 2 218 539 397 392 710 1347 1152 995
0 0 9 555 922 980 855 757 882 540 539 440 435 492 458 339 186 162 41 13 0 2 2 2 0 0 0 0 20 4 24 28 3 2 9 52 75 449 301 445 775 1025 1003
0 0 0 110 469 727 463 357 214 100 0 0 5 0 85 79 109 38 0 0 0 1 0 0 0 0 0 0 0 0 0 19 22 13 11 8 1 0 49 272 541 662 798
0 0 0 0 49 46 252 79 3 0 0 0 0 0 0 2 11 3 0 0 0 0 0 4 20 19 11 0 0 6 8 10 1 15 47 18 0 2 1 0 179 582 880
0 0 0 0 0 0 0 0 0 0 0 0 0 0 0 0 0 0 0 0 0 0 0 0 0 0 0 12 42 69 56 36 42 93 124 82 47 23 2 0 1 12 474
0 0 0 0 0 0 0 0 0 0 0 0 0 0 0 0 0 0 0 0 0 0 0 0 0 0 0 0 0 0 0 0 71 98 113 160 116 29 21 9 0 0 0
0 0 0 0 0 0 0 0 0 0 0 0 0 0 0 0 0 0 0 0 0 0 0 0 0 0 0 0 0 0 0 0 0 16 103 135 164 81 33 52 21 0 0
0 0 0 0 0 0 0 0 0 0 0 0 0 0 0 0 0 0 0 0 0 0 0 0 0 0 0 0 0 0 0 0 0 1 29 160 167 160 82 35 19 8 0
0 0 0 0 0 0 0 0 0 0 0 0 0 0 0 0 0 0 0 0 0 0 0 0 0 0 0 0 0 0 0 0 0 0 0 73 168 179 128 67 13 3 0
0 0 0 0 0 0 0 0 0 0 0 0 0 0 0 0 0 0 0 0 0 0 0 0 2 0 0 0 0 0 0 0 0 0 0 5 16 23 58 96 49 9 29
0 0 0 0 0 0 0 0 0 0 0 0 0 0 0 0 0 0 0 0 0 0 0 0 0 0 0 0 0 0 0 0 0 0 0 0 2 7 9 15 108 39 3
0 0 0 0 0 0 0 0 0 0 0 0 0 0 0 6 7 13 23 41 43 26 0 3 2 22 13 0 3 7 3 0 0 0 0 0 0 0 0 0 4 22 26
0 0 0 0 0 0 0 0 0 0 0 0 0 0 0 0 0 0 0 2 0 30 23 0 0 0 0 9 2 5 7 0 0 0 0 0 0 0 0 0 0 0 27
0 0 0 0 0 0 0 0 0 0 0 0 0 0 0 0 0 0 0 0 0 0 0 0 0 0 0 0 0 0 0 0 0 0 0 0 0 0 0 0 0 0 0

GFSSE_con_mucape_009.txt.gz
CAPE
666 448 722 1089 1471 1603 1710 1831 1984 2117 2146 2045 1938 1918 1882 1943 1833 1719 1630 1512 1474 1189 796 829 1175 1542 1197 1166 1377 1730 1718 1612 1594 1762 1672 959 1154 961 1030 1362 999 942 1561
782 351 621 855 1201 1566 1785 1937 1911 1931 2452 2396 2150 1945 1776 1899 1843 1743 1597 1381 1471 1609 726 399 1043 1133 992 1209 1067 1321 1515 1441 1274 1245 1290 1377 1186 971 1036 871 530 799 1561
902 732 594 852 984 1210 1564 1989 2139 2025 2269 2426 2334 2129 2112 2003 1816 1478 1344 1424 1637 593 439 472 1032 831 791 793 953 1098 1270 1436 1456 1298 1216 670 664 823 916 557 968 1384 1354
1007 991 749 976 1093 1298 1500 1780 2000 2005 2020 2126 2326 2375 1779 1676 1607 1403 972 488 394 420 527 947 982 398 450 609 677 1068 1111 1401 1342 1338 1127 928 728 1089 638 545 886 1528 1520
1102 779 1005 1047 955 1069 1569 1756 1864 2007 1961 1946 2223 2283 2124 1260 1210 1129 1094 696 749 834 1044 505 327 687 647 682 245 531 702 1163 1252 1156 861 470 361 1006 559 502 876 1248 1394
1233 850 1047 1167 1167 1131 1674 1867 1842 1808 1939 1930 2053 2439 1923 1429 1133 1038 828 581 842 1129 1326 735 566 328 616 281 1 176 664 1018 1049 878 591 421 566 1382 770 958 739 698 705
1504 967 1108 1257 1340 1519 1391 1447 1642 1631 1593 1900 2018 2023 2110 1869 1374 1199 1075 1159 1352 847 543 481 436 270 66 340 643 538 855 1100 1148 839 607 642 820 1951 1224 870 1115 829 713
1657 1471 1432 1357 1356 1370 1260 1091 1157 1330 1445 1446 1579 1945 1848 1787 1747 1518 1587 1308 1393 594 194 23 23 36 4 7 285 673 785 1007 1094 923 651 479 261 1961 1516 1438 1316 1208 993
1836 1985 1711 1510 1465 1266 993 891 824 908 1252 1477 1442 1348 1451 1043 913 890 785 669 721 633 697 533 523 547 516 423 434 411 444 448 432 446 485 197 1444 1964 1671 1589 1552 1347 1156
1236 1250 1677 1732 1555 1259 989 624 785 768 885 1321 1420 1347 955 604 527 492 336 450 316 312 422 377 355 340 266 194 223 230 239 158 133 39 81 151 1542 1785 1496 1372 1360 1497 1255
1016 959 797 1539 1456 1236 1079 512 1039 913 909 975 1016 901 974 893 596 358 291 248 269 164 100 117 146 122 72 4 5 9 56 2 0 1 11 299 1135 1269 1449 1748 1511 1408 1116
709 235 246 391 929 1012 1071 620 1088 1013 955 989 999 811 814 898 376 205 171 192 201 51 85 78 76 41 56 45 25 0 17 0 0 0 7 174 997 761 1085 1640 1219 1400 1169
245 11 50 560 888 1020 920 1206 1039 808 815 674 692 654 702 663 314 252 156 207 138 0 0 0 0 0 10 25 3 0 0 46 3 10 5 103 347 499 634 857 1322 1460 1131
17 0 0 280 438 672 473 941 724 694 520 575 465 303 79 271 90 155 99 31 0 0 0 0 0 0 0 0 0 0 0 11 24 9 11 7 21 100 255 390 735 1021 1210
0 0 0 41 239 265 351 348 320 305 156 125 74 5 0 27 16 12 0 0 0 0 0 0 0 0 0 0 0 0 0 0 3 0 8 3 16 11 53 231 370 553 815
0 0 0 0 0 7 0 0 11 18 0 0 0 0 0 0 0 0 0 0 0 0 0 0 0 0 0 1 4 8 2 4 0 11 9 1 22 50 81 36 97 335 462
0 0 0 0 0 0 0 0 0 0 0 0 0 0 0 0 0 0 0 0 0 0 0 0 0 0 0 0 0 2 1 9 10 4 45 57 51 60 55 50 36 16 58
0 0 0 0 0 0 0 0 0 0 0 0 0 0 0 0 0 0 0 0 0 0 0 0 0 0 0 0 0 0 0 0 0 0 0 45 79 118 81 62 18 13 1
0 0 0 0 0 0 0 0 0 0 0 0 0 0 0 0 0 0 0 0 0 0 0 0 0 0 0 0 0 0 0 0 0 0 0 0 17 103 111 90 79 65 37
0 0 0 0 0 0 0 0 0 0 0 0 0 0 0 0 0 0 0 0 0 0 0 0 0 0 0 0 0 0 0 0 0 0 0 0 1 18 92 129 112 82 57
0 0 0 0 0 0 0 0 0 0 0 0 0 0 0 0 0 0 0 0 0 0 0 0 0 0 0 0 0 0 0 0 0 0 0 0 0 0 22 64 139 133 104
0 0 0 0 0 0 0 0 0 0 0 0 0 0 0 0 0 0 0 0 0 0 0 0 0 0 0 0 0 0 0 0 0 0 0 0 0 0 0 1 50 42 40
0 0 0 0 0 0 0 0 0 0 0 0 0 0 0 0 0 0 0 0 0 0 0 0 0 0 0 0 0 0 0 0 0 0 0 0 0 0 3 5 4 4 14
0 0 0 0 0 0 0 0 0 0 0 0 0 0 0 0 0 0 0 1 2 0 0 0 0 0 0 0 0 0 0 0 0 0 0 0 0 0 0 0 4 6 13
0 0 0 0 0 0 0 0 0 0 0 0 0 0 0 0 0 0 0 5 8 5 1 0 0 0 0 0 0 0 0 0 0 0 0 0 0 0 0 0 0 0 8
0 0 0 0 0 0 0 0 0 0 0 0 0 0 0 0 0 0 0 0 0 0 0 0 5 0 0 0 0 0 0 0 0 0 0 0 0 0 0 0 0 0 0

GFSSE_con_mucape_012.txt.gz
CAPE
238 443 965 1346 1484 1551 1607 1602 1876 1851 1889 1974 1965 1907 1945 1898 2032 2043 1988 1943 2012 2141 1690 1796 1784 1647 1307 1205 1128 1297 1070 1393 1475 1577 1742 1636 1300 1266 1202 1481 1287 1317 1796
378 329 736 1185 1418 1545 1864 1722 1775 2372 2230 2124 1944 1927 2014 1988 2053 1926 1769 2162 2001 1197 655 1203 1365 1307 1368 1262 1112 1096 1014 1025 1259 1249 1425 1557 1429 1179 1225 941 946 1274 1802
780 337 543 944 1312 1593 1942 2097 2084 2241 2490 2421 2139 2069 2154 2247 2116 1908 1742 1626 947 817 898 1316 1345 1393 1109 986 945 810 932 677 902 1135 1241 729 683 1108 1095 678 928 1542 1742
858 730 623 961 1360 1626 1756 1879 1923 1998 2112 2244 2405 2487 2306 2320 2138 1768 1135 789 489 584 1382 1475 1369 932 971 844 682 548 479 718 1087 1140 959 873 608 921 904 778 1321 1796 1327
746 843 707 797 1207 1659 1732 1826 1862 1835 1880 2153 2364 2247 2015 1941 1759 1551 1215 1065 987 1174 1145 1149 1304 1176 887 482 269 314 141 313 932 1073 787 603 383 690 986 902 1426 1640 1239
698 671 740 843 1124 1771 1909 1866 1838 1793 1736 1835 2246 2388 1973 1664 1402 1350 1223 1093 1170 1479 1816 1213 1203 1065 629 269 218 159 101 148 642 920 734 512 481 615 1329 1356 1043 1318 1252
614 805 901 982 1222 1478 1655 1704 1633 1618 1721 1857 1991 2093 2174 1849 1635 1564 1361 1106 1439 1197 1138 1127 1037 922 693 183 92 60 45 169 524 935 768 481 475 1491 1488 1421 1230 1220 1107
890 1127 1194 1262 1243 1213 1309 1339 1315 1413 1512 1609 1885 1898 1805 1631 1547 1586 1416 1631 1353 686 340 203 175 280 220 313 376 438 290 359 739 952 789 748 550 1118 1705 1553 1148 1001 985
1487 1481 1395 1427 1237 1085 907 787 794 1076 1333 1419 1542 1584 1302 1156 1141 1029 1053 1113 1064 1069 1036 1029 333 189 473 362 480 529 508 515 574 560 480 444 388 1154 1794 1545 1499 1378 1251
1807 1824 1616 1529 1281 1182 742 719 663 720 998 1251 1285 1072 841 771 749 684 792 702 652 524 503 543 690 571 364 271 227 276 298 255 197 83 128 187 375 1308 1841 1681 1326 1265 1292
1700 1745 1604 1586 1395 1140 947 862 814 799 874 998 1045 1030 641 612 450 239 297 401 247 187 256 348 426 440 335 198 88 67 67 8 0 0 0 17 89 1460 1490 1446 1207 1208 1290
898 577 325 673 1229 1316 1020 821 898 883 856 841 669 842 738 740 423 245 147 167 191 149 33 37 12 15 37 44 79 43 39 18 0 0 0 3 326 609 884 1241 1152 1221 1305
903 411 132 318 830 993 854 654 960 843 822 935 922 745 790 827 507 374 252 109 76 9 0 0 0 0 0 0 0 0 0 0 0 0 1 46 47 207 398 647 1110 1212 1207
111 0 12 237 712 717 825 1138 931 702 701 591 527 468 415 237 320 111 90 0 0 0 0 0 0 0 0 0 0 0 0 0 0 13 8 47 86 67 163 247 408 531 784
0 0 0 37 131 344 176 785 544 484 381 315 198 24 0 10 0 9 23 0 0 0 0 0 1 2 0 0 0 1 1 4 7 3 8 16 13 11 41 167 208 373 517
0 0 0 0 4 11 21 62 98 104 76 19 1 0 0 0 0 0 0 0 0 0 0 0 0 0 0 0 0 0 1 7 14 3 0 2 6 8 7 18 155 305 308
0 0 0 0 0 0 0 0 0 0 0 0 0 0 0 0 0 0 0 0 0 0 0 0 0 0 0 0 0 0 0 0 0 0 0 0 0 5 15 47 65 220 214
0 0 0 0 0 0 0 0 0 0 0 0 0 0 0 0 0 0 0 0 0 0 0 0 0 0 0 0 0 0 0 0 0 0 0 0 0 42 36 44 138 134 151
0 0 0 0 0 0 0 0 0 0 0 0 0 0 0 0 0 0 0 0 0 0 0 0 0 0 0 0 0 0 0 0 0 0 0 0 0 0 0 5 31 77 120
0 0 0 0 0 0 0 0 0 0 0 0 0 0 0 0 0 0 0 0 0 0 0 0 0 0 0 0 0 0 0 0 0 0 0 0 0 0 0 15 2 33 63
0 0 0 0 0 0 0 0 0 0 0 0 0 0 0 0 0 0 0 0 0 0 0 0 0 0 0 0 0 0 0 0 0 0 0 0 0 0 0 0 0 39 26
0 0 0 0 0 0 0 0 0 0 0 0 0 0 0 0 0 0 0 0 0 0 0 0 0 0 0 0 0 0 0 0 0 0 0 0 0 0 0 0 0 1 19
0 0 0 0 0 0 0 0 0 0 0 0 0 0 0 0 0 0 0 0 0 0 0 0 0 0 0 0 0 0 0 0 0 0 0 0 0 0 0 0 0 1 17
0 0 0 0 0 0 0 0 0 0 0 0 0 0 0 0 0 0 0 0 0 0 0 0 0 0 0 0 0 0 0 0 0 0 0 0 0 0 0 0 0 0 0
0 0 0 0 0 0 0 0 0 0 0 0 0 0 0 0 0 0 0 0 0 0 0 3 0 1 0 0 0 0 0 0 0 0 0 0 0 0 0 0 0 0 0
0 0 0 0 0 0 0 0 0 0 0 0 0 0 0 0 0 0 1 9 0 0 0 0 0 0 0 0 0 0 0 0 0 0 0 0 0 0 0 0 0 0 0

GFSSE_con_mucape_015.txt.gz
CAPE
189 587 1076 1399 1441 1471 1489 1853 1796 1764 1961 2080 2059 2045 2116 2333 2133 1826 1973 1856 2216 2326 1835 1771 1890 1530 1436 1021 1298 1464 1375 1419 1404 1559 1596 1405 1277 1240 1191 1012 1362 1109 1257
185 503 959 1263 1557 1696 1637 1891 2172 2078 2142 2087 2105 2113 2116 2100 2217 2043 2189 1847 1516 1047 1138 1689 1502 1629 1441 1309 1585 1418 1263 1091 1161 1136 1194 1391 1393 1370 1229 1254 917 1312 1256
162 341 661 1131 1569 1771 1860 1943 2150 2485 2593 2406 2220 2306 2406 2408 2328 2218 1813 1506 1057 1088 1106 1565 1705 1769 1548 1366 1254 1216 1049 989 1082 1129 1255 735 673 1182 1233 972 933 1262 1337
434 337 650 1129 1473 1662 1698 1752 2018 2012 2167 2469 2565 2432 2240 2190 2337 1791 1114 875 638 967 1448 1543 1668 1639 1553 1282 1078 883 831 835 1067 1196 1029 620 525 821 1110 992 1310 1504 1491
794 449 599 1077 1396 1572 1665 1644 1758 1760 2093 2367 2391 2308 2221 2079 1873 1703 1245 1106 1233 1276 1255 1439 1526 1222 1320 1158 893 825 871 675 694 756 751 648 599 535 855 1104 1339 1773 1550
371 385 526 976 1391 1583 1716 1605 1634 1636 1741 2068 2373 2301 2051 1823 1630 1567 1323 1208 1413 1585 1735 1255 1520 1529 1088 510 278 492 162 91 356 425 704 631 625 622 1021 1514 1184 1132 1234
492 554 551 857 1298 1673 1663 1508 1535 1621 1700 1810 2008 2245 2011 1876 1921 1822 1624 1095 1588 1411 1299 1477 1181 1353 1076 361 216 160 155 72 209 268 409 625 503 745 1184 1505 1264 1129 1163
576 758 845 976 992 1083 1306 1390 1359 1427 1448 1663 1748 1861 1932 1790 1783 1633 1725 1843 1374 755 355 290 341 827 562 542 638 430 282 286 438 417 479 381 531 566 649 1643 1249 1302 1378
1185 1061 1190 1109 1013 946 842 875 1007 1272 1332 1506 1519 1508 1259 1226 1277 1331 1431 1406 1371 1328 1232 756 285 269 352 424 459 534 457 385 317 236 269 278 368 425 609 1562 1432 1310 1317
1399 1302 1357 1245 1102 870 531 621 554 878 1114 1196 1243 1086 847 806 788 988 975 913 836 600 583 636 671 547 427 357 278 162 106 102 16 28 14 23 195 279 980 1654 1567 1350 1257
1660 1611 1454 1438 1232 1083 666 544 603 625 838 1037 1119 830 620 536 427 292 430 477 250 233 262 332 398 413 386 331 244 159 70 12 0 0 0 0 92 589 856 1103 1161 909 1121
1708 1699 1524 1474 1407 1134 887 609 701 631 611 663 719 756 712 643 368 215 116 131 134 125 59 14 11 0 0 0 0 3 13 13 11 0 0 0 1 352 605 854 937 883 813
1291 900 1044 816 854 868 813 786 766 781 752 746 703 560 585 885 487 306 219 127 50 44 1 0 0 0 0 0 0 0 0 0 0 0 2 0 0 2 137 393 435 526 748
1104 727 1 71 510 550 609 673 685 749 623 719 667 512 582 598 393 252 63 11 0 0 0 0 0 0 0 0 0 0 0 0 0 0 0 0 0 4 20 52 233 349 471
837 9 0 21 340 247 574 765 946 623 565 458 309 197 80 4 1 0 0 0 0 0 0 0 0 0 0 0 0 0 0 0 0 0 0 1 0 0 23 123 95 96 247
58 0 0 0 20 79 32 216 324 330 269 248 98 8 0 0 0 0 0 0 0 0 0 0 0 0 0 0 0 0 0 0 0 0 0 0 1 21 18 10 75 162 137
0 0 0 0 0 0 0 0 0 0 0 0 0 0 0 0 0 0 0 0 0 0 0 0 0 0 0 0 0 0 0 0 0 0 0 0 0 0 0 10 12 11 150
0 0 0 0 0 0 0 0 0 0 0 0 0 0 0 0 0 0 0 0 0 0 0 0 0 0 0 0 0 0 0 0 0 0 0 0 0 0 0 0 0 5 27
0 0 0 0 0 0 0 0 0 0 0 0 0 0 0 0 0 0 0 0 0 0 0 0 0 0 0 0 0 0 0 0 0 0 0 0 0 0 0 0 0 0 1
0 0 0 0 0 0 0 0 0 0 0 0 0 0 0 0 0 0 0 0 0 0 0 0 0 0 0 0 0 0 0 0 0 0 0 0 0 0 0 0 0 0 0
0 0 0 0 0 0 0 0 0 0 0 0 0 0 0 0 0 0 0 0 0 0 0 0 0 0 0 0 0 0 0 0 0 0 0 0 0 0 0 0 0 0 0
0 0 0 0 0 0 0 0 0 0 0 0 0 0 0 0 0 0 0 0 0 0 0 0 0 0 0 0 0 0 0 0 0 0 0 0 0 0 0 0 0 0 0
0 0 0 0 0 0 0 0 0 0 0 0 0 0 0 0 0 0 0 0 0 0 0 0 0 0 0 0 0 0 0 0 0 0 0 0 0 0 0 0 0 0 0
0 0 0 0 0 0 0 0 0 0 0 0 0 0 0 0 0 0 0 0 1 10 8 0 0 0 0 0 0 0 0 0 0 0 0 0 0 0 0 0 0 0 0
0 0 0 0 0 0 0 0 0 0 0 0 0 0 0 0 0 0 0 2 14 11 0 0 0 0 0 0 0 0 0 0 0 0 0 0 0 0 0 0 0 0 0
0 0 0 0 0 0 0 0 0 0 0 0 0 0 0 0 0 0 0 0 14 14 5 0 0 0 0 2 0 0 0 0 0 0 0 0 0 0 0 0 0 0 0

GFSSE_con_mucape_018.txt.gz
CAPE
208 587 993 1185 1323 1410 1623 1552 1506 1703 1920 1966 1895 1766 2025 1742 1860 1566 1719 1782 2293 2213 1845 1913 1708 1591 1156 1157 1547 1689 1585 1524 1548 1543 1517 1443 1473 1330 1284 1714 1449 1110 1347
203 602 956 1201 1524 1516 1854 2060 1880 1925 2085 2209 2039 1909 2117 2065 1958 1676 1902 1916 1813 1446 1707 1710 1838 1774 1456 1377 1580 1436 1393 1286 1413 1522 1741 1726 1808 1427 1295 1390 1233 1241 1161
203 485 824 1178 1467 1585 1861 2130 2258 2466 2511 2331 2326 2274 2212 2306 2369 1999 1701 1074 850 1293 1475 1728 1750 1912 1728 1618 1511 1363 1139 899 919 1064 1368 835 887 1361 1370 1402 1103 1660 1254
177 334 750 1178 1360 1519 1636 1836 2024 2033 2338 2603 2470 2349 2359 2419 2301 1794 1074 668 638 1314 1399 1551 1752 1860 1662 1528 1381 1118 1063 1133 1090 1205 984 583 623 940 1241 1380 1218 1431 1470
626 343 833 1106 1249 1475 1525 1627 1766 1950 2246 2381 2439 2401 2301 2054 2106 1590 1339 1116 1364 1515 1393 1544 1720 1488 1580 1374 1038 1035 664 559 699 701 736 693 616 694 1153 1032 1373 1624 1580
320 281 773 996 1214 1453 1560 1578 1575 1617 1889 2230 2308 2238 2040 1700 1584 1476 1423 1165 1450 1663 1689 1475 1674 1697 1426 939 418 441 300 79 166 357 519 706 592 695 1022 1330 1095 1213 1510
221 216 548 1016 1306 1542 1466 1334 1518 1602 1681 1790 2051 2165 1945 1998 1954 1795 1342 1061 1648 1457 1349 1884 1382 1580 1381 785 742 647 438 325 443 515 457 406 526 874 1065 1506 1491 1028 1316
300 405 454 850 930 1151 1314 1225 1210 1297 1486 1507 1590 1984 1883 1782 1700 1585 1723 1736 1256 783 645 495 369 1082 628 373 356 564 504 527 440 236 217 196 195 399 759 867 1366 980 1219
613 717 743 715 698 656 623 722 873 1077 1155 1338 1310 1201 1072 1112 1219 1324 1329 1327 1170 1199 1232 938 595 736 673 516 422 286 213 199 109 51 14 64 150 294 465 888 1522 1443 1193
874 928 1045 913 789 559 260 430 446 762 1019 1105 1108 802 657 553 676 855 561 678 443 445 514 618 641 607 516 415 331 229 102 21 0 34 12 30 42 669 787 1095 1507 1591 1438
1124 1095 1163 1112 962 821 437 350 398 441 686 915 901 615 455 379 260 139 379 284 121 117 144 168 185 176 183 182 148 103 69 20 0 0 0 0 0 104 732 803 1117 1149 1172
1320 1398 1243 1250 1168 964 685 380 446 395 401 505 662 539 478 447 239 59 3 34 17 28 38 9 3 1 0 0 0 0 0 3 7 12 0 0 0 9 79 220 566 659 731
1401 1472 1310 1204 1115 1043 825 519 368 477 494 468 454 491 427 569 467 174 92 62 4 0 0 0 0 0 0 0 0 0 0 0 0 0 0 0 0 4 74 56 118 364 460
1178 1205 966 663 159 303 509 536 490 440 537 432 513 508 401 387 465 240 107 13 0 0 0 0 0 0 0 0 0 0 0 0 0 0 0 0 0 0 0 87 105 100 186
918 859 371 0 52 104 240 280 329 364 532 356 345 226 191 185 30 2 0 0 0 0 0 0 0 0 0 0 0 0 0 0 0 0 0 0 0 0 0 0 6 94 143
748 645 4 0 20 14 66 259 400 604 396 263 295 183 37 0 0 0 0 0 0 0 0 0 0 0 0 0 0 0 0 0 0 0 0 0 0 0 0 0 0 5 10
542 411 0 0 0 0 0 0 2 3 3 6 5 0 0 0 0 0 0 0 0 0 0 0 0 0 0 0 0 0 0 0 0 0 0 0 0 0 0 0 0 0 2
132 177 0 0 0 0 0 0 0 0 0 0 0 0 0 0 0 0 0 0 0 0 0 0 0 0 0 0 0 0 0 0 0 0 0 0 0 0 0 0 0 0 0
59 1 0 0 0 0 0 0 0 0 0 0 0 0 0 0 0 0 0 0 0 0 0 0 0 0 0 0 0 0 0 0 0 0 0 0 0 0 0 0 0 0 0
0 0 0 0 0 0 0 0 0 0 0 0 0 0 0 0 0 0 0 0 0 0 0 0 0 0 0 0 0 0 0 0 0 0 0 0 0 0 0 0 0 0 0
0 0 0 0 0 0 0 0 0 0 0 0 0 0 0 0 0 0 0 0 0 0 0 0 0 0 0 0 0 0 0 0 0 0 0 0 0 0 0 0 0 0 0
0 0 0 0 0 0 0 0 0 0 0 0 0 0 0 0 0 0 0 0 0 0 0 0 0 0 0 0 0 0 0 0 0 0 0 0 0 0 0 0 0 0 0
0 0 0 0 0 0 0 0 0 0 0 0 0 0 0 0 0 0 0 0 0 0 0 0 0 0 0 0 0 0 0 0 0 0 0 0 0 0 0 0 0 0 0
0 0 0 0 0 0 0 0 0 0 0 0 0 0 0 0 0 0 0 0 0 0 0 0 11 4 3 0 0 0 0 0 0 0 0 0 0 0 0 0 0 0 0
0 0 0 0 0 0 0 0 0 0 0 0 0 0 0 0 0 0 0 0 0 0 0 7 15 15 8 8 1 0 0 0 0 0 0 0 0 0 0 0 0 0 0
0 0 0 0 0 0 1 4 8 0 0 0 0 0 0 0 0 0 0 0 0 0 0 0 16 13 12 1 0 2 0 0 0 0 0 0 0 0 0 0 0 0 0

GFSSE_con_mucape_021.txt.gz
CAPE
326 653 847 1111 1173 1264 1311 1315 1380 1508 1691 1943 2059 2096 2102 2005 1879 1824 1787 1748 1855 1912 2094 2002 1835 1676 1303 1404 1568 1534 1530 1534 1490 1733 1729 1550 1395 1334 1650 1675 1598 1275 1665
372 698 782 1197 1273 1373 1565 1531 1681 1693 1910 1978 2031 2089 1988 1972 1864 1796 1852 1968 1964 1747 1904 1917 2037 1866 1615 1474 1412 1416 1439 1313 1422 1787 1881 1745 1775 1328 1480 1494 1416 1305 1787
401 671 911 1129 1288 1434 1756 2013 2103 2245 2249 2225 2125 2212 2288 2266 2156 1836 1310 852 1019 1357 1676 1717 1822 2005 1830 1531 1542 1437 1292 1295 1226 1317 1399 795 908 1548 1516 1249 1634 1457 1449
283 540 953 1113 1260 1418 1518 1757 2021 2136 2450 2514 2489 2391 2403 2270 2097 1634 1016 906 1078 1389 1356 1493 1714 1847 1882 1596 1379 1341 1299 1120 1144 1185 963 776 815 1096 1416 1532 1330 1474 1308
234 481 973 1074 1177 1271 1367 1548 1837 1927 2213 2336 2467 2485 2381 2263 2000 1555 1090 973 1178 1591 1566 1623 1905 1754 1632 1416 918 815 681 502 679 831 1224 1046 742 908 1183 1300 1192 1314 1394
262 502 838 936 1053 1203 1374 1393 1371 1476 1891 2070 2168 2163 1947 1627 1609 1437 1342 1138 1169 1769 1899 1634 1714 1726 1216 759 638 600 583 504 434 604 1103 1203 1178 832 1143 1330 1403 1116 1244
174 347 738 842 1080 1350 1222 1166 1355 1463 1488 1635 1837 1970 1965 1944 1841 1605 1164 1162 1597 1172 1031 1606 1179 1466 986 596 494 634 523 556 805 1087 1153 977 966 775 1279 1185 1518 1365 1029
132 303 562 847 1073 1185 1172 1145 1162 1280 1314 1304 1624 1571 1527 1472 1422 1427 1466 1346 1238 1182 1060 512 672 602 624 666 695 515 468 427 633 546 398 304 331 510 732 1129 1241 1169 984
322 408 538 638 688 603 602 688 842 969 1118 1105 1092 940 909 978 1130 1096 1180 1028 1011 1033 1046 897 652 498 437 383 322 246 167 103 236 98 45 82 141 738 1017 925 1606 1404 1171
576 545 668 790 636 532 558 331 470 746 878 976 882 604 434 463 623 534 684 485 385 350 382 468 493 470 420 337 282 243 192 130 47 0 84 43 13 256 840 1096 1090 1519 1201
600 758 779 845 807 567 281 319 354 455 687 791 741 396 407 605 432 393 272 185 75 17 24 34 17 18 11 15 10 8 8 10 9 0 0 0 0 100 292 411 796 849 931
1030 1003 848 977 1053 758 474 251 481 555 739 870 963 772 615 454 262 95 45 34 1 0 0 0 0 0 0 0 0 0 0 0 0 2 0 3 0 46 204 205 265 543 518
1296 1240 1079 1007 1003 1009 929 442 286 423 626 661 628 793 659 423 330 208 93 80 64 0 0 0 0 0 0 0 0 0 0 0 0 0 0 0 0 0 3 184 196 188 261
1173 1455 1252 1033 824 613 594 706 358 409 533 664 641 513 590 639 613 365 137 88 49 0 0 0 0 0 0 0 0 0 0 0 0 0 0 0 0 0 0 0 4 133 179
968 1086 1050 506 29 41 34 247 381 420 609 614 448 319 322 432 443 214 114 13 0 0 0 0 0 0 0 0 0 0 0 0 0 0 0 0 0 0 0 0 0 0 0
750 873 737 184 22 19 32 110 291 302 373 429 255 260 185 92 65 16 0 0 0 0 0 0 0 0 0 0 0 0 0 0 0 0 0 0 0 0 0 0 0 0 0
598 682 696 188 0 0 0 0 2 26 40 9 24 69 52 1 0 5 10 15 0 0 0 0 0 0 0 0 0 0 0 0 0 0 0 0 0 0 0 0 0 0 0
353 508 436 98 0 0 0 0 0 0 0 0 0 0 0 0 0 0 0 8 30 0 0 0 0 0 0 0 0 0 0 0 0 0 0 0 0 0 0 0 0 0 0
150 117 209 4 0 0 0 0 0 0 0 0 0 0 0 0 0 0 0 0 25 16 0 0 0 0 0 0 0 0 0 0 0 0 0 0 0 0 0 0 0 0 0
2 8 78 0 0 0 0 0 0 0 0 0 0 0 0 0 0 0 0 0 0 0 0 0 0 0 0 0 0 0 0 0 0 0 0 0 0 0 0 0 0 0 0
0 0 0 0 0 0 0 0 0 0 0 0 0 0 0 0 0 0 0 0 0 0 0 0 0 0 0 0 0 0 0 0 0 0 0 0 0 0 0 0 0 0 0
0 0 0 0 0 0 0 0 0 0 0 0 3 0 0 0 0 0 0 0 0 0 0 0 0 0 0 0 0 0 0 0 0 0 0 0 0 0 0 0 0 0 0
0 0 0 0 0 0 0 0 0 0 2 3 0 0 0 0 0 0 0 0 0 0 0 0 0 0 0 0 0 0 0 0 0 0 0 0 0 0 0 0 0 0 0
0 0 0 0 0 0 0 0 0 0 0 0 0 0 0 0 0 0 0 0 0 0 0 0 0 0 0 1 1 5 0 0 0 0 0 0 0 0 0 0 0 0 0
0 0 0 0 0 0 0 0 0 0 0 1 1 0 0 0 0 0 0 0 0 0 0 0 0 0 0 9 8 14 9 2 0 0 0 0 0 0 0 0 0 0 0
0 0 0 1 4 0 1 1 0 0 2 0 0 0 0 0 0 0 0 0 0 0 0 0 0 0 0 0 2 25 20 11 7 2 0 0 0 0 0 0 0 0 0

GFSSE_con_mucape_024.txt.gz
CAPE
485 797 890 1006 1112 1240 1161 1180 1198 1326 1708 1964 1925 2040 1992 2130 2085 2057 2029 2037 2195 2057 2072 1939 1888 1543 1418 1471 1514 1581 1628 1709 1813 1830 1745 1720 1451 1543 1688 1503 1400 1201 1544
521 814 822 1037 1240 1402 1367 1367 1502 1662 1770 1911 1928 1596 1823 2003 2250 2220 2232 2232 2226 1972 1900 1906 2004 1859 1569 1330 1388 1426 1307 1364 1494 1693 1604 1656 1719 1485 1688 1552 1635 1530 1605
436 783 1019 1072 1327 1654 1851 1827 2039 1923 1816 1845 1897 2081 2036 2310 2129 1802 1360 1182 1493 1449 1593 1491 1741 1800 1850 1590 1524 1412 1416 1402 1463 1500 1205 807 773 1613 1683 1362 1672 1590 1584
383 672 1006 1009 1221 1419 1665 1892 2124 2052 2073 2011 1900 1908 1960 1980 1873 1451 1148 1367 1346 1455 1487 1585 1771 1997 1951 1549 1215 1047 937 888 1108 1167 1383 875 671 1246 1480 1604 1514 1581 1526
251 591 981 929 1049 1278 1362 1542 1661 1857 2034 2088 2300 2203 2210 2138 1795 1614 1186 1267 1297 1751 1708 1719 2087 1705 1360 1040 904 931 866 750 522 614 1134 1192 1202 1172 1239 1428 1400 1479 1445
167 385 648 789 936 1164 1128 1057 1306 1650 1871 2039 2115 1970 1803 1632 1539 1457 1338 1184 1640 1704 1759 1727 1728 1474 912 719 669 832 800 674 594 962 884 1159 1250 1329 1176 1303 1426 1462 1173
100 214 353 736 946 1116 877 998 1121 1280 1461 1769 1870 1906 1909 1890 1751 1591 1054 1460 1230 914 843 1137 1088 1030 713 574 666 741 737 726 816 1148 1229 1225 1268 629 954 1289 1440 1453 1546
96 303 303 636 940 925 966 975 1068 1169 1192 1433 1435 1446 1419 1391 1376 1455 1405 1283 1164 1174 658 639 639 764 768 714 584 487 397 403 858 1109 979 973 626 873 988 909 1368 1398 1391
144 318 537 632 537 537 579 690 776 959 1015 1042 957 936 934 1006 1074 1145 1062 1025 1017 990 893 720 449 351 325 290 251 217 166 118 879 740 416 612 206 525 995 1070 1239 1649 1545
554 682 897 951 897 882 731 282 586 709 811 848 661 544 452 633 580 673 600 448 372 337 269 238 235 225 186 139 105 91 83 102 702 534 401 267 62 261 683 967 1126 1172 1300
848 1171 1229 1134 1290 1093 665 607 230 510 674 695 662 332 474 868 757 653 151 96 18 0 0 0 0 0 0 0 0 0 0 26 152 210 283 21 2 172 358 402 740 898 994
1049 1270 1491 1673 1652 1451 553 805 951 852 891 1048 1078 1058 804 1051 840 326 133 12 2 0 0 0 0 0 0 0 0 0 0 0 0 7 30 0 0 12 163 296 265 541 659
1051 1315 1569 1882 1959 1631 712 620 463 626 799 1058 1306 1310 1143 1024 990 940 801 661 615 17 71 0 0 0 0 0 0 0 0 0 0 0 0 0 0 0 0 20 232 264 283
775 1181 1827 1928 1782 1317 452 299 435 526 659 866 1011 1460 1308 983 838 905 702 528 427 119 118 1 0 0 0 0 0 0 0 0 0 0 0 0 0 0 0 0 0 36 95
483 911 1805 1973 1424 332 563 467 722 875 679 925 1078 991 1295 761 604 552 337 218 66 4 5 5 4 6 0 0 0 0 0 0 0 0 0 0 0 0 0 0 0 0 0
915 1247 1837 1546 621 309 357 595 485 661 520 744 472 425 1080 994 461 184 8 0 0 0 0 0 0 0 0 0 0 0 0 0 0 0 0 0 0 0 0 0 0 0 0
778 1160 1638 1228 464 364 321 252 191 90 289 72 16 189 344 462 100 76 8 0 0 0 25 65 6 0 0 0 0 0 0 0 0 0 0 0 0 0 0 0 0 0 0
1070 945 1033 601 545 263 162 110 11 0 0 0 0 7 31 64 80 49 8 0 0 5 0 0 0 0 0 0 0 0 0 0 0 0 0 0 0 0 0 0 0 0 0
530 665 787 794 454 173 93 36 24 31 24 0 8 2 1 12 24 53 34 22 37 40 21 33 9 0 0 0 0 0 0 0 0 0 0 0 0 0 0 0 0 0 0
23 134 278 415 223 61 39 9 2 9 3 0 0 0 0 0 0 4 2 17 47 57 37 42 69 42 0 0 0 0 0 0 0 0 0 0 0 0 0 0 0 0 0
0 0 21 38 16 0 0 0 0 0 0 0 0 0 0 0 0 0 0 0 14 32 54 57 49 81 77 13 0 0 0 0 0 0 0 0 0 0 0 0 0 0 0
0 0 0 0 0 0 0 0 0 0 0 0 0 1 0 0 0 0 0 0 0 0 8 23 69 74 52 23 28 0 3 5 8 0 0 0 0 0 0 0 0 0 0
0 0 0 0 0 0 0 0 0 0 0 0 0 0 0 0 1 0 0 0 0 0 0 0 5 25 43 48 63 18 20 30 50 48 4 0 0 0 0 0 0 0 0
0 0 0 0 0 0 0 0 0 0 2 0 0 0 1 0 0 0 0 0 0 0 0 0 2 11 38 30 86 113 35 26 72 77 7 0 0 0 0 0 0 0 0
0 0 0 0 0 0 0 0 0 0 0 10 0 0 0 0 0 0 0 0 0 0 0 1 8 21 28 46 45 68 54 35 5 33 39 14 1 0 0 0 0 0 0
0 0 0 0 0 0 0 0 1 0 0 0 0 0 0 0 0 0 0 0 0 0 0 2 7 11 14 14 7 5 1 1 7 14 13 17 35 7 0 0 0 0 0

GFSSE_con_mucape_027.txt.gz
CAPE
756 632 798 948 1187 1056 1035 1180 1252 1551 1941 2027 2048 2045 2103 2128 2016 2002 1853 2080 2021 1954 2003 1819 1809 1513 1349 1375 1562 1629 1662 1619 1786 1761 1651 1638 1417 1601 1629 1539 1543 1112 1192
632 773 845 1119 1263 1237 1312 1435 1590 1644 1854 1860 1813 1992 1965 1928 1906 1839 1690 1837 1825 1731 1736 1670 1786 1816 1587 1410 1389 1381 1357 1392 1396 1549 1355 1513 1616 1662 1514 1442 1727 1376 1474
685 804 870 1108 1551 1693 1746 1760 1862 1831 1762 1820 1941 1859 1768 1837 1785 1407 1182 1317 1377 1364 1387 1454 1636 1995 1921 1638 1539 1496 1400 1349 1339 1338 1397 596 1389 1782 1703 1480 1571 1621 1531
634 838 938 970 1230 1430 1597 1781 2017 1915 1880 1915 1848 1711 1764 1812 1549 1378 1324 1240 1439 1631 1684 1850 2028 1877 1742 1371 1005 793 623 559 869 1295 939 1473 951 1592 1629 1539 1550 1485 1508
420 869 870 855 1018 1229 1444 1583 1740 1860 1963 2118 2313 2138 2075 1849 1673 1561 1276 1227 1286 1796 1742 1638 1826 1372 1051 923 858 796 806 828 740 573 1011 1303 1513 1443 1459 1514 1411 1572 1505
388 559 579 703 863 1032 993 1170 1474 1654 1785 2023 2145 1945 1793 1645 1394 1363 1255 1424 1635 1398 1834 1843 1664 1181 787 696 612 641 762 771 714 836 1281 1375 1154 1402 1504 1246 1547 1462 1295
119 229 390 666 895 978 741 827 932 1187 1516 1764 1848 1863 1869 1779 1668 1579 1264 1369 1094 1030 770 796 1130 853 537 473 647 734 766 823 671 972 1120 1195 1217 1188 1169 1289 1444 1609 1744
41 91 75 548 865 910 814 838 974 1030 1100 1332 1323 1349 1316 1290 1344 1317 1276 1209 1170 947 769 728 770 730 680 589 500 420 336 329 792 820 621 941 760 853 1243 1182 1220 1355 1565
13 109 242 381 350 646 613 679 808 884 893 812 691 719 783 909 990 991 925 911 846 652 608 430 283 211 201 200 194 169 148 209 481 608 470 500 538 520 895 1175 1267 1414 1428
107 258 411 484 649 811 714 400 595 720 740 663 475 389 503 605 633 628 615 454 405 362 233 105 94 91 60 26 1 0 0 60 496 178 308 297 201 360 590 727 1080 1175 1372
361 503 622 584 743 551 366 387 293 569 721 613 540 308 636 986 765 687 156 108 25 0 0 0 0 0 0 0 0 0 0 0 0 3 148 108 61 136 345 430 500 963 1006
427 616 783 947 1015 699 66 361 492 388 734 725 715 698 672 692 772 102 193 59 9 28 0 0 0 0 0 0 0 0 0 0 0 0 37 0 0 0 29 275 348 475 678
439 460 545 1290 1106 745 338 135 204 247 297 698 827 804 757 586 635 606 567 806 904 144 246 8 7 0 0 0 0 0 0 0 0 0 2 0 0 0 0 0 126 318 313
402 314 537 1069 1116 671 167 21 86 105 338 357 682 729 700 453 460 473 241 175 106 58 58 27 19 8 2 0 0 0 0 0 0 0 0 0 0 0 0 0 0 0 44
114 129 618 1332 1665 194 128 121 181 310 381 636 485 469 466 265 301 191 120 24 2 3 6 10 10 7 13 4 0 0 0 0 0 0 0 0 0 0 0 0 0 0 0
71 235 517 1385 1669 206 85 217 168 333 292 403 190 178 181 243 141 78 19 0 0 0 2 0 0 0 0 0 0 0 0 0 0 0 0 0 0 0 0 0 0 0 0
130 304 725 1473 1399 594 204 186 31 14 5 2 0 1 33 67 38 56 32 23 8 7 83 12 8 11 17 10 2 0 0 0 0 0 0 0 0 0 0 0 0 0 0
197 334 680 1004 1092 1015 161 85 10 2 8 0 0 0 4 28 51 67 53 54 43 99 41 40 38 40 41 28 18 2 0 0 0 0 0 0 0 0 0 0 0 0 0
346 462 666 969 1218 960 238 112 41 40 43 3 5 11 1 11 8 39 38 37 111 53 104 147 119 207 124 76 24 26 13 1 1 0 0 0 0 0 0 0 0 0 0
119 307 541 781 1025 699 281 100 31 24 20 2 2 0 0 0 0 0 7 51 81 60 157 219 346 201 231 240 52 25 82 16 11 12 1 0 0 0 0 0 0 0 0
0 20 281 491 338 149 104 44 11 3 0 0 0 0 0 0 0 1 1 1 42 38 139 260 277 287 294 354 261 274 188 115 62 9 11 10 6 2 3 0 1 0 0
0 0 0 0 3 0 0 0 0 0 0 0 3 0 0 0 0 0 0 0 0 0 20 88 206 212 274 358 244 246 154 154 196 92 16 4 16 2 10 6 1 0 0
0 0 0 0 0 0 0 0 0 0 0 2 0 2 0 0 3 0 0 0 0 0 0 55 87 135 148 155 390 314 212 166 244 282 233 138 119 99 29 26 4 0 0
0 0 0 0 0 0 0 0 0 3 5 8 5 2 0 0 0 0 0 0 0 0 5 12 21 137 175 111 165 159 211 217 194 277 194 97 97 79 159 75 39 25 0
0 0 0 0 0 0 0 0 0 0 0 0 1 0 0 0 0 0 0 0 0 0 8 12 22 29 26 50 66 35 0 3 47 42 38 156 63 37 20 45 31 7 1
0 0 0 0 0 0 0 0 0 0 0 6 3 0 0 0 0 0 0 0 1 4 22 29 31 14 8 10 16 2 12 10 6 10 16 21 38 61 12 21 3 0 0

GFSSE_con_mucape_030.txt.gz
CAPE
479 560 984 1228 1108 1079 1110 1199 1357 1669 1847 1936 1870 1957 2004 1979 1969 1902 1991 1987 2126 2096 1731 1761 2062 1936 1385 1282 1439 1710 1661 1623 1684 1753 1578 1574 1605 1571 1415 1684 1473 1045 1816
614 632 941 1217 1203 1298 1367 1363 1443 1656 1920 1970 1939 1897 1894 1954 1886 1873 1921 1967 2021 1759 1431 1527 1831 1846 1745 1525 1575 1623 1567 1488 1447 1565 1622 1395 1765 1673 1456 1884 1773 1454 1643
572 687 873 1175 1414 1522 1665 1730 1705 1685 1882 1942 1917 1932 2011 1937 1530 1468 1570 1784 1778 1612 1703 1932 1961 2002 1812 1540 1416 1248 1082 1124 1179 1318 1481 781 984 1491 1537 1926 1794 1953 1862
809 675 799 966 1237 1411 1571 1793 1834 1823 1943 1947 1920 1987 1980 1742 1523 1309 1241 1475 1443 1682 1680 1976 1881 1737 1507 1131 802 595 531 619 659 735 346 796 1164 1400 1571 1570 1715 1592 1503
778 631 598 771 978 1244 1405 1601 1720 1831 1963 2129 2161 2059 1864 1703 1644 1390 1179 1513 1679 1584 1605 1802 1569 1041 862 733 652 635 645 707 715 554 496 708 872 1505 1479 1450 1248 1427 1271
475 446 389 557 748 937 1177 1381 1475 1559 1697 1830 1902 1860 1650 1540 1347 1107 1766 1386 1210 1191 1488 1613 1316 926 651 611 575 571 683 810 746 356 777 1097 1075 1527 1402 1500 1234 1336 1235
251 242 240 536 790 868 864 804 1055 1316 1535 1640 1680 1625 1528 1448 1444 1362 1257 1089 1036 763 705 792 766 608 471 520 608 609 635 577 403 487 614 1018 1155 1597 1490 1274 1386 1273 1253
6 2 70 580 766 814 873 863 857 998 1110 1221 1264 1218 1100 1121 1123 1062 1044 992 941 846 748 680 621 557 466 375 334 307 300 322 177 547 698 805 1046 1086 1171 1343 1467 1365 1283
0 0 44 129 374 560 547 637 654 680 667 712 737 743 824 920 957 852 837 724 598 513 433 325 196 113 78 71 81 93 133 192 52 287 407 367 845 835 873 926 1144 1349 1153
2 29 226 205 380 382 333 435 521 567 471 426 390 362 490 556 729 762 587 408 262 195 113 44 0 0 0 0 0 0 0 0 17 135 103 164 566 549 557 598 705 1095 1134
59 501 474 521 815 915 433 362 444 554 507 402 384 265 467 691 573 690 165 182 70 10 0 0 0 0 0 0 0 0 0 0 0 0 12 96 136 187 263 387 436 599 911
360 391 836 861 1020 614 46 266 652 627 619 654 708 640 823 591 548 120 237 125 115 100 29 10 0 0 0 0 0 0 0 0 0 0 0 0 0 0 0 42 336 394 615
393 495 576 1338 1160 844 597 343 581 641 850 1087 834 760 892 657 717 641 468 267 186 211 112 93 0 2 5 0 0 0 0 0 0 0 0 0 0 0 0 0 9 293 340
308 402 814 1101 1168 727 244 356 420 301 878 598 1097 870 961 673 685 339 308 99 131 115 159 41 15 38 12 10 1 0 0 0 0 0 0 0 0 0 0 0 0 45 205
393 273 769 1207 1349 843 205 635 678 549 902 718 624 819 611 353 564 336 148 63 9 0 0 1 0 0 0 6 8 0 0 0 0 0 0 0 0 0 0 0 0 0 0
154 405 1066 1490 1800 452 297 420 474 778 712 715 441 331 192 352 350 165 90 27 2 0 0 0 0 0 0 0 0 0 0 0 0 0 0 0 0 0 0 0 0 0 0
191 471 955 1537 1786 823 411 379 220 219 43 100 89 56 52 65 128 99 71 53 19 44 40 10 0 0 0 0 0 0 0 0 0 0 0 0 0 0 0 0 0 0 0
194 379 811 874 1649 1428 921 357 164 88 84 30 6 15 4 10 60 71 82 90 100 90 50 47 46 20 11 11 1 0 0 0 0 0 0 0 0 0 0 0 0 0 0
550 584 696 978 1310 1440 1025 311 225 78 48 66 54 33 46 6 59 32 30 50 95 55 50 60 36 52 47 43 20 5 0 7 1 0 0 0 0 0 0 0 0 0 0
294 459 582 778 1295 1153 595 231 97 60 56 71 31 2 0 0 8 9 0 13 73 31 25 41 75 95 100 99 62 46 21 22 17 13 0 0 0 0 0 0 0 0 0
127 185 255 469 425 369 198 76 36 7 3 0 0 5 3 16 0 0 0 0 0 0 0 0 0 0 0 73 111 35 0 0 45 43 5 4 0 0 0 0 0 0 0
0 0 0 53 72 14 0 0 0 0 0 4 16 0 7 5 0 0 0 0 0 0 0 0 0 0 0 7 71 63 9 0 0 11 58 21 5 8 3 0 0 0 0
0 0 0 0 0 0 0 0 0 0 5 2 5 3 0 0 0 0 0 0 0 0 0 0 0 0 1 0 9 84 44 14 14 0 17 68 54 28 35 2 3 4 0
0 0 0 0 0 0 0 0 0 0 0 0 0 0 0 0 0 0 0 0 0 0 0 0 0 3 7 0 0 5 7 19 15 2 3 26 115 93 73 36 17 0 0
0 0 0 0 0 0 0 0 0 0 0 0 0 0 0 0 0 0 0 0 0 0 0 8 1 0 3 16 15 4 2 0 18 39 7 0 0 49 38 28 34 32 5
0 0 0 0 0 1 0 0 0 0 0 0 0 0 0 0 0 0 0 0 0 0 0 0 4 3 5 1 8 1 0 0 0 0 0 0 0 0 49 71 65 10 10

GFSSE_con_mucape_033.txt.gz
CAPE
448 727 880 887 865 872 949 1094 1266 1393 1591 1661 1773 1843 1735 1724 1779 1845 1926 1935 1899 1947 1641 1740 2220 1831 1585 1471 1472 1542 1569 1463 1302 1400 1573 1449 1409 1563 1485 2010 1611 1281 2124
543 773 744 941 1074 1080 1126 1224 1396 1565 1705 1782 1740 1699 1732 1637 1627 1681 1748 1790 1812 1601 1639 1806 1966 2090 1867 1654 1581 1548 1446 1276 1125 1159 1380 1268 1522 1543 1623 1893 1663 1703 1792
597 731 872 976 1214 1350 1441 1399 1513 1698 1760 1769 1838 1851 1717 1518 1482 1416 1386 1656 1879 1594 1855 1966 1927 1870 1721 1389 1135 894 882 823 732 829 1027 604 786 1485 1269 1815 1817 2077 1963
577 675 772 881 1074 1285 1366 1455 1546 1696 1710 1736 1865 1832 1747 1524 1338 1244 1205 1581 1773 1534 1584 1836 1677 1419 1229 997 794 726 774 747 675 700 343 958 957 1220 1122 1574 1730 1819 1789
483 520 568 691 897 1147 1293 1389 1467 1613 1696 1770 1783 1823 1603 1411 1193 1112 1520 1568 1372 1655 1802 1740 1382 941 683 683 708 812 863 914 817 504 543 847 1094 1578 1171 1227 1319 1390 1129
389 283 357 476 739 1030 1185 1297 1337 1411 1439 1505 1556 1633 1447 1396 1119 1315 1124 1111 925 942 1281 1398 988 646 445 395 582 712 679 638 594 122 479 1051 980 1312 1400 1481 1141 966 945
97 95 198 396 623 773 820 831 1103 1230 1257 1368 1424 1401 1252 1190 1194 1038 991 879 678 573 523 526 488 431 461 457 434 364 284 244 141 58 430 1002 1422 1749 1597 1426 1208 1081 1023
0 23 190 515 583 636 658 638 676 773 867 958 1045 1091 936 995 1055 882 840 772 703 643 530 414 320 241 211 199 210 146 76 88 36 314 363 629 1251 1471 1494 1295 1158 1104 1135
0 0 71 197 339 345 315 333 373 444 492 529 567 628 653 694 769 849 761 553 470 373 281 150 52 9 3 0 2 1 0 0 0 130 181 203 889 923 911 929 1113 1188 1259
0 3 18 121 158 98 94 191 209 183 163 147 239 278 291 433 529 568 462 542 381 267 145 55 0 0 0 0 0 0 0 0 0 0 9 58 524 531 573 553 506 576 919
43 103 215 269 307 238 14 152 231 261 158 204 152 304 394 503 382 393 233 258 219 78 8 0 0 0 0 0 0 0 0 0 0 0 0 52 205 247 263 298 342 396 756
152 255 312 364 405 386 55 86 40 156 309 324 301 383 417 510 422 344 183 150 127 62 25 30 1 0 0 0 0 0 0 0 0 0 0 0 16 0 0 0 64 311 454
124 349 407 331 157 214 260 136 248 143 357 461 523 268 446 200 318 243 269 174 96 60 73 96 6 0 0 0 0 0 0 0 0 0 0 0 0 0 0 0 0 18 321
165 431 421 318 195 56 5 8 349 454 512 561 513 319 251 148 84 56 220 111 66 50 91 40 6 0 0 0 0 0 0 0 0 0 0 0 0 0 0 0 0 0 86
298 391 356 248 238 8 0 0 8 148 168 216 406 295 175 50 41 39 6 3 0 0 0 0 0 0 0 0 0 0 0 0 0 0 0 0 0 0 0 0 0 0 39
273 416 416 348 348 7 8 24 44 90 187 69 204 139 87 39 21 19 0 1 2 0 0 0 0 0 0 0 0 0 0 0 0 0 0 0 0 0 0 0 0 0 3
109 458 476 673 886 342 23 37 10 241 66 19 8 0 7 1 8 0 0 11 4 11 4 4 0 0 0 0 0 0 0 0 0 0 0 0 0 0 0 0 0 0 0
29 461 649 1128 699 437 201 171 11 8 0 0 0 0 0 0 0 0 3 0 0 0 0 0 0 0 0 0 0 0 0 0 1 0 0 0 0 0 0 0 0 0 0
159 285 700 1074 677 564 330 233 59 37 14 0 0 0 0 0 0 0 0 0 0 0 0 0 0 0 0 0 0 0 0 0 0 0 0 0 0 0 0 0 0 0 0
244 354 406 724 685 607 332 136 71 35 18 4 0 0 0 0 0 0 0 0 0 0 0 0 0 0 0 0 0 0 0 0 0 0 0 34 39 0 0 0 0 0 0
183 214 290 415 245 163 68 73 62 34 18 8 2 12 22 6 0 0 0 0 0 0 0 0 0 0 0 0 0 0 0 0 0 0 0 0 8 53 37 0 0 0 0
111 59 41 78 165 102 24 22 41 45 15 11 5 1 1 0 0 0 0 0 0 0 0 0 0 0 0 0 0 0 0 0 0 0 0 0 5 34 65 39 43 14 10
47 1 0 0 0 0 0 0 0 0 0 0 0 0 0 0 0 0 0 0 0 0 0 0 0 0 0 0 0 0 1 4 0 0 0 0 0 12 43 46 29 38 19
0 0 0 0 0 0 0 0 0 0 0 0 0 0 0 0 0 0 0 0 0 0 0 0 0 0 8 8 7 14 16 21 11 0 0 0 0 0 0 3 30 67 47
0 0 0 0 0 0 0 0 0 0 0 0 0 0 0 0 0 0 0 0 0 0 0 0 4 7 4 5 4 2 0 1 0 0 0 0 0 0 0 10 2 7 63
0 0 0 0 0 0 0 0 0 0 0 0 0 0 0 0 0 0 0 0 0 0 0 0 0 0 0 0 3 2 1 0 0 0 0 0 0 0 0 0 0 5 10

GFSSE_con_mucape_036.txt.gz
CAPE
534 620 575 739 841 925 1037 1074 1132 1221 1363 1563 1502 1488 1498 1593 1662 1706 1626 1660 1651 1661 1587 1757 1828 1732 1616 1506 1450 1409 1282 1325 1317 1250 1177 1419 1575 1495 1864 1827 1939 1660 2030
611 509 606 786 912 1027 1184 1267 1321 1408 1573 1629 1546 1495 1428 1494 1547 1579 1672 1781 1808 1727 1830 1853 1919 1784 1615 1475 1353 1187 1029 966 890 1038 1153 1003 1453 1413 1461 1765 1809 1994 2132
532 642 739 918 1110 1161 1302 1462 1547 1598 1658 1602 1470 1386 1375 1231 1043 996 1057 1486 1700 1496 1733 1705 1683 1571 1365 1061 852 746 743 936 796 858 686 467 884 1205 950 1437 1375 2031 2225
632 685 763 924 1094 1185 1233 1397 1484 1548 1619 1661 1501 1270 1139 1084 1012 1054 1257 1497 1502 1363 1739 1636 1270 1074 872 703 635 632 663 762 826 809 460 838 1013 1569 972 1485 1377 1370 1706
523 595 697 818 981 1137 1192 1316 1412 1485 1520 1560 1542 1324 1201 1033 1166 1156 1024 1282 1239 1609 1604 1414 1158 770 466 402 491 538 539 565 632 272 445 737 1034 1506 1057 1148 1299 1332 953
414 417 516 657 836 1055 1156 1243 1281 1291 1313 1370 1455 1445 1189 1101 988 855 837 689 674 702 820 545 439 361 361 430 413 332 342 315 145 22 285 755 986 1259 1309 1347 1115 1197 1093
204 207 260 383 648 939 1023 1041 1147 1196 1239 1311 1345 1298 1051 894 795 745 666 557 501 467 442 416 388 315 255 258 240 202 138 110 14 17 493 744 910 1322 1285 1273 1240 1042 969
4 50 142 384 466 552 667 671 680 780 847 915 1009 1066 872 813 776 658 641 590 535 447 338 233 134 91 64 51 51 28 5 5 0 145 136 625 877 1121 1128 1302 1215 1010 920
1 27 65 136 234 260 245 282 296 416 490 584 639 682 656 609 641 730 613 467 385 287 200 80 17 1 0 0 0 0 0 0 0 7 99 226 793 1038 974 1069 978 974 874
0 0 0 6 6 6 32 103 101 117 177 230 300 269 293 313 390 454 420 508 372 240 125 44 1 0 0 0 0 0 0 0 0 0 0 8 648 759 770 585 478 480 667
36 55 83 51 45 0 0 48 141 150 109 96 236 195 189 137 207 274 128 247 319 170 61 2 0 0 0 0 0 0 0 0 0 0 0 0 437 527 519 499 394 374 570
75 154 172 147 106 21 21 69 54 54 144 91 231 328 316 306 230 253 171 167 143 31 0 0 0 0 0 0 0 0 0 0 0 0 0 0 140 179 23 13 123 263 372
112 239 266 244 233 193 54 78 98 242 321 304 273 327 337 416 477 370 187 107 13 5 0 0 0 0 0 0 0 0 0 0 0 0 0 0 0 0 0 0 0 2 87
276 291 315 337 415 231 315 89 299 203 326 421 501 326 327 247 271 221 146 32 23 0 1 7 0 4 0 0 0 0 0 0 0 0 0 0 0 0 0 0 0 0 9
336 356 319 113 166 0 6 99 287 442 423 556 542 352 310 117 25 36 5 0 0 0 0 0 0 0 0 0 0 0 0 0 0 0 0 0 0 0 0 0 0 0 0
428 438 363 57 5 2 0 1 16 134 397 418 476 359 186 73 15 0 0 0 0 0 0 0 0 0 0 0 0 0 0 0 0 0 0 0 0 0 0 0 0 0 0
313 487 451 146 234 81 19 29 34 102 87 129 248 169 66 31 15 0 0 0 0 0 0 0 0 0 0 0 0 0 0 0 0 0 0 4 2 0 0 0 0 0 0
330 494 427 421 479 369 39 85 64 176 81 3 58 7 30 7 1 0 0 0 0 0 0 0 0 0 0 0 0 0 0 0 0 0 0 0 0 1 0 3 22 20 76
337 416 686 541 478 510 307 96 117 37 17 43 9 4 0 0 0 0 0 0 0 0 0 0 0 0 0 0 0 0 0 0 0 0 0 0 0 0 12 11 14 28 70
322 597 822 527 531 521 228 131 124 122 60 39 24 3 5 11 11 3 0 8 1 0 0 0 0 0 0 0 0 0 0 0 0 0 0 0 0 0 0 0 6 9 39
374 404 249 266 217 215 106 126 90 74 42 46 38 27 8 13 16 30 45 1 0 0 0 0 0 0 0 0 0 0 0 0 0 0 0 0 0 0 0 0 0 0 0
111 67 48 22 16 0 0 0 15 16 25 56 39 29 41 27 13 10 5 1 5 9 0 0 0 0 0 0 0 0 0 0 0 0 0 0 0 0 0 0 0 0 0
25 9 7 0 0 0 0 0 0 0 0 0 0 0 0 0 0 0 2 0 0 0 0 0 0 0 0 0 1 0 0 0 0 0 0 0 0 0 0 0 0 1 8
36 0 0 0 0 0 0 0 0 0 0 0 0 0 0 0 0 0 0 0 0 0 0 0 0 0 0 0 0 0 0 0 0 0 0 0 0 0 0 0 0 0 3
0 0 0 0 0 0 0 0 0 0 0 0 0 0 0 0 0 0 0 0 0 0 0 0 0 0 0 0 0 0 0 0 0 0 0 0 0 0 0 0 0 0 0
0 0 0 0 0 0 0 0 0 0 0 0 0 0 0 0 0 0 0 0 0 0 0 0 0 0 0 0 0 0 0 0 0 0 0 0 0 0 0 0 0 3 0

GFSSE_con_mucape_039.txt.gz
CAPE
440 407 499 815 975 984 876 929 950 1089 1324 1368 1316 1353 1425 1497 1465 1490 1552 1559 1321 1472 1456 1709 1608 1488 1398 1301 1181 1054 942 904 1094 994 1065 1334 1452 1473 1990 2190 1958 1743 1823
424 335 482 794 990 1022 1078 1098 1148 1365 1419 1199 1245 1277 1297 1304 1257 1265 1460 1640 1711 1497 1529 1486 1512 1454 1269 1058 849 758 723 857 983 1003 870 878 1318 1252 1413 1891 1878 1996 1897
353 398 516 757 1061 1221 1320 1371 1473 1544 1259 1083 988 1052 998 895 833 840 1111 1283 1442 1397 1426 1401 1233 1102 929 783 688 678 712 707 722 755 377 704 699 908 958 1452 1633 1749 1933
450 525 613 781 995 1235 1323 1416 1465 1447 1283 1214 1059 974 950 899 992 1090 1104 1379 1391 1432 1231 1121 967 700 454 382 415 458 476 468 471 358 420 719 1026 1366 1168 1343 1309 1522 1575
476 555 657 711 868 1105 1212 1299 1395 1459 1383 1345 1266 1056 997 1114 1022 899 858 1018 1231 1069 914 806 493 294 202 233 263 236 192 195 163 166 330 630 875 1207 998 1059 1165 1266 967
467 534 614 684 809 1025 1160 1232 1265 1296 1287 1293 1289 1162 1117 990 822 733 656 623 628 635 439 347 253 231 188 170 171 131 76 70 0 0 197 500 805 1206 1207 1192 1068 1062 1005
414 469 539 622 782 1020 1076 1038 1086 1132 1161 1246 1278 1233 965 786 712 634 542 487 448 434 398 285 204 138 97 84 41 20 0 0 0 25 306 426 643 1184 1205 1397 1292 1158 1112
202 236 248 444 620 808 911 888 854 911 929 923 994 1026 827 758 674 569 548 511 456 334 219 135 71 35 20 18 0 0 0 0 0 2 34 434 646 1186 892 1191 1103 1112 1008
0 0 20 83 201 291 286 328 392 505 543 583 678 700 688 622 570 650 582 499 382 239 145 56 15 0 0 0 0 0 0 0 0 0 0 29 283 752 658 702 839 916 1053
0 0 0 0 0 0 10 98 130 181 224 257 307 302 260 297 356 404 322 401 330 235 115 56 2 0 0 0 0 0 0 0 0 0 0 0 171 614 735 683 485 402 409
0 0 0 0 0 0 0 7 68 107 88 108 160 159 82 87 167 229 135 235 328 207 107 48 0 0 0 0 0 0 0 0 0 0 0 0 67 363 561 494 427 338 358
0 0 21 0 0 0 0 0 0 0 0 156 194 156 166 156 172 188 214 227 230 135 74 54 39 5 0 0 0 0 0 0 0 0 0 0 3 187 258 92 62 75 142
41 98 117 9 8 0 0 2 23 55 57 106 179 320 294 248 298 301 272 129 16 4 0 0 0 0 0 0 0 0 0 0 0 0 0 0 3 71 7 37 3 10 49
95 174 198 41 118 139 28 68 111 158 211 238 278 321 326 320 298 321 372 117 13 0 0 0 0 0 0 0 0 0 0 0 0 0 0 0 1 15 0 0 0 0 53
159 254 250 181 253 175 196 102 227 204 237 340 391 470 302 221 99 35 61 0 0 0 0 0 0 0 0 0 0 0 0 0 0 0 0 0 0 0 2 3 0 0 0
229 322 351 308 336 186 198 150 191 293 387 411 533 525 336 241 39 20 0 0 0 0 0 0 0 0 0 0 0 0 0 0 0 0 0 0 0 0 0 0 3 3 0
270 384 402 297 161 70 23 0 19 166 372 506 483 568 412 184 10 5 0 0 0 0 0 0 0 0 0 0 0 0 0 0 0 0 0 5 6 0 0 2 0 76 80
372 479 481 313 104 109 27 19 9 45 74 53 179 335 205 45 8 0 0 0 7 6 1 0 0 0 0 0 0 0 0 0 0 0 0 0 0 0 0 0 0 3 78
206 532 466 215 130 162 157 55 45 41 107 22 24 44 14 10 2 1 1 6 8 6 3 6 1 0 0 0 0 0 0 0 0 0 0 0 0 0 0 0 0 0 0
269 395 417 260 211 285 189 99 93 67 50 63 60 34 21 35 31 49 53 47 17 16 5 1 0 0 0 0 0 0 0 0 0 0 0 0 0 0 0 0 0 0 0
565 550 443 259 174 165 123 131 84 112 81 61 68 76 47 46 51 39 30 24 7 6 2 4 0 0 0 0 0 0 0 0 0 0 0 0 0 0 0 0 0 0 0
273 142 59 52 51 28 0 0 0 0 0 0 0 0 0 0 0 1 4 9 17 18 16 5 0 0 0 0 0 0 0 0 0 0 0 0 0 0 0 0 0 0 0
58 31 20 6 0 0 0 0 0 0 0 0 0 0 0 0 0 0 0 0 0 0 0 0 0 0 0 0 0 0 0 0 0 0 0 0 0 0 0 0 0 0 0
1 0 0 0 0 0 0 0 0 0 0 0 0 0 0 0 0 0 0 0 0 0 0 0 0 0 0 0 0 0 0 0 0 0 0 0 0 0 0 0 0 0 0
0 0 0 0 0 0 0 0 0 0 0 0 0 0 0 0 0 0 0 0 0 0 0 0 0 0 0 0 0 0 0 0 0 0 0 0 0 0 0 0 0 0 0
0 0 0 0 0 0 0 0 0 0 0 0 0 0 0 0 0 0 0 0 0 0 0 0 0 0 0 0 0 0 0 0 0 0 0 0 0 0 0 0 0 0 0

GFSSE_con_mucape_042.txt.gz
CAPE
289 303 592 1034 1199 915 844 806 923 1045 1116 1244 1293 1321 1328 1306 1297 1243 1175 1266 1431 1232 1412 1285 1216 1144 1054 888 795 725 650 637 664 762 803 1174 1419 1526 2001 2176 1984 1687 1956
344 307 609 975 1051 940 945 1003 1169 1158 1161 1113 1157 1176 1161 1161 1187 1200 1390 1509 1466 1114 1126 1161 1088 941 806 705 665 715 686 613 612 588 563 537 959 1131 959 1496 1771 1924 2024
260 381 607 859 1069 1149 1214 1395 1410 1308 1075 908 900 960 895 752 760 922 988 1271 1276 1079 983 1018 869 670 503 411 388 455 457 373 377 411 284 503 559 980 1069 1538 1611 1707 1606
318 453 644 927 1137 1288 1355 1416 1369 1263 1014 1047 886 838 784 801 904 926 1057 1304 1386 759 652 814 631 333 189 171 175 164 182 214 152 152 226 520 820 1271 971 1478 1571 1609 1524
419 529 693 818 1024 1207 1292 1395 1423 1344 1232 1141 1039 867 927 997 874 767 840 1250 1059 769 652 382 178 144 122 142 123 97 49 72 6 17 168 372 596 1034 1043 957 958 1098 928
442 496 593 722 878 1089 1235 1319 1278 1201 1136 1154 1120 1076 1068 844 658 540 570 721 623 439 315 232 174 123 94 99 34 0 0 0 0 10 158 279 579 1128 1260 1389 835 924 874
480 501 522 629 806 1021 1095 1065 1092 1067 1062 1168 1184 1182 875 615 550 477 448 426 424 343 201 150 111 61 27 31 0 0 0 0 0 17 127 400 492 1207 1119 1365 1214 1089 1112
493 509 533 649 764 897 982 935 875 919 964 989 1023 992 772 690 611 454 429 408 318 205 134 86 45 6 6 1 0 0 0 0 0 0 11 122 371 989 778 1077 1246 1177 1172
335 296 329 429 545 608 624 633 682 692 641 667 699 685 624 496 506 551 497 355 218 141 72 44 30 1 0 0 0 0 0 0 0 0 0 0 52 498 590 640 601 716 766
12 0 0 3 29 50 145 245 301 307 305 370 395 328 262 266 327 235 190 239 167 125 111 109 20 0 0 0 0 0 0 0 0 0 0 0 68 283 440 593 587 428 284
0 0 0 0 0 0 0 22 137 192 160 152 168 188 106 31 92 129 56 84 142 83 105 163 134 30 4 0 0 0 0 0 0 0 0 0 0 21 127 418 631 179 101
0 0 0 0 0 0 0 0 0 0 0 0 12 54 55 57 91 101 127 109 143 122 104 75 63 26 5 0 0 0 0 0 0 0 0 0 0 0 34 96 473 165 172
0 0 0 0 0 0 0 0 0 0 11 150 194 178 173 169 183 201 182 127 15 0 0 0 0 0 0 0 0 0 0 0 0 0 0 0 0 0 0 0 204 105 142
0 27 62 0 0 0 0 0 23 59 71 100 165 252 270 264 257 241 255 177 2 0 0 0 0 0 0 0 0 0 0 0 0 0 0 0 0 0 8 16 27 141 166
39 101 158 2 0 1 0 1 92 118 205 247 320 354 398 342 196 99 80 14 0 0 0 0 0 0 0 0 0 0 0 0 0 0 0 0 0 0 0 0 22 0 91
85 181 240 126 41 177 65 100 74 186 216 324 434 524 574 338 243 60 12 0 0 0 0 0 0 0 0 0 0 0 0 0 0 0 0 0 0 0 0 0 0 0 2
75 207 327 326 189 270 84 55 32 133 253 518 558 591 662 438 222 4 0 0 0 0 1 2 2 0 0 0 0 0 0 0 0 0 0 0 0 0 0 0 0 0 0
91 190 362 424 352 40 25 4 6 5 205 135 145 272 490 337 115 0 4 10 14 2 10 12 16 19 14 5 0 0 0 0 0 0 0 0 0 0 0 0 0 0 0
165 145 266 346 243 150 21 5 13 75 46 72 74 51 134 86 41 34 41 30 30 22 7 50 32 2 1 1 0 0 0 0 0 0 0 0 0 0 0 0 0 0 0
199 232 320 258 133 28 93 65 63 69 46 45 50 51 30 36 42 49 55 42 15 7 7 6 4 7 1 0 0 0 0 0 0 0 0 0 0 0 0 0 0 0 0
174 298 308 285 203 160 91 35 23 51 38 3 0 0 0 0 0 0 0 0 0 0 0 0 0 0 0 0 0 0 0 0 0 0 0 0 0 0 0 0 0 0 0
371 262 68 26 22 0 0 0 0 0 0 0 0 0 0 0 0 0 0 0 0 0 0 0 0 0 0 0 0 0 0 0 0 0 0 0 0 0 0 0 0 0 0
15 15 2 0 0 0 0 0 0 0 0 0 0 0 0 0 0 0 0 0 0 0 0 0 0 0 0 0 0 0 0 0 0 0 0 0 0 0 0 0 0 0 0
0 0 0 0 0 0 0 0 0 0 0 0 0 0 0 0 0 0 0 0 0 0 0 0 0 0 0 0 0 0 0 0 0 0 0 0 0 0 0 0 0 0 0
0 0 0 0 0 0 0 0 0 0 0 0 0 0 0 0 0 0 0 0 0 0 0 0 0 0 0 0 0 0 0 0 0 0 0 0 0 0 0 0 0 0 0
0 0 0 0 0 0 0 0 0 0 0 0 0 0 0 0 0 0 0 0 0 0 0 0 0 0 0 0 0 0 0 0 0 0 0 0 0 0 0 0 0 0 0

GFSSE_con_mucape_045.txt.gz
CAPE
366 344 763 1058 1000 892 850 904 928 1014 1170 1307 1345 1234 1177 1215 1194 1171 1323 1225 1236 1098 978 978 895 832 756 663 631 642 601 528 529 560 657 844 1124 1168 1434 1849 1611 1328 1750
425 448 789 1022 1000 873 954 1054 1068 1143 1273 1238 1260 1182 1163 1198 1264 1308 1421 1332 1163 964 977 904 772 653 550 458 448 429 371 309 328 403 382 575 693 760 1068 1473 1767 1469 1796
382 643 1000 965 1049 1048 1244 1294 1200 1239 1198 994 955 1032 952 826 867 902 1039 1297 1057 722 901 735 482 300 197 154 164 166 200 176 123 81 159 854 954 1140 934 1443 1557 1637 1660
500 811 1055 922 1132 1293 1391 1313 1224 1181 1097 1072 913 785 749 780 799 830 896 1287 976 572 651 313 92 83 110 118 118 69 39 29 0 19 288 767 922 1128 867 1141 1371 1118 1230
660 876 1126 1029 1163 1366 1358 1367 1276 1230 1122 1072 1004 837 925 892 822 837 1071 1133 763 464 232 110 91 76 61 41 3 0 0 0 0 4 344 573 1098 1157 1079 943 784 1017 1194
703 907 890 985 1095 1320 1469 1448 1287 1188 1052 1027 1041 1101 964 760 536 526 671 816 373 228 97 68 45 18 4 16 3 0 0 0 0 5 190 744 1030 1299 1123 1332 939 1102 1180
577 779 950 832 1014 1293 1397 1214 1116 1060 1025 1042 1154 1155 807 551 417 379 442 427 285 99 52 19 1 0 0 7 0 0 0 0 0 7 173 676 1008 1126 895 861 1175 1181 1005
549 618 755 748 893 1035 1103 997 899 928 969 991 1028 952 714 606 501 397 400 310 170 96 35 6 0 0 0 0 0 0 0 0 0 0 0 19 296 613 719 606 1092 982 551
523 588 704 803 849 813 756 752 751 794 763 731 731 684 534 449 482 513 445 273 129 52 34 0 0 0 0 0 0 0 0 0 0 0 0 0 51 194 280 577 662 638 276
446 396 469 551 666 764 771 584 587 503 425 455 432 324 205 245 259 234 132 208 125 128 148 72 70 2 0 0 0 0 0 0 0 0 0 0 0 0 0 115 517 497 311
214 63 72 136 187 224 280 342 264 273 262 239 227 157 87 304 351 223 47 65 150 165 143 148 143 62 6 0 0 0 0 0 0 0 0 0 0 0 0 18 658 594 297
0 0 0 0 0 6 0 167 168 148 133 160 253 324 294 394 439 320 194 63 99 49 19 5 0 0 18 6 0 0 0 0 0 0 0 0 0 5 14 79 266 479 524
0 0 0 0 0 0 0 6 0 28 30 65 200 228 315 344 437 571 584 337 254 0 46 0 0 0 0 0 0 0 0 0 0 0 0 0 0 0 19 32 118 290 299
0 0 0 0 0 0 0 0 0 0 15 101 140 211 402 586 617 574 536 402 115 0 0 0 0 0 0 0 0 0 0 0 0 0 0 0 0 0 0 0 15 30 156
0 0 21 0 0 0 0 4 18 46 139 238 311 439 510 661 541 198 187 32 0 0 0 0 0 0 0 0 0 0 0 0 0 0 0 0 0 0 0 0 0 0 0
11 67 98 44 8 1 0 18 91 131 161 256 402 470 422 553 348 192 9 0 0 0 0 0 3 0 0 0 0 0 0 0 0 0 0 0 0 0 0 0 0 0 0
58 112 163 270 34 132 196 105 17 33 42 125 290 360 395 459 397 236 40 0 0 6 6 7 2 5 0 0 10 0 0 0 0 0 0 0 0 0 0 0 0 0 0
65 97 194 258 298 247 17 0 0 8 0 15 124 95 87 171 205 114 41 10 13 10 30 29 7 0 0 0 0 0 0 0 0 0 0 0 0 0 0 0 0 0 0
92 99 86 184 264 192 9 4 0 1 16 40 34 29 17 58 8 13 29 27 10 19 17 1 0 0 0 0 0 0 0 0 0 0 0 0 0 0 0 0 0 0 0
132 127 119 134 196 134 73 19 1 88 20 7 29 27 9 0 0 0 0 0 0 0 0 0 0 2 1 0 0 0 0 0 0 0 0 0 0 0 0 0 0 0 0
182 222 181 190 42 127 130 59 13 10 0 0 0 0 0 0 0 0 0 0 0 0 0 0 0 0 0 0 0 0 0 0 0 0 0 0 0 0 0 0 0 0 0
259 287 183 91 51 35 0 0 0 0 0 0 0 0 0 0 0 0 0 0 0 0 0 0 0 0 0 0 0 0 0 0 0 0 0 0 0 0 0 0 0 0 0
0 11 4 0 0 0 0 0 0 0 0 0 0 0 0 0 0 0 0 0 0 0 0 0 0 0 0 0 0 0 0 0 0 0 0 0 0 0 0 0 0 0 4
0 0 0 0 0 0 0 0 0 0 0 0 0 0 0 0 0 0 0 0 0 0 0 0 0 0 0 0 0 0 0 0 0 0 4 0 0 0 2 1 2 1 0
0 0 0 0 0 0 0 0 0 0 0 0 0 0 0 0 0 0 0 0 0 0 0 0 0 0 0 1 10 8 0 10 17 3 0 20 28 17 2 2 4 4 0
0 0 3 0 0 0 0 0 0 0 0 0 0 0 0 0 0 0 0 0 0 0 0 0 0 0 0 2 16 27 32 32 35 31 30 41 57 39 23 12 11 3 4

GFSSE_con_mucape_048.txt.gz
CAPE
366 788 872 989 1018 942 936 955 1060 1153 1243 1353 1296 1291 1267 1146 1058 1231 1213 1343 1153 875 849 824 738 655 572 529 457 390 317 264 350 434 675 910 786 722 1119 1326 1624 895 1573
465 854 797 1056 1017 987 1030 1089 1205 1302 1402 1203 1178 1183 1233 1242 1224 1128 1108 1067 944 811 749 692 526 392 277 202 157 139 148 121 127 155 415 652 1024 779 825 1214 1597 1195 1636
496 889 964 913 978 1098 1181 1251 1356 1388 1117 960 913 993 971 890 903 952 960 1039 700 678 518 309 137 111 112 126 76 29 15 0 9 114 396 782 1136 1032 791 1283 1479 1398 1288
596 828 1048 811 1033 1303 1309 1312 1371 1285 1104 1088 855 739 737 725 723 761 969 902 627 495 227 125 130 121 63 9 0 0 0 0 0 79 400 674 760 1165 1003 960 1162 989 955
842 1006 1204 932 1145 1420 1381 1426 1379 1286 1187 1103 994 840 858 839 909 1017 883 931 405 186 85 45 17 2 0 0 0 0 0 0 0 55 367 937 1021 1040 1146 858 913 990 915
997 1159 853 1005 1182 1312 1524 1426 1345 1199 1064 1033 1130 993 827 591 496 606 635 564 219 57 17 0 0 0 0 0 0 0 0 0 0 0 142 617 1028 983 960 956 814 742 1096
1005 1262 1433 1008 1205 1397 1533 1361 1210 1054 1010 1115 1205 976 609 434 396 430 416 298 80 21 0 0 0 0 0 0 0 0 0 0 0 0 0 238 636 733 702 654 553 459 384
971 1025 1124 966 1146 1276 1266 1046 906 919 953 1030 1000 852 566 464 416 352 254 134 38 0 0 0 0 0 0 0 0 0 0 0 0 0 0 3 42 119 128 520 740 575 194
807 1017 1100 1197 1042 887 779 712 736 817 840 804 730 685 564 522 552 435 338 122 39 25 9 0 0 0 0 0 0 0 0 0 0 0 0 0 0 3 0 2 309 549 215
782 801 785 737 703 727 798 627 649 613 504 484 487 337 304 283 254 256 223 169 66 65 33 22 23 0 0 0 0 0 0 0 0 0 0 0 0 0 0 0 0 80 109
700 718 547 432 483 445 334 476 362 304 302 266 267 175 118 373 441 306 28 102 111 93 59 28 1 0 0 0 0 0 0 0 0 0 0 0 0 2 10 11 370 359 356
466 236 224 225 193 115 5 154 188 74 39 340 421 499 505 718 795 583 321 75 82 8 0 0 0 0 9 0 0 0 0 0 0 0 0 0 0 0 18 35 62 296 427
52 2 45 128 122 35 20 31 5 16 184 582 775 785 865 804 945 965 1025 842 789 35 124 0 8 0 24 23 1 8 0 0 0 0 0 0 0 0 0 0 5 30 148
0 3 38 73 128 105 20 16 105 223 516 617 784 929 1073 1300 1129 1060 974 1005 833 210 101 39 28 52 9 0 0 0 0 0 0 0 0 0 0 0 0 0 0 0 0
0 18 127 159 103 146 265 357 429 578 673 888 902 1067 1237 1326 1292 1028 967 674 328 167 101 83 28 0 0 0 0 0 0 0 0 0 0 0 0 0 0 0 0 0 0
0 29 308 342 367 371 488 590 661 701 727 956 1047 1251 1134 951 551 356 241 202 128 18 0 0 0 0 0 0 0 0 0 0 0 0 0 0 0 0 0 0 0 0 0
39 101 381 501 586 587 375 131 90 82 65 136 260 287 470 499 339 212 161 93 49 8 3 3 0 0 2 0 0 0 0 0 0 0 0 0 0 0 0 0 0 0 0
63 257 408 419 434 193 146 80 10 20 5 10 57 75 56 45 41 69 37 46 49 36 0 0 0 0 0 0 0 0 0 0 0 0 0 0 0 0 0 0 0 0 0
171 459 514 501 238 111 80 54 19 4 16 11 22 30 64 45 25 0 0 0 0 0 0 0 0 0 0 0 0 0 0 0 0 0 0 0 0 0 0 0 0 0 0
538 642 619 477 96 172 77 11 0 3 37 23 16 0 0 0 0 0 0 0 0 0 0 0 0 0 0 0 0 0 0 0 0 0 0 0 0 0 0 0 0 0 0
644 586 665 306 174 53 0 0 7 0 0 0 0 0 0 0 0 0 0 0 0 0 0 0 0 0 0 0 0 0 0 0 28 15 7 0 0 0 0 0 0 0 0
725 687 654 499 285 440 190 22 0 0 0 0 0 0 0 0 0 0 0 0 0 0 0 0 0 0 0 0 1 0 0 0 0 26 27 20 12 3 1 3 5 2 0
859 763 601 597 545 135 0 0 0 0 0 0 0 0 0 0 0 0 0 0 0 0 0 0 0 0 0 0 4 6 0 0 3 0 15 25 25 16 15 15 14 16 12
97 69 29 67 29 1 0 0 0 0 11 0 0 0 0 0 0 0 0 0 0 0 0 0 0 0 1 0 0 7 35 40 0 0 11 6 18 15 16 19 26 34 39
0 0 0 0 0 0 0 0 0 0 0 0 0 0 0 0 0 0 0 0 0 0 0 2 3 12 11 23 31 41 59 50 60 41 33 34 34 52 53 46 38 54 58
0 0 0 0 0 0 0 0 0 0 0 0 0 0 0 0 0 0 0 0 5 24 32 41 45 46 62 69 76 68 46 35 37 38 125 88 75 33 47 37 52 32 55

GFSSE_con_mucape_051.txt.gz
CAPE
554 632 767 921 925 937 971 1009 1063 1146 1274 1389 1351 1279 1220 1099 1053 1173 1118 1127 925 710 692 640 529 407 313 218 159 154 108 97 169 315 577 796 820 759 828 1479 1380 642 1524
735 628 717 917 965 934 1035 1095 1155 1252 1280 1035 1009 1155 1274 1229 1133 955 940 947 751 603 596 403 212 151 119 76 54 42 19 6 53 210 405 884 1420 876 791 1418 1460 1134 1494
748 637 434 852 1000 1078 1193 1287 1347 1264 990 930 874 900 886 875 863 858 688 637 657 510 251 158 157 107 28 0 0 0 0 0 11 171 905 759 870 1198 952 1261 1514 1232 1149
774 596 432 793 1044 1218 1203 1274 1255 1109 957 894 752 704 644 630 681 876 606 694 437 235 166 106 32 0 0 0 0 0 0 0 55 297 364 474 792 1234 876 990 1330 682 661
729 783 759 864 1102 1262 1283 1253 1203 1065 1100 1042 922 721 752 814 877 768 607 610 225 76 12 0 0 0 0 0 0 0 0 19 161 49 113 95 640 834 879 798 729 757 685
798 927 619 950 1124 1281 1355 1291 1072 1074 1049 1093 1097 793 601 477 563 575 420 387 47 0 0 0 0 0 0 0 0 0 3 39 2 8 58 883 725 779 696 559 529 536 649
820 998 975 993 1123 1374 1313 1078 1094 1004 1056 1198 940 679 361 357 372 387 275 91 4 0 0 0 0 0 0 0 0 0 0 0 0 0 5 34 1 183 412 703 695 499 175
724 1070 971 949 944 1032 983 997 844 854 984 966 803 656 374 340 341 183 95 29 7 0 0 0 0 0 0 0 0 0 0 0 0 0 0 0 58 21 0 4 602 594 242
899 947 980 909 886 886 698 634 652 750 773 693 662 570 461 489 475 358 278 42 21 16 0 0 0 0 0 0 0 0 0 0 0 0 0 0 0 0 0 0 7 42 92
792 886 944 942 839 853 733 540 572 565 486 432 361 251 225 209 227 254 310 156 47 29 41 43 42 0 0 0 0 0 0 0 0 0 38 0 0 0 1 37 2 0 103
853 665 506 445 470 511 540 573 394 402 342 233 114 136 51 219 317 267 61 120 63 31 31 23 2 0 2 5 0 0 16 6 0 15 47 0 0 0 0 43 65 70 113
690 401 358 374 333 184 32 201 139 45 2 136 186 278 636 574 748 552 306 144 135 37 69 9 4 47 69 74 48 44 19 0 14 6 36 0 0 0 0 0 13 41 66
244 112 174 212 159 67 151 85 47 12 310 589 787 820 888 637 870 862 763 1021 970 224 285 56 92 88 98 78 39 27 0 0 0 3 1 0 0 0 0 0 0 0 0
12 36 57 131 150 93 14 3 9 86 411 644 853 1054 1148 1069 1117 1087 914 799 1119 445 229 168 134 209 90 52 0 0 0 0 0 0 0 0 0 0 0 0 0 1 3
0 70 164 111 201 346 279 511 650 676 949 1144 1083 1102 1571 1671 1122 1029 1171 758 439 350 235 201 152 103 49 27 6 0 1 0 1 0 0 0 0 0 0 0 0 0 0
32 301 321 297 333 522 777 781 864 646 708 653 863 1065 1181 1173 1090 811 546 448 344 109 56 13 6 1 1 18 0 0 0 1 3 1 1 1 0 0 0 0 0 0 0
127 505 585 541 629 697 523 294 169 97 92 52 103 328 621 787 636 493 330 91 24 10 1 0 0 0 0 2 2 1 1 1 0 0 1 0 1 0 0 0 0 0 0
212 522 738 623 758 422 192 34 52 59 42 44 17 36 67 93 61 41 9 2 0 0 0 0 0 0 0 0 0 0 0 0 0 0 0 0 1 0 0 0 0 0 0
176 612 790 857 390 147 77 31 17 2 10 14 0 0 6 26 9 0 0 0 0 0 0 0 0 0 0 0 0 0 0 0 0 0 0 0 4 7 1 0 0 0 0
376 733 929 665 203 176 123 42 40 0 6 5 11 21 4 0 0 0 0 0 0 0 1 0 0 0 0 0 0 0 0 0 0 0 2 8 12 14 14 9 2 0 2
806 982 873 445 393 434 386 153 17 0 0 0 0 0 0 0 0 0 0 0 0 0 0 0 0 0 0 0 0 0 0 0 4 8 14 17 12 9 15 17 16 18 6
958 895 756 580 534 602 281 255 99 25 0 0 0 0 0 0 0 0 0 0 0 0 0 0 0 0 0 0 0 0 0 0 0 0 2 20 35 19 21 16 22 26 29
726 780 872 694 599 326 45 11 22 2 0 0 1 0 0 0 0 0 0 0 0 0 0 0 0 0 0 0 1 1 0 0 0 2 0 0 37 13 7 7 15 23 36
685 461 199 153 117 7 0 0 0 2 21 53 24 7 1 0 0 0 0 0 1 3 6 12 9 20 22 10 15 14 29 32 0 0 34 17 1 24 70 69 78 47 56
106 50 36 13 0 0 0 1 2 14 15 15 5 0 0 0 8 5 1 3 11 14 22 32 47 50 42 42 40 35 34 55 49 80 0 58 40 24 42 100 80 57 43
0 0 0 0 0 0 0 0 0 3 3 0 0 0 0 0 0 1 3 12 23 39 50 52 86 73 79 77 75 74 61 60 47 76 94 55 77 16 42 43 73 79 108

GFSSE_con_mucape_054.txt.gz
CAPE
345 224 780 1044 1113 1120 1092 1082 1099 1130 1247 1308 1277 1223 1205 1220 1254 1096 1035 909 789 580 474 281 171 99 72 51 48 46 37 53 111 302 669 840 652 673 755 1254 1011 743 1783
259 252 684 903 1036 1075 1099 1098 1159 1182 1205 1174 1178 1234 1231 1159 1105 1042 929 791 702 379 187 130 97 46 1 0 0 0 0 65 120 186 608 1069 1024 830 792 1354 1223 1318 1633
151 246 385 748 1022 1141 1225 1275 1217 1216 1133 1081 1151 1133 1099 1024 966 740 763 695 377 189 141 57 0 0 0 0 0 0 2 105 190 265 528 439 585 1087 1058 1300 1005 1022 863
231 117 355 769 1076 1307 1279 1241 1198 1148 1092 1009 907 805 758 784 732 520 476 484 399 80 0 0 0 0 0 0 0 0 27 168 219 290 306 518 359 1028 719 1359 956 215 504
217 254 559 802 988 1240 1169 1227 1176 1085 985 939 866 776 776 751 580 392 523 349 224 0 0 0 0 0 0 0 0 2 12 65 56 36 386 349 312 664 586 484 311 254 513
598 470 567 752 818 1073 1297 1162 1086 986 977 1016 903 694 461 481 405 313 394 264 15 0 0 0 0 0 0 25 0 0 0 0 0 353 395 237 231 746 697 680 948 716 535
386 452 692 606 795 1314 1280 1115 932 967 1095 913 658 507 449 325 296 285 300 191 53 0 0 0 0 0 0 0 0 0 0 0 0 5 2 0 3 69 0 199 903 876 557
479 639 705 709 820 915 958 816 728 908 830 677 572 491 456 414 333 282 241 177 84 12 0 0 0 0 0 0 0 0 0 26 0 0 0 0 202 64 0 0 348 549 429
490 603 670 674 723 568 501 493 542 612 552 546 488 448 429 388 350 293 231 165 109 73 25 7 0 0 0 0 0 0 0 26 0 4 6 0 300 93 65 63 174 263 270
597 659 684 663 707 574 459 413 434 370 328 271 209 201 166 151 227 281 200 172 136 81 75 54 0 0 1 1 0 0 0 0 0 12 0 12 143 52 80 99 110 103 455
414 767 692 670 706 534 471 444 324 308 215 122 86 92 37 142 150 175 66 161 171 94 77 59 30 29 41 59 59 51 64 0 0 9 5 36 38 0 4 33 58 81 159
206 372 454 454 508 521 209 345 202 71 29 35 27 162 446 649 303 386 84 155 229 218 211 182 140 64 55 21 51 44 19 9 0 1 0 10 0 0 0 0 0 3 51
292 266 256 389 310 184 65 197 46 5 238 433 689 771 907 806 803 372 548 341 403 249 326 122 43 49 138 95 18 4 0 0 0 0 0 0 0 0 0 0 0 1 10
26 43 126 189 270 147 54 90 42 141 624 708 864 804 811 715 838 538 513 626 543 404 338 255 145 146 107 42 20 7 0 0 0 0 0 0 0 0 0 0 0 0 1
0 43 113 141 293 221 377 618 483 799 722 698 880 1021 988 848 504 475 605 543 437 211 51 36 16 18 6 0 0 0 0 0 0 0 0 0 0 0 0 0 0 0 0
10 130 92 205 472 688 711 735 436 278 173 167 291 419 759 754 793 600 499 303 193 84 22 1 0 0 0 0 0 1 3 5 4 0 0 0 0 0 0 0 0 0 0
189 244 244 357 664 549 341 261 204 199 59 23 48 92 113 203 249 130 194 57 2 0 0 0 0 0 0 0 0 0 0 0 0 0 0 0 0 0 0 0 0 0 0
311 408 373 450 559 340 214 167 103 53 5 0 0 4 10 0 0 0 0 0 0 0 0 0 0 0 0 0 0 0 0 0 0 0 0 0 0 0 0 0 0 0 0
465 641 640 502 437 273 92 44 7 18 0 0 0 0 0 0 0 0 0 0 0 0 0 0 0 0 0 0 0 0 0 0 0 0 0 0 0 1 0 9 13 1 0
534 866 674 599 295 238 77 49 41 14 15 8 0 0 0 6 1 0 0 0 0 0 0 0 0 0 0 0 0 0 0 0 0 0 0 7 25 9 7 3 1 0 30
689 979 665 563 335 121 94 95 4 0 0 0 0 0 0 0 0 0 0 0 0 0 0 0 0 0 0 0 0 0 0 0 0 0 0 0 1 4 12 5 5 0 0
1163 827 563 455 233 221 325 303 52 0 0 0 0 0 0 0 0 0 0 0 0 0 0 0 0 0 0 0 0 0 0 0 0 0 0 0 4 4 3 0 1 0 4
867 820 665 543 399 497 307 25 4 0 0 0 0 0 0 0 0 0 0 0 0 0 0 0 0 0 0 0 0 0 0 0 0 0 0 0 0 0 0 0 0 0 0
751 674 690 738 613 345 6 0 0 0 0 3 7 7 0 0 0 0 0 0 0 0 0 0 0 0 0 0 0 0 0 0 0 0 0 0 0 0 0 0 0 0 0
863 852 520 172 44 0 1 5 0 47 33 23 14 32 3 0 0 0 0 0 0 0 5 17 30 17 3 7 7 1 0 0 0 7 0 0 0 0 0 0 0 0 0
461 368 261 4 0 0 0 0 7 10 0 0 1 1 1 4 0 0 0 3 1 0 0 10 13 9 4 4 9 6 5 2 0 6 1 0 0 0 0 0 0 0 0

GFSSE_con_mucape_057.txt.gz
CAPE
198 669 969 1213 1200 1069 1006 955 927 956 1039 1109 1108 1134 1117 1028 945 844 781 702 534 201 132 90 27 2 0 0 0 0 0 4 162 509 776 697 662 576 593 991 997 926 1274
304 805 974 1082 1128 1060 1067 1036 1013 1010 1085 1165 1122 1049 1015 942 874 817 714 474 297 122 89 1 0 0 0 0 0 0 0 80 183 443 663 770 979 682 513 918 1125 867 1018
392 753 960 1032 1113 1118 1195 1187 1146 1121 1155 1160 1123 1003 905 773 648 427 434 373 192 5 0 0 0 0 0 0 0 0 0 120 75 137 481 363 519 901 575 796 601 840 560
259 603 840 974 1113 1199 1144 1183 1124 1055 1030 946 882 900 914 562 361 196 244 270 120 0 0 0 0 0 0 0 0 0 0 18 12 115 173 231 270 586 396 288 150 0 0
222 493 895 958 1045 1185 1222 1139 1015 894 808 821 860 914 657 373 229 120 240 149 17 0 0 0 0 0 0 0 0 0 3 18 345 240 253 283 409 571 554 505 306 129 252
485 577 663 764 940 1132 1160 1057 919 862 733 653 611 659 406 253 149 83 214 127 0 0 0 0 0 0 0 0 0 0 8 39 68 80 39 48 30 212 172 477 727 674 544
416 476 428 590 898 1062 935 934 879 749 547 424 447 455 407 193 66 36 199 105 38 1 0 0 0 0 0 0 0 0 0 24 0 0 0 17 50 80 44 33 271 589 519
132 186 265 652 727 624 596 673 597 488 380 356 380 387 341 268 229 237 218 154 114 39 19 5 1 0 0 0 0 0 0 19 0 0 0 21 326 121 95 98 436 431 431
126 201 354 415 438 384 387 456 398 351 308 313 281 246 218 211 175 190 199 190 123 68 55 18 0 0 0 0 0 0 0 35 0 0 0 67 505 144 119 113 116 145 383
298 270 258 461 433 377 398 374 263 190 170 153 131 109 95 68 58 79 75 135 125 64 28 0 0 0 0 10 5 0 0 0 0 1 2 71 181 64 58 61 73 101 103
158 265 314 567 416 349 329 302 206 184 114 81 79 48 65 100 39 25 7 70 105 56 25 3 2 0 0 0 35 38 0 0 0 3 0 30 97 5 0 0 0 6 43
109 302 489 626 397 347 322 148 83 66 8 0 165 208 231 255 180 133 62 30 69 64 27 46 25 12 9 3 0 0 0 0 0 0 0 2 16 0 0 0 0 0 0
116 210 437 549 379 165 150 43 2 10 82 48 272 343 327 250 194 227 332 227 247 176 81 113 34 5 6 2 0 0 0 0 0 0 0 0 0 0 0 0 0 0 0
150 165 294 205 158 25 82 73 7 125 214 321 440 328 408 306 264 164 214 107 94 58 16 20 28 7 5 2 1 1 1 0 0 0 0 0 0 0 0 0 0 0 0
131 148 179 4 0 19 75 189 228 323 390 449 431 476 320 254 182 264 118 69 49 50 27 14 22 20 0 0 0 0 0 0 0 0 0 0 0 1 2 0 0 0 0
53 16 0 3 0 251 231 237 221 290 349 320 227 257 307 250 275 203 129 109 96 59 16 0 0 0 0 0 0 0 0 0 0 0 0 0 1 0 0 0 0 0 0
12 11 14 100 344 254 263 219 196 203 138 139 27 28 83 33 67 72 55 4 0 0 0 0 0 0 0 0 0 0 0 0 0 0 0 0 0 0 0 0 0 0 0
71 16 112 328 451 249 274 216 173 143 11 0 0 0 0 0 0 0 0 0 0 0 0 0 0 0 0 0 0 0 0 0 0 0 0 0 0 0 0 0 0 0 0
201 139 254 440 408 226 183 169 73 51 20 8 4 0 0 0 0 0 0 0 0 0 0 0 0 0 0 0 0 0 0 0 0 0 0 0 0 0 3 16 20 19 2
392 314 377 381 378 308 167 49 23 28 33 9 0 0 0 1 0 0 0 0 0 0 0 0 0 0 0 0 0 0 0 0 0 0 0 0 0 4 11 2 5 3 9
491 440 389 387 306 273 136 53 46 21 3 5 16 0 0 0 0 0 0 0 0 0 0 0 0 0 0 0 0 0 0 0 0 0 0 0 0 3 11 7 9 6 0
593 563 552 476 276 152 57 67 4 0 0 0 0 0 0 0 0 0 0 0 0 0 0 0 0 0 0 0 0 0 0 0 0 0 0 0 0 0 9 15 7 2 0
644 633 611 494 391 92 105 80 7 0 0 0 0 0 0 0 0 0 0 0 0 0 0 0 0 0 0 0 0 0 0 0 0 0 0 0 0 0 0 0 0 0 0
807 681 487 401 83 68 283 181 0 0 0 0 0 0 0 0 0 0 0 0 0 0 0 0 0 0 0 0 0 0 0 0 0 0 0 0 0 0 0 0 0 0 0
744 583 425 216 167 284 232 1 0 0 0 0 0 1 11 22 13 18 0 0 0 0 0 0 0 0 0 0 0 0 0 0 0 0 0 0 0 0 0 0 0 0 0
406 370 465 456 285 0 1 0 0 0 0 0 1 19 26 30 15 4 0 0 0 0 0 0 0 0 0 0 0 0 3 7 3 0 0 0 0 0 0 0 0 0 0

GFSSE_con_mucape_060.txt.gz
CAPE
731 949 1080 1239 1203 1044 941 939 949 943 988 1061 1013 908 799 765 732 621 443 342 257 31 0 0 0 0 0 0 0 0 2 132 608 711 617 508 435 280 502 554 779 561 881
685 943 979 1085 1116 1075 1109 1090 1059 1067 1070 970 940 854 812 790 657 365 302 267 62 0 0 0 0 0 0 0 0 0 0 110 472 631 687 658 567 305 134 516 626 538 673
846 909 945 942 1129 1197 1213 1211 1183 1188 1054 878 929 790 727 437 221 114 137 133 3 0 0 0 0 0 0 0 0 0 47 0 188 560 607 208 315 333 209 361 276 144 69
858 874 921 883 1025 1181 1222 1149 1024 1074 996 1009 955 603 429 208 142 62 29 35 7 0 0 0 0 0 0 0 0 8 368 223 157 336 145 189 279 411 268 149 26 0 37
805 822 930 854 962 1163 1178 1078 1025 1018 922 907 856 511 228 159 90 26 50 36 24 0 0 0 0 0 0 0 0 0 152 451 398 185 235 262 171 226 225 249 119 49 74
738 843 810 896 1009 1127 1015 1102 1031 961 891 805 620 442 224 118 63 39 95 53 16 2 0 0 0 0 0 0 0 0 17 64 31 22 10 27 25 92 67 66 261 182 351
628 504 533 775 900 796 1133 1025 853 688 558 584 500 409 310 102 51 65 148 123 119 0 3 0 0 0 0 0 7 0 0 0 0 0 2 22 70 122 115 125 155 149 125
137 49 164 236 263 455 835 746 522 421 414 422 417 368 279 199 172 144 184 171 120 80 33 0 0 0 0 4 14 0 3 0 0 0 17 58 306 133 117 118 149 406 210
71 51 101 123 207 370 477 421 326 325 328 329 302 268 216 194 214 220 191 195 156 82 10 0 0 0 3 1 15 0 0 0 0 0 11 59 255 94 66 52 60 77 105
103 71 55 185 363 373 360 288 224 214 201 209 182 144 98 106 110 114 95 127 98 22 0 0 1 0 0 0 15 23 0 0 0 0 5 35 106 4 0 0 22 43 39
138 146 121 226 307 323 290 239 183 165 129 125 125 93 19 3 0 12 4 42 48 0 0 0 6 1 0 0 36 8 0 0 0 0 0 25 41 0 0 0 0 0 0
35 124 220 260 290 288 254 137 85 59 27 14 77 101 143 73 24 17 29 42 24 9 44 41 41 0 3 6 0 0 0 0 0 0 0 0 0 0 0 0 0 0 0
20 223 295 273 308 253 162 65 24 5 82 186 228 216 186 83 85 176 184 155 111 108 32 8 17 4 1 0 0 0 0 0 0 0 0 0 0 0 1 3 0 0 0
102 208 278 308 271 78 30 0 0 0 2 244 321 299 257 247 253 215 99 59 29 13 12 15 1 1 11 6 0 0 0 0 0 0 0 0 0 0 4 3 0 0 0
116 184 331 334 85 18 3 61 72 169 266 330 323 327 374 237 181 31 2 24 15 24 14 9 21 15 27 0 0 0 0 0 0 0 0 0 0 0 3 0 0 0 0
100 215 380 252 13 71 100 64 154 221 356 413 232 170 144 85 37 38 31 20 13 15 12 1 0 0 0 0 0 0 0 0 0 0 0 0 0 2 1 0 0 0 0
208 209 209 18 134 109 125 236 316 334 378 321 173 56 62 67 52 46 42 15 3 1 0 0 0 0 0 0 0 0 0 0 0 0 0 0 0 0 0 0 0 0 0
106 39 32 255 169 193 200 197 223 257 222 109 32 0 0 0 4 2 0 0 0 0 0 0 0 0 0 0 0 0 0 0 0 0 0 0 0 0 0 13 4 3 2
7 2 169 329 247 245 251 224 174 109 16 0 0 0 0 0 0 0 0 0 0 0 0 0 0 0 0 0 0 0 0 0 0 0 0 0 0 0 0 0 7 19 4
75 46 281 411 413 294 243 226 155 79 32 15 0 4 0 0 0 0 0 1 0 0 0 0 0 0 0 0 0 0 0 0 0 0 0 0 0 0 0 0 9 8 10
253 162 331 430 504 294 236 158 79 35 44 12 1 0 0 0 0 0 0 0 0 0 0 0 0 0 0 0 0 0 0 0 0 0 0 0 0 0 0 1 8 2 0
294 337 394 509 538 386 318 150 73 79 18 0 0 0 0 0 0 0 0 0 0 0 0 0 0 0 0 0 0 0 0 0 0 0 0 0 0 0 0 0 0 0 3
345 393 389 465 428 407 334 152 72 2 0 0 0 0 0 0 0 0 0 0 0 0 0 0 0 0 0 0 0 0 0 0 0 0 0 0 0 0 0 0 0 0 0
421 452 471 489 468 374 241 92 0 0 0 0 0 0 0 0 0 0 0 0 0 0 0 0 0 0 0 0 0 0 0 0 0 0 0 0 0 0 0 0 0 0 0
598 615 638 526 391 270 74 143 28 0 0 0 0 0 0 0 0 4 0 0 0 0 0 0 0 0 0 0 0 0 0 0 0 0 0 0 0 0 0 0 0 0 0
779 792 587 457 215 81 273 213 4 0 0 0 0 0 10 22 33 19 1 0 0 0 0 0 0 0 0 0 0 0 0 0 0 0 0 0 0 0 0 0 0 0 0

GFSSE_con_mucape_063.txt.gz
CAPE
820 1053 1069 1180 984 814 773 783 811 838 922 917 856 834 743 528 329 300 193 191 14 0 0 0 0 0 0 0 0 7 343 606 596 541 414 232 115 154 54 226 317 277 557
994 1065 1063 1059 921 827 876 893 946 977 922 650 677 669 519 338 300 195 122 52 2 0 0 0 0 0 0 0 0 0 245 526 524 606 575 333 164 10 0 39 262 37 90
1058 992 988 892 887 912 969 1003 1077 1024 734 616 502 427 282 183 159 60 75 76 29 0 0 0 0 0 0 0 166 244 68 581 573 509 306 36 22 115 43 0 88 0 0
1063 878 888 883 874 931 971 982 1089 1000 859 661 409 258 192 160 99 15 32 126 89 0 0 0 0 0 0 0 402 376 223 512 447 257 33 88 35 66 23 0 0 0 0
892 813 978 810 862 986 982 1034 1133 1113 1072 861 552 264 183 138 65 36 108 174 108 0 0 0 0 0 0 6 303 414 502 439 237 56 15 12 10 5 1 0 0 0 0
1042 937 773 692 943 1008 1043 1045 983 1036 932 687 424 354 187 104 71 51 211 208 92 0 0 0 0 0 0 0 2 95 100 0 0 0 0 0 6 42 48 46 45 68 156
875 773 509 643 818 1038 1137 1061 979 912 796 610 435 355 276 149 84 139 273 240 176 18 0 0 0 12 0 0 0 0 0 0 0 0 0 3 34 85 51 58 87 112 151
581 344 177 264 265 367 611 754 610 648 620 504 422 351 265 236 198 219 257 243 163 79 59 12 25 63 61 21 0 0 0 0 0 0 3 26 221 71 37 30 44 77 85
330 137 25 64 172 275 458 346 363 402 410 433 402 305 253 230 191 209 226 223 145 96 73 47 11 19 87 58 0 0 0 0 0 0 5 16 234 7 1 3 30 15 12
198 42 50 81 105 245 274 271 277 273 292 290 234 172 138 124 133 166 147 155 148 130 120 72 57 48 28 58 0 0 0 0 0 0 0 4 32 0 0 0 0 0 0
111 55 50 116 197 271 303 269 221 229 189 140 121 85 26 21 16 0 40 94 106 111 121 146 60 10 0 0 0 0 0 0 0 0 0 0 4 4 5 3 0 0 0
41 34 11 94 276 306 268 182 127 113 46 39 36 5 3 0 10 14 15 61 98 92 106 11 0 3 2 0 0 1 0 0 0 0 0 0 0 0 11 11 2 0 0
7 68 96 156 280 254 192 89 46 21 15 27 71 108 72 78 63 153 119 106 63 41 22 13 10 9 0 0 0 0 0 0 0 0 0 0 0 0 17 20 6 0 0
55 63 126 166 274 225 101 19 0 0 8 165 189 185 180 77 184 134 94 115 54 25 11 5 6 13 2 0 0 0 0 0 0 0 0 0 0 0 8 20 2 0 0
17 105 157 224 302 138 11 0 0 104 196 285 316 290 268 258 244 105 81 47 19 30 27 13 7 13 12 2 0 0 0 0 0 0 0 0 0 0 0 0 0 0 0
35 128 165 294 206 0 0 0 13 131 239 356 310 359 365 252 87 19 17 25 23 25 26 8 0 0 0 0 0 0 0 0 0 0 0 0 0 0 0 0 0 0 0
37 160 263 301 34 25 9 65 131 278 353 366 282 152 131 85 35 38 35 41 27 19 0 0 0 0 0 0 0 0 0 0 0 0 0 0 0 0 13 0 0 1 0
75 122 294 328 26 74 15 62 194 314 393 369 297 156 55 38 28 22 12 8 0 0 0 0 0 0 0 0 0 0 0 0 0 0 0 0 0 0 0 0 0 0 0
183 264 286 287 62 87 115 240 352 391 389 325 142 50 3 0 0 2 0 2 1 0 0 0 0 0 0 0 0 0 0 0 0 0 0 0 0 0 0 0 0 7 2
239 210 210 100 82 149 202 258 264 247 189 67 19 8 0 0 0 0 0 0 0 0 0 0 0 0 0 0 0 0 0 0 0 0 0 0 0 0 0 0 0 0 6
231 166 180 156 172 236 243 216 196 184 104 41 18 14 14 0 0 0 0 0 0 0 0 0 0 0 0 0 0 0 0 0 0 0 0 0 0 0 0 0 0 0 0
169 41 107 251 230 271 263 212 176 156 38 45 24 25 0 0 0 0 0 0 0 0 0 0 0 0 0 0 0 0 0 0 0 0 0 0 0 0 0 0 0 0 0
153 109 87 238 388 402 353 240 162 81 80 44 36 0 0 0 0 0 0 0 0 0 0 0 0 0 0 0 0 0 0 0 0 0 0 0 0 0 0 0 0 0 0
48 166 250 264 392 477 373 298 205 161 83 35 1 0 0 0 0 0 0 0 0 0 0 0 0 0 0 0 0 0 0 0 0 0 0 0 0 0 0 0 0 0 0
138 159 316 361 403 508 380 249 210 41 0 0 0 0 0 0 0 0 0 4 0 2 2 0 0 0 0 0 0 0 0 0 0 0 0 0 0 0 0 0 0 0 0
124 170 321 421 444 457 404 221 48 10 0 0 0 0 0 0 3 12 4 10 4 5 1 0 0 0 0 0 0 0 0 0 0 0 0 0 0 0 0 0 1 0 0

GFSSE_con_mucape_066.txt.gz
CAPE
877 870 950 923 899 761 652 607 584 650 728 782 798 714 628 451 278 244 132 40 6 0 0 0 0 0 0 217 312 320 426 464 432 506 187 29 0 0 0 0 0 0 63
1336 891 966 922 862 793 737 723 762 754 790 764 728 533 447 304 178 74 61 39 26 0 0 0 0 0 0 0 295 434 468 512 494 429 284 88 0 0 0 0 103 0 0
1282 1031 894 803 875 889 925 975 949 945 856 606 370 257 216 158 68 78 111 96 54 0 0 0 0 186 244 242 171 545 505 461 404 330 95 0 0 0 0 0 0 0 0
1212 950 831 863 921 973 981 996 993 995 811 658 325 189 158 59 56 38 74 99 52 0 0 0 30 235 269 465 303 531 456 341 277 20 0 0 0 0 0 0 0 0 0
1071 840 902 826 882 1010 1071 1066 1050 957 777 574 368 225 187 79 27 46 217 122 69 41 0 0 18 227 273 293 445 450 382 149 23 0 0 0 0 3 11 14 19 14 0
1069 965 837 814 906 1171 1294 1255 1176 944 750 486 403 333 173 54 51 105 236 147 121 46 0 0 0 0 105 248 317 182 14 0 0 0 0 0 0 14 21 31 44 42 47
1019 765 641 651 995 1271 1231 1220 1092 902 661 509 402 285 208 166 124 225 260 214 140 64 3 0 3 12 25 13 11 0 0 0 0 0 0 0 4 12 0 0 16 14 0
738 519 484 556 605 608 449 598 906 776 570 528 429 297 265 273 268 258 232 211 162 120 97 51 75 40 13 3 0 0 0 0 0 0 0 0 140 0 0 0 0 0 0
496 404 275 207 211 173 325 652 639 503 467 437 377 304 276 258 251 225 212 210 182 143 123 98 93 86 7 0 0 0 0 0 0 0 0 0 64 0 0 1 0 0 0
347 296 134 69 69 138 263 389 389 344 350 291 231 169 134 148 159 172 124 231 217 226 218 157 16 47 0 0 0 0 0 0 0 0 0 0 29 9 8 1 0 0 0
291 266 133 82 72 187 275 239 268 311 260 184 143 103 45 39 16 19 95 150 244 244 129 3 0 0 0 0 0 0 0 0 0 0 0 0 0 11 23 16 0 0 0
128 97 16 83 90 257 205 168 176 170 87 60 42 28 18 15 1 0 25 156 179 21 0 0 0 0 0 0 0 0 0 0 0 0 0 0 0 0 6 4 0 0 0
72 26 3 58 92 193 226 150 101 51 42 25 5 1 13 26 33 45 18 22 9 0 0 0 0 7 4 0 0 0 0 0 0 0 0 0 0 0 26 22 0 0 0
1 3 4 22 70 255 140 53 26 7 0 54 22 58 129 117 174 150 125 54 25 19 20 12 19 0 2 5 0 0 0 0 0 0 0 0 0 0 27 31 9 1 0
7 5 0 0 118 208 63 4 0 0 31 94 228 209 125 181 161 73 74 60 40 30 26 20 21 20 6 0 0 0 0 0 0 0 0 0 0 0 0 22 22 10 7
0 0 7 97 160 159 33 0 0 0 139 251 282 294 277 273 169 48 35 31 26 39 41 39 30 0 0 0 0 0 0 0 0 0 0 0 0 0 1 7 6 6 4
2 52 66 67 170 77 0 0 3 94 289 398 389 364 283 168 91 53 33 25 34 40 52 10 0 0 0 0 0 0 0 0 0 0 0 0 0 0 0 0 0 0 0
12 40 125 180 230 10 0 0 72 233 344 406 295 204 158 109 52 42 40 37 37 24 1 0 0 0 0 0 0 0 0 0 0 0 0 0 0 0 0 0 0 0 0
19 58 176 256 126 6 0 19 170 342 355 280 288 239 70 22 40 31 19 2 0 1 0 0 0 0 0 0 0 0 0 0 0 0 0 0 0 0 0 0 0 6 1
36 77 129 252 249 22 9 50 189 293 297 283 238 50 16 12 12 0 0 0 0 0 0 0 0 0 0 0 0 0 0 0 0 0 0 0 0 0 0 0 0 0 0
109 196 253 357 370 44 54 139 238 242 281 199 110 51 51 47 2 0 0 0 0 0 0 0 0 0 0 0 0 0 0 0 0 0 0 0 0 0 0 0 0 0 0
195 253 245 179 147 51 81 158 207 214 190 135 67 50 62 38 0 0 0 0 0 0 0 0 0 0 0 0 0 0 0 0 0 0 0 0 0 0 0 0 0 0 0
132 267 287 175 43 64 119 179 188 167 130 85 64 82 78 3 0 0 0 0 0 0 0 0 0 0 0 0 0 0 0 0 0 0 0 0 0 0 0 0 0 0 0
181 234 243 180 69 83 167 233 276 144 67 58 94 72 3 0 0 0 0 0 0 0 0 0 0 0 0 0 0 0 0 0 0 0 0 0 0 0 0 0 0 0 0
254 204 215 126 67 119 176 259 177 121 98 107 34 4 0 0 0 0 2 0 4 3 6 1 0 0 0 0 0 0 0 0 0 0 0 0 0 0 0 0 0 0 0
219 266 190 106 140 147 227 236 177 166 84 4 0 0 0 0 2 12 12 3 11 12 12 8 0 0 0 0 0 0 0 0 0 0 0 0 0 0 0 0 0 0 0

GFSSE_con_mucape_069.txt.gz
CAPE
944 669 887 1059 920 807 748 748 775 798 891 897 783 719 608 409 233 109 45 25 26 0 0 0 129 352 412 369 352 418 570 481 362 314 66 0 0 0 0 0 0 0 0
986 596 840 1014 930 793 790 793 793 870 973 929 808 632 480 298 129 55 64 52 34 0 0 0 4 240 416 296 367 538 458 425 354 269 216 0 0 0 0 0 38 0 0
1015 733 880 915 992 926 941 937 992 1068 944 598 414 489 336 160 125 111 113 86 54 3 36 212 277 157 330 363 577 515 408 396 342 193 0 0 0 0 0 0 0 0 0
1132 811 864 882 965 1052 1031 1017 1030 955 722 579 423 328 230 159 161 165 106 35 98 129 142 359 416 380 304 543 582 456 290 150 63 12 0 0 0 0 0 0 0 0 0
1175 844 855 882 939 1132 1071 1028 962 865 692 494 400 249 196 185 162 154 76 88 144 80 234 389 326 446 489 506 442 399 187 10 3 0 0 0 0 0 0 0 0 7 0
1191 957 844 881 991 1126 1183 1103 934 751 524 402 323 252 201 198 134 194 136 93 109 96 103 284 218 318 419 362 264 84 0 0 0 0 0 0 0 0 0 0 0 0 1
1318 1094 996 722 1000 1287 1353 1158 879 649 531 389 272 225 229 260 201 244 142 118 127 133 31 33 98 163 236 129 45 13 0 0 0 0 0 0 1 0 0 0 0 0 0
1118 1108 943 695 812 1030 948 914 684 512 462 366 288 252 268 305 257 215 184 167 177 177 152 102 93 93 40 26 7 0 0 0 0 0 0 1 4 1 4 0 0 0 0
721 587 375 534 441 294 624 545 370 358 335 323 318 281 253 255 217 195 177 166 177 173 150 141 54 33 35 7 0 0 0 0 0 0 0 0 6 0 2 0 0 0 0
528 320 285 278 142 81 153 339 302 250 239 241 227 179 141 153 166 166 168 202 194 154 118 31 0 0 0 0 0 0 0 0 0 0 0 0 26 5 5 0 0 0 0
351 279 147 33 8 42 105 179 246 261 166 157 161 120 60 72 59 57 149 232 166 31 1 0 0 0 0 0 0 0 0 0 0 0 0 0 0 7 17 5 0 0 0
305 245 45 33 20 18 191 161 230 200 94 133 103 83 65 97 109 83 143 170 1 0 0 0 0 0 0 0 0 0 0 0 0 0 0 0 0 0 8 3 0 0 0
229 154 138 5 58 99 149 113 95 82 92 100 79 84 129 99 157 212 215 0 0 0 0 0 0 0 0 0 0 0 0 0 0 0 0 0 0 0 25 23 5 0 0
87 36 4 51 124 160 111 99 47 56 46 59 60 170 246 228 220 54 48 14 25 5 1 8 11 2 8 9 0 0 0 0 0 0 0 0 0 0 33 31 6 0 0
19 22 0 39 60 96 64 20 16 43 39 73 133 306 320 176 226 181 145 61 55 14 25 27 22 22 4 0 0 0 0 0 0 0 0 0 0 0 0 27 17 5 3
6 7 4 0 45 120 30 0 6 41 53 69 170 266 170 188 162 115 71 55 41 30 33 29 32 3 0 0 0 0 0 0 0 0 0 0 0 0 0 3 6 10 4
9 0 0 1 106 185 49 7 18 63 189 223 284 276 150 168 78 50 49 60 35 24 34 25 0 0 0 0 0 0 0 0 0 0 0 0 0 0 0 0 0 0 0
2 0 0 57 180 203 11 0 41 188 200 253 282 249 223 115 60 42 42 41 33 21 5 0 0 0 0 0 0 0 0 0 0 0 0 0 0 0 0 0 0 0 0
11 36 103 171 141 226 0 15 116 191 269 272 230 199 188 106 47 47 37 18 6 0 0 0 0 0 0 0 0 0 0 0 0 0 0 0 0 0 0 0 0 0 0
14 46 88 217 306 89 0 3 92 250 279 261 171 166 116 42 38 18 1 0 0 0 0 0 0 0 0 0 0 0 0 0 0 0 0 0 0 0 0 0 0 0 0
41 31 81 236 264 68 15 17 69 227 249 188 48 77 30 17 20 7 0 0 0 0 0 0 0 0 0 0 0 0 0 0 0 0 0 0 0 0 0 0 0 0 0
145 109 140 183 212 289 14 14 25 152 178 89 69 50 43 21 4 0 0 0 0 0 0 0 0 0 0 0 0 0 0 0 0 0 0 0 0 0 0 0 0 0 0
219 129 152 276 339 427 145 42 75 144 107 86 91 59 19 11 11 0 0 0 0 0 0 0 0 0 0 0 0 0 0 0 0 0 0 0 0 0 0 0 0 0 0
181 130 219 304 300 186 189 95 121 161 91 54 61 49 14 19 0 0 0 0 0 0 0 0 0 0 0 0 0 0 0 0 0 0 0 0 0 0 0 5 0 0 1
134 113 85 216 295 190 71 87 131 173 80 99 63 21 4 4 0 0 0 1 7 3 12 5 2 0 1 0 0 0 0 0 0 0 0 0 0 0 20 20 0 0 0
24 179 169 143 226 254 125 65 102 175 75 79 58 13 3 0 0 0 0 2 11 4 5 0 0 1 0 0 0 0 0 0 0 0 0 0 0 1 21 20 2 0 0

GFSSE_con_mucape_075.txt.gz
CAPE
1127 880 1294 1611 1497 1389 1265 1156 1034 977 1011 1011 894 718 559 455 378 336 303 309 427 620 613 625 731 477 396 307 213 227 255 256 173 94 35 0 0 0 0 37 1 0 1
1200 941 1210 1546 1542 1448 1333 1230 1147 1098 1072 1001 814 573 369 286 236 242 227 283 482 642 623 572 530 390 377 273 233 190 166 288 194 75 57 29 0 2 2 64 51 5 6
1214 980 1436 1429 1516 1489 1448 1395 1329 1225 1139 856 494 396 257 221 170 230 249 299 604 797 684 587 407 405 319 250 249 136 87 36 51 252 142 7 1 2 0 0 3 36 3
1150 1005 1424 1313 1437 1489 1390 1341 1248 1174 984 668 434 324 274 259 264 338 387 404 485 595 742 639 532 441 317 306 293 157 49 0 2 42 32 12 0 0 1 0 0 0 6
1095 924 1435 1238 1274 1359 1322 1245 1145 966 681 457 372 406 407 306 303 474 516 681 924 644 638 693 580 455 355 388 308 112 0 0 35 14 4 13 6 0 0 0 0 0 0
1134 835 954 1078 1106 1298 1324 1164 915 745 451 333 373 461 384 322 482 412 556 866 897 984 933 780 617 372 354 212 157 23 0 11 48 40 29 14 8 2 0 0 0 0 0
986 1035 1153 976 1109 1201 1226 995 718 512 289 314 415 324 331 420 354 367 354 597 657 964 1117 723 418 246 205 167 80 13 0 93 19 25 37 5 8 4 0 0 0 0 0
1119 1204 896 964 1080 1063 947 700 487 312 297 350 376 370 381 315 322 320 296 319 464 633 754 522 329 186 153 67 0 0 0 38 21 6 56 2 5 8 1 0 0 0 0
589 266 746 994 929 818 536 396 277 204 249 324 330 277 240 236 259 289 258 293 324 373 403 279 162 109 27 0 0 0 0 16 9 6 9 1 1 14 1 0 0 0 0
221 298 509 287 508 362 184 171 179 155 196 211 195 165 172 184 224 255 282 328 292 266 242 89 34 0 0 0 0 0 0 0 0 4 0 0 16 29 12 0 0 0 0
204 251 193 286 109 63 49 219 215 238 220 144 128 97 34 55 34 123 283 276 141 88 87 3 0 0 0 0 0 0 0 0 0 0 0 0 0 25 15 1 0 0 0
492 379 186 178 69 25 3 143 213 161 135 66 56 88 16 67 139 110 148 98 17 0 0 0 0 0 0 0 0 0 0 0 0 0 0 0 0 1 22 6 0 0 0
469 345 206 183 137 1 87 93 145 138 114 107 162 126 163 195 225 211 73 18 0 0 0 0 0 0 0 0 0 0 0 0 0 0 0 0 0 0 21 7 0 0 0
326 265 176 141 4 4 5 0 17 118 125 129 171 374 482 293 403 306 122 57 7 0 2 0 3 4 2 0 0 0 0 0 0 0 0 0 0 0 47 16 1 0 0
268 176 176 128 31 8 3 1 2 52 131 224 306 401 407 411 617 537 483 88 29 3 7 5 9 0 0 0 0 0 0 0 0 0 0 0 0 0 0 17 9 2 0
110 163 83 19 8 4 80 81 113 190 227 291 335 506 728 826 625 614 229 57 28 20 9 0 2 0 0 0 0 0 0 0 0 0 0 0 0 0 0 0 1 2 0
29 20 34 4 3 0 2 3 1 146 233 267 549 885 599 613 492 412 194 165 38 2 0 4 1 0 0 0 0 0 0 0 0 0 0 0 0 0 0 0 0 0 0
2 2 7 1 1 3 28 58 57 160 301 484 511 749 640 549 457 452 273 106 0 3 0 0 0 0 0 0 0 0 0 0 0 0 0 0 0 0 0 0 0 0 0
15 3 3 25 13 99 188 200 190 348 633 591 669 618 565 490 430 328 197 5 0 0 0 0 0 0 0 0 0 0 0 0 0 0 0 0 0 0 0 0 0 0 0
92 62 75 137 194 270 408 356 319 364 576 677 788 711 597 512 361 268 98 0 0 0 0 0 0 0 0 0 0 0 0 0 0 0 0 0 0 0 0 0 0 0 0
71 31 26 147 213 457 491 305 199 232 485 655 611 649 616 431 310 231 45 3 0 0 0 0 0 0 0 0 0 0 0 0 0 0 0 0 0 0 0 0 0 0 0
21 1 19 200 407 526 398 169 75 224 568 713 665 516 329 43 45 175 37 0 0 0 0 0 0 0 0 0 0 0 0 0 0 0 0 0 0 0 0 0 0 0 0
72 76 122 313 525 716 383 73 132 550 417 477 497 366 182 67 84 57 0 0 0 0 0 0 0 0 2 0 0 0 0 0 0 0 0 0 0 0 0 0 1 3 2
270 308 366 505 640 742 956 238 313 583 521 508 528 232 30 54 24 44 3 0 0 0 0 0 0 0 0 0 2 0 0 0 0 0 0 0 0 0 12 1 1 3 4
392 385 426 522 591 740 827 781 495 479 449 554 449 94 64 53 49 15 2 0 0 0 0 0 0 5 3 0 0 0 0 0 0 0 0 0 0 0 0 0 1 0 4
1025 1010 987 530 575 796 1129 1065 875 667 556 478 204 38 50 0 0 23 1 3 2 0 0 0 3 1 1 2 0 0 0 0 0 0 0 0 0 0 0 0 0 4 4

GFSSE_con_mucape_078.txt.gz
CAPE
923 1303 1665 1595 1439 1295 1141 1014 971 996 1075 1024 908 796 726 673 613 629 656 747 847 957 663 467 552 161 36 0 0 149 204 95 51 89 72 2 2 2 1 66 15 4 8
788 1441 1569 1527 1465 1343 1255 1136 1076 1118 1167 1035 882 709 572 523 491 511 603 745 964 988 558 449 291 118 23 0 100 206 185 123 99 141 81 5 4 0 1 8 26 5 9
1094 1471 1697 1490 1500 1433 1368 1321 1302 1308 1222 984 760 569 460 442 437 488 646 875 983 976 516 408 242 102 37 22 165 135 106 178 166 222 23 0 0 5 1 0 6 12 7
1053 1598 1814 1467 1445 1500 1361 1345 1375 1360 1112 804 605 492 403 424 455 560 761 959 1080 1019 452 421 218 117 61 149 49 0 10 31 33 55 9 0 0 0 0 0 0 0 2
834 1460 1768 1319 1248 1363 1371 1350 1333 1142 804 579 490 498 444 520 591 708 721 772 1079 1133 579 465 258 197 192 138 21 0 25 89 130 12 0 0 0 0 0 0 0 0 3
841 1439 1313 1137 1195 1159 1176 1287 1130 801 494 424 443 479 522 667 692 919 1028 918 1021 1166 687 474 263 185 153 31 0 0 42 102 90 1 0 0 0 1 0 0 0 0 3
782 1170 1041 973 1026 1099 1330 1154 827 563 471 489 441 415 593 654 803 879 788 1019 1105 1191 804 347 175 124 102 39 27 0 23 15 12 5 0 0 0 2 1 0 0 0 1
833 1067 956 899 849 976 1016 817 523 472 498 436 416 484 494 440 452 563 647 897 1055 878 612 333 210 168 104 44 0 0 0 28 1 6 0 0 6 2 0 0 0 0 0
321 697 888 691 650 564 514 361 265 348 376 391 364 291 243 183 214 310 438 667 707 530 365 241 180 117 50 0 0 0 0 1 1 0 0 0 46 11 1 0 0 0 0
22 0 309 362 421 339 340 157 196 224 228 197 159 132 123 126 172 226 266 380 424 366 248 105 66 22 0 0 0 0 0 0 0 0 0 0 23 18 10 0 0 0 0
7 36 67 32 89 64 70 137 153 160 124 94 100 79 24 22 80 136 189 256 311 262 156 29 2 0 0 0 0 0 0 0 0 0 0 0 15 29 15 3 0 0 0
212 27 56 15 61 32 27 51 65 93 65 53 29 37 16 121 143 158 127 152 183 124 47 13 0 0 0 0 0 0 0 0 0 0 0 0 0 4 18 4 1 0 0
146 108 113 69 43 60 55 2 24 10 18 19 29 91 83 129 164 99 28 12 1 2 0 0 0 0 0 0 0 0 0 0 0 0 0 0 0 0 19 2 0 0 0
263 180 158 144 116 71 37 0 1 6 25 3 86 147 164 190 188 123 93 10 1 0 0 0 0 0 0 0 0 0 0 0 0 0 0 0 0 1 17 4 0 0 0
210 153 146 80 92 56 3 3 0 58 55 79 140 259 270 250 207 195 155 49 3 0 0 2 0 2 0 0 0 0 0 0 0 0 0 0 0 0 9 6 6 3 0
156 171 33 88 51 23 6 5 5 26 109 185 251 291 339 275 335 355 267 158 0 0 10 0 0 0 0 0 0 0 0 0 0 0 0 0 0 0 0 0 0 0 0
42 164 46 23 41 13 5 0 4 82 143 149 252 266 298 397 372 366 176 75 0 31 4 0 0 0 0 0 0 0 0 0 0 0 0 0 0 0 0 0 0 0 0
28 22 20 25 9 4 4 3 0 0 120 192 198 273 206 282 347 300 195 91 50 14 0 0 0 0 0 0 0 0 0 0 0 0 0 0 0 0 0 0 0 0 0
4 9 6 0 0 0 0 0 3 14 159 135 210 207 227 364 417 346 244 128 27 0 0 0 0 0 0 0 0 0 0 0 0 0 0 0 0 0 0 0 0 0 0
1 5 0 0 0 0 0 0 16 134 126 177 229 295 337 419 448 219 156 41 0 0 0 0 0 0 0 0 0 0 0 0 0 0 0 0 0 0 0 0 0 0 0
0 0 0 0 0 0 15 9 75 73 199 295 222 215 361 398 403 332 96 34 0 0 0 0 0 0 0 0 0 0 0 0 0 0 0 0 0 0 0 0 0 0 0
0 0 1 9 2 0 51 98 24 85 166 255 259 359 363 380 350 247 68 16 0 0 0 0 0 0 0 0 0 0 0 0 0 0 0 0 0 0 0 0 0 0 0
22 15 13 36 52 134 161 231 29 148 226 321 328 368 318 214 143 103 120 19 0 0 0 0 0 0 0 0 0 0 0 0 0 0 0 0 0 0 0 0 0 0 0
18 20 14 23 223 366 368 63 6 42 172 264 319 303 243 141 34 76 53 8 0 0 0 0 0 0 0 0 1 10 3 3 0 0 0 0 0 0 0 0 0 0 0
31 12 31 104 292 394 513 497 110 326 260 343 367 312 179 51 20 62 3 26 15 0 2 0 0 0 0 0 0 6 1 0 0 0 0 0 0 0 0 0 0 0 0
251 160 167 359 479 505 645 678 525 427 340 347 345 281 178 65 39 48 43 0 3 6 4 1 0 0 0 8 8 19 11 6 3 0 0 0 0 0 0 0 0 0 0

GFSSE_con_mucape_081.txt.gz
CAPE
883 1698 1769 1775 1649 1431 1276 1235 1133 1090 1038 1016 1010 944 931 918 937 969 865 842 846 759 114 0 125 0 0 0 0 0 15 15 0 6 12 6 12 21 17 8 12 2 10
1104 1776 1707 1694 1649 1456 1386 1309 1277 1190 1158 1092 968 816 781 807 882 979 1027 922 835 700 89 0 38 0 0 0 68 27 128 97 21 0 2 11 8 4 7 11 18 7 15
1029 667 1648 1641 1626 1532 1457 1443 1439 1381 1314 1134 903 758 719 750 883 1027 1066 924 897 743 86 0 0 0 0 10 150 159 136 144 31 0 0 0 0 3 2 1 9 7 13
617 457 988 1540 1593 1651 1506 1503 1444 1417 1218 963 796 737 676 781 948 1180 1074 898 819 700 84 0 0 0 0 58 25 44 44 27 7 0 0 0 0 0 0 0 4 8 16
289 206 344 1109 1208 1576 1537 1440 1311 1156 920 776 645 684 692 857 1070 1168 1104 895 744 679 89 0 0 0 10 6 12 36 22 10 0 0 0 0 0 0 0 0 3 7 15
0 0 170 739 901 1474 1540 1420 1193 924 742 621 599 755 827 879 954 1014 1072 997 948 750 137 0 0 0 0 0 7 33 7 19 0 0 0 0 0 4 2 0 0 2 8
63 36 129 700 833 1392 1555 1290 929 758 681 636 701 775 888 1096 1102 977 1005 1047 907 654 176 10 0 21 0 0 0 19 12 0 0 0 0 0 0 2 1 0 0 6 8
304 354 358 418 779 1094 1104 792 638 629 597 585 702 810 1100 1028 974 1049 1021 997 799 518 247 142 83 44 0 0 0 0 1 0 0 0 0 0 5 3 1 0 0 3 6
146 34 144 572 518 631 536 416 427 450 446 496 449 467 510 519 687 995 1000 850 603 308 198 142 83 4 0 0 0 0 0 0 0 0 0 0 19 3 2 1 0 0 4
0 92 3 58 335 436 285 309 327 296 277 192 102 69 164 194 519 753 657 569 345 246 196 128 27 2 0 0 0 0 0 0 0 0 0 0 15 13 6 0 0 0 7
6 0 0 13 149 258 228 255 191 127 24 11 7 5 27 43 172 452 392 308 288 216 171 96 20 0 0 0 0 0 0 0 0 0 0 0 16 11 5 0 0 0 4
37 0 47 116 93 61 176 133 20 0 0 0 0 0 5 24 84 166 189 212 213 161 98 55 0 0 0 0 0 0 0 0 0 0 0 0 0 12 9 2 0 0 0
83 21 9 4 54 50 106 1 0 0 0 0 0 32 49 62 68 77 120 111 57 50 4 2 0 0 0 0 0 0 0 0 0 0 0 0 0 19 10 7 1 0 0
69 65 45 52 4 15 27 0 0 0 0 0 0 60 71 58 42 15 8 9 8 4 0 0 0 0 0 0 0 0 0 0 0 0 0 0 0 15 11 7 5 2 0
151 81 71 62 18 16 37 32 0 0 1 1 27 116 101 76 76 66 9 8 2 3 2 0 0 0 0 0 0 0 0 0 0 0 0 0 0 12 7 7 8 8 3
81 13 12 16 29 4 23 6 2 0 4 36 86 122 126 143 140 125 32 20 5 13 2 4 0 0 0 0 0 0 0 0 0 0 0 0 0 0 0 0 0 0 0
18 79 4 20 17 4 25 1 1 46 84 78 87 96 127 228 210 212 88 78 52 17 17 24 0 0 0 0 0 0 0 0 0 0 0 0 0 0 0 0 0 0 0
25 13 9 18 36 5 6 5 2 0 3 28 37 43 96 256 204 232 161 60 31 2 29 0 0 0 0 0 0 0 0 0 0 0 0 0 0 0 0 0 0 0 0
22 20 18 27 18 7 6 4 4 2 0 7 17 101 33 150 226 175 114 61 67 24 1 0 0 0 0 0 0 0 0 0 0 0 0 0 0 0 0 0 0 0 0
53 23 11 0 2 3 1 2 4 1 1 21 26 92 33 32 106 162 90 89 43 11 0 0 0 0 0 0 0 0 0 0 0 0 0 0 0 0 0 0 0 0 0
9 0 0 0 0 0 0 0 0 0 23 7 32 64 64 80 99 110 171 61 26 0 0 0 0 0 0 0 0 0 0 0 0 0 0 0 0 0 0 0 0 0 0
0 0 0 0 0 0 0 0 0 2 15 35 32 26 33 88 145 133 89 63 17 0 0 0 0 0 0 0 0 0 0 0 0 0 0 0 0 0 0 0 0 0 0
0 0 0 0 0 0 0 0 0 3 27 15 5 10 99 176 216 181 101 49 2 0 0 0 0 0 0 0 0 0 0 0 0 0 0 0 0 0 0 0 0 0 0
0 0 0 0 0 0 0 0 0 0 0 3 40 69 157 219 168 126 82 56 16 0 8 0 0 0 0 0 0 0 0 0 0 0 0 0 0 0 0 0 0 0 0
0 0 0 0 0 0 0 0 0 0 0 93 149 151 240 189 172 99 42 22 20 3 0 0 0 0 0 0 0 0 0 4 0 0 0 0 0 0 0 0 0 0 0
0 0 0 0 0 6 8 38 82 27 28 75 173 170 217 218 137 34 30 22 21 3 0 1 0 0 3 0 0 0 0 4 0 0 0 0 0 0 0 0 0 0 0

GFSSE_con_mucape_084.txt.gz
CAPE
1478 1684 1596 1801 1829 1596 1510 1545 1362 1255 1230 1315 1357 1329 1203 1057 1056 985 913 686 482 271 0 0 117 22 0 0 0 11 18 12 15 15 6 8 12 10 7 6 4 2 12
1529 1761 1752 1967 1745 1638 1494 1458 1341 1301 1303 1257 1156 1154 1152 1093 1014 1078 919 647 312 74 0 0 129 3 0 1 91 79 0 0 0 2 8 4 3 6 6 5 21 5 12
1568 1937 1852 1663 1613 1664 1713 1593 1555 1506 1334 1214 1118 1157 1223 1213 1237 1121 992 669 338 97 42 0 0 0 0 13 177 114 15 0 0 0 0 0 0 5 6 8 21 22 21
1099 1433 1619 1658 1716 1701 1683 1590 1529 1452 1237 1080 1050 1105 1215 1372 1322 1287 1087 596 360 178 154 0 0 0 0 18 29 21 4 0 0 0 0 0 0 3 6 8 14 18 23
1071 1080 1257 1323 1475 1403 1704 1599 1414 1190 996 856 855 1076 1235 1453 1382 1331 973 565 389 191 41 0 0 0 4 12 3 1 0 0 0 0 0 0 0 1 2 3 5 15 17
600 808 521 1072 714 1134 1733 1596 1282 976 730 676 764 1035 1317 1446 1424 1172 940 654 456 222 45 0 0 0 15 0 0 0 0 0 0 0 0 0 0 2 4 7 9 9 9
345 265 412 695 1113 1361 1589 1477 1006 717 624 658 779 992 1318 1553 1459 1227 972 748 396 209 31 0 0 7 8 0 0 0 0 0 0 0 0 0 0 4 4 7 7 8 7
372 315 161 146 534 829 1261 993 633 525 563 615 737 930 1180 1339 1392 1285 1061 730 403 200 95 54 1 0 0 0 0 0 0 0 0 0 0 0 6 3 1 3 7 8 8
301 198 174 16 195 290 723 480 339 412 492 522 662 860 923 956 1143 1125 929 699 337 106 82 66 4 0 0 0 0 3 0 0 0 0 0 0 5 3 0 1 6 6 7
212 144 31 11 1 195 337 233 157 384 418 549 557 548 718 956 995 799 606 382 154 121 138 64 8 2 0 0 0 0 0 0 0 0 0 0 6 7 2 1 9 10 10
24 0 0 27 63 44 130 133 181 187 195 215 237 366 584 720 748 468 233 187 166 154 109 60 18 0 0 0 0 0 0 0 0 0 0 18 11 11 6 0 4 5 9
73 22 69 47 58 41 108 33 114 110 0 19 74 129 396 552 487 350 151 172 176 112 70 55 10 0 0 0 0 0 0 0 0 0 0 9 14 17 11 2 2 1 3
84 41 228 46 37 42 45 78 106 4 0 0 0 0 234 425 318 150 132 74 46 27 4 2 0 0 0 0 0 0 0 0 0 0 0 0 17 11 6 10 3 0 0
40 25 42 18 19 39 50 78 22 0 0 0 0 0 1 56 117 119 99 65 0 0 5 0 0 0 0 0 0 0 0 0 0 0 0 0 1 10 7 9 8 2 0
126 21 12 10 4 0 0 36 0 0 0 4 0 0 0 28 79 112 86 13 0 6 1 10 0 0 0 0 0 0 0 0 0 0 0 0 20 21 5 5 9 9 1
94 26 28 23 6 4 5 21 2 0 0 0 1 0 0 2 8 8 2 0 7 11 11 14 0 0 0 0 0 0 0 0 0 0 0 0 0 0 0 1 5 2 0
64 15 4 9 36 7 18 13 0 0 0 13 14 14 18 23 29 5 0 7 14 7 19 8 0 0 0 0 0 0 0 0 0 0 0 0 0 0 0 0 0 0 0
31 27 15 17 5 22 4 7 3 0 18 36 69 70 64 67 85 13 10 23 5 5 17 25 1 0 0 0 0 0 0 0 0 0 0 0 0 0 0 0 0 0 0
36 22 63 32 23 8 18 4 5 4 5 4 23 47 78 96 138 72 43 41 50 11 8 13 0 0 0 0 0 0 0 0 0 0 0 0 0 0 0 0 0 0 0
49 30 23 3 22 38 34 28 6 3 8 3 7 21 67 53 123 138 92 54 46 36 14 0 0 0 0 0 0 0 0 0 0 0 0 0 0 0 0 0 0 0 0
9 18 17 27 11 11 12 2 3 3 0 1 1 3 45 23 75 144 107 69 51 43 9 0 0 0 0 0 0 0 0 0 0 0 0 0 0 0 0 0 0 0 0
0 0 0 0 0 2 3 11 2 0 0 0 1 6 2 0 17 49 89 70 46 27 0 0 0 0 0 0 0 0 0 0 0 0 0 0 0 0 0 0 0 0 0
0 0 0 0 0 0 0 0 0 0 0 5 10 0 0 0 9 48 65 118 36 10 14 1 0 0 0 0 0 0 0 0 0 0 0 0 0 0 0 0 0 0 0
0 0 0 0 0 0 0 0 0 0 0 0 0 0 0 23 43 50 59 81 66 23 50 6 4 0 0 0 0 0 0 0 0 0 0 0 0 0 0 0 0 0 0
0 0 0 0 0 0 0 0 0 0 0 0 0 0 0 1 32 55 70 108 76 45 45 6 20 1 0 0 0 0 0 0 0 0 0 0 0 0 0 0 0 0 0
0 0 0 0 0 0 0 0 0 0 0 0 5 2 14 4 26 73 104 123 113 81 50 48 12 9 3 4 9 7 0 0 0 0 0 0 0 0 0 0 0 0 0

GFSSE_con_mucape_087.txt.gz
CAPE
1297 1507 1666 1571 1552 1598 1602 1518 1565 1576 1341 1221 1196 1274 1360 1324 1216 1016 831 652 467 241 47 21 95 26 4 5 8 6 11 19 21 22 16 16 15 12 14 13 9 5 21
1627 1604 1683 1698 1703 1712 1669 1499 1499 1591 1607 1312 1238 1305 1266 1218 1057 884 652 349 173 197 5 5 26 3 3 5 8 11 10 17 15 15 6 9 10 15 19 17 35 21 34
1851 1665 1721 1672 1851 1852 1766 1526 1617 1738 1798 1635 1422 1370 1306 1249 1015 681 402 146 315 309 11 22 26 8 5 15 4 2 0 0 2 1 0 0 0 12 19 23 29 23 40
1829 1775 1646 1641 1840 1878 1693 1565 1593 1739 1700 1619 1515 1413 1380 1246 1025 691 336 204 434 471 151 56 75 119 72 10 17 2 0 0 0 0 0 0 0 10 18 21 17 34 39
2142 1682 1758 1501 1669 1784 1689 1662 1545 1496 1426 1485 1399 1467 1402 1352 1112 756 368 297 545 581 183 24 1 0 0 0 0 0 0 0 0 0 0 0 0 3 7 7 12 23 27
1334 1376 1531 1356 990 947 1073 1321 1570 1313 1222 1283 1302 1497 1497 1493 1191 768 423 327 552 431 12 0 0 0 0 0 0 0 0 0 0 0 0 0 0 7 8 7 5 6 10
1026 994 1249 848 877 875 1060 1233 1115 1225 1098 1166 1363 1426 1481 1401 1045 674 432 304 269 199 34 0 0 22 44 3 0 0 0 0 0 0 0 0 0 7 8 9 8 9 10
467 508 917 735 775 593 615 993 899 732 912 994 1198 1284 1346 1121 966 734 475 301 169 87 0 0 0 5 15 7 0 0 0 0 0 0 0 0 2 4 8 9 10 9 10
453 216 416 373 637 630 623 558 443 451 721 862 1157 1263 1034 928 806 684 470 275 92 4 0 0 0 0 9 12 0 0 0 0 0 0 0 0 5 3 12 12 11 10 9
197 164 72 108 380 345 394 348 242 220 669 774 1065 1137 1063 959 670 506 253 69 0 0 0 0 0 14 31 11 0 0 0 0 0 0 0 1 10 7 10 11 12 11 8
256 104 84 52 61 166 259 169 208 243 619 682 854 892 899 677 457 112 8 37 35 0 0 0 0 0 0 1 0 0 0 0 0 0 0 21 15 8 9 10 10 10 9
76 85 98 70 54 28 178 135 92 113 255 374 497 752 629 545 202 0 3 65 51 0 0 0 0 0 0 0 0 0 0 0 0 0 2 24 17 13 9 8 5 6 8
80 60 139 65 11 9 9 69 26 86 156 210 380 373 904 503 84 0 0 0 0 0 0 0 0 0 0 0 0 0 0 0 0 0 0 18 15 8 13 8 4 2 4
102 63 51 7 21 3 98 75 16 48 115 166 153 234 547 265 39 0 0 0 0 0 0 0 0 0 0 0 0 0 0 0 0 0 0 12 21 9 7 10 7 2 0
68 36 26 0 1 15 11 3 8 19 134 115 134 201 220 213 53 25 7 0 0 0 0 0 0 0 0 0 0 0 0 0 0 0 0 0 15 9 7 14 11 3 0
65 12 18 1 4 2 42 32 29 10 45 39 118 236 169 150 77 74 34 0 0 0 2 8 4 0 0 0 0 0 0 0 0 0 0 0 1 13 12 5 5 3 1
36 14 44 7 9 24 0 4 13 0 6 19 20 98 109 62 93 66 41 0 0 3 6 22 9 0 0 0 0 0 0 0 0 0 0 0 0 0 0 0 0 0 0
10 4 2 19 17 4 21 5 5 0 0 20 35 29 25 72 81 51 11 0 6 12 10 25 29 0 0 0 0 0 0 0 0 0 0 0 0 0 0 0 0 0 0
7 27 24 31 35 43 7 8 8 0 18 64 53 22 39 32 16 5 1 0 12 5 12 27 28 0 0 0 0 0 0 0 0 0 0 0 0 0 0 0 0 0 0
8 5 21 37 58 61 9 9 2 7 0 40 58 48 68 77 56 2 3 6 9 0 10 30 22 0 0 0 0 0 0 0 0 0 0 0 0 0 0 0 0 0 0
5 25 4 10 15 17 24 0 2 28 0 0 49 64 41 74 136 110 21 34 48 30 33 18 2 0 0 0 0 0 0 0 0 0 0 0 0 0 0 0 0 0 0
7 5 0 8 11 24 5 30 36 22 6 11 5 2 36 42 68 93 70 63 52 59 65 52 8 0 0 0 0 0 0 0 0 0 0 0 0 0 0 0 0 0 0
1 3 0 0 9 6 13 4 4 10 4 1 8 7 2 32 13 27 87 62 75 67 71 61 22 2 2 0 0 0 0 0 0 0 0 0 0 0 0 0 0 0 0
0 0 0 0 0 0 5 4 1 1 0 0 1 6 3 0 5 2 7 44 70 84 65 69 26 5 4 0 0 0 0 0 0 0 0 0 0 0 0 0 0 0 0
0 0 0 0 0 0 0 0 0 0 0 0 0 0 0 0 0 0 2 11 49 89 120 76 8 22 19 37 24 14 1 0 0 0 0 0 0 0 0 0 0 0 0
0 0 0 0 0 0 0 0 0 0 0 0 0 0 0 0 0 0 0 16 46 86 119 101 31 35 32 42 34 32 22 18 19 5 0 0 0 0 0 8 2 0 0

GFSSE_con_mucape_090.txt.gz
CAPE
746 1423 1604 1779 1937 1714 1563 1507 1592 1702 1803 1800 1650 1536 1521 1342 1225 1118 924 833 737 674 204 19 150 10 8 13 17 14 16 25 28 20 14 17 19 22 29 17 20 2 22
1170 1527 1605 1759 1880 1796 1674 1606 1635 1786 1881 1843 1712 1619 1553 1307 1162 979 687 468 374 290 6 7 7 9 8 11 11 10 4 13 16 18 19 17 25 26 31 51 87 59 53
1809 1611 1661 1796 1927 1927 1892 1873 1831 1904 1937 1918 1837 1655 1563 1299 1072 755 462 354 299 276 6 8 11 6 6 7 6 2 1 2 11 6 0 0 4 28 17 34 65 57 53
1847 1731 1662 1711 1915 1999 1963 1919 1895 1907 1878 1836 1817 1742 1526 1291 935 590 582 407 474 476 234 46 17 5 2 5 6 3 1 0 0 0 0 0 4 21 22 18 40 37 45
1947 1748 1790 1781 1867 1953 1952 2016 1904 1747 1640 1643 1673 1685 1468 1125 782 728 562 448 628 695 291 137 53 5 26 4 0 0 0 0 0 0 0 0 0 10 16 22 21 19 10
1666 1794 1664 1753 1806 1849 1936 1941 1797 1652 1499 1482 1488 1564 1413 1115 805 785 575 574 664 685 506 53 1 15 1 0 0 0 0 0 0 0 0 0 0 12 11 7 9 10 11
1196 1323 1518 1531 1774 1837 1775 1637 1495 1532 1421 1419 1466 1452 1263 1088 794 749 652 559 455 325 102 0 0 94 0 0 0 0 0 0 0 0 0 0 1 13 15 13 10 8 9
939 684 732 1167 982 1582 1474 1334 1204 1280 1259 1318 1385 1391 1235 929 673 619 522 329 191 34 15 130 127 19 0 0 0 0 0 0 0 0 0 0 10 15 14 12 8 8 8
214 344 675 697 895 914 920 955 852 867 909 1280 1328 1213 1026 678 517 444 347 245 16 11 51 119 65 0 0 0 0 0 0 0 0 0 0 0 19 14 12 9 7 7 6
173 182 215 627 677 622 659 653 435 362 402 649 892 1095 842 578 394 298 161 20 0 0 13 69 22 0 0 0 0 0 0 0 0 0 0 2 15 12 11 9 9 9 8
342 232 84 252 407 500 351 424 308 226 228 333 748 916 887 448 223 52 0 0 0 0 0 52 57 0 0 0 0 0 0 0 0 0 0 16 14 16 16 12 11 10 10
224 119 105 49 84 165 212 112 130 103 19 106 541 668 523 265 79 0 0 0 0 0 1 71 21 0 0 0 0 0 0 0 0 0 0 18 16 16 12 11 9 8 6
42 36 68 108 77 38 92 164 62 39 2 98 384 396 316 217 36 0 0 0 0 0 0 8 0 0 0 0 0 0 0 0 0 0 5 21 9 9 12 8 5 4 3
62 3 26 35 54 29 18 108 58 1 5 23 126 259 364 162 24 0 0 0 0 0 0 0 2 0 0 0 0 0 0 0 0 0 4 14 13 15 12 9 4 3 4
168 72 35 1 3 2 11 76 6 5 7 6 110 160 262 136 10 0 0 0 0 0 0 0 6 2 0 0 0 0 0 0 0 0 0 8 7 11 12 9 5 0 0
53 33 17 3 3 12 10 30 9 6 0 14 39 136 274 130 37 4 0 0 1 0 0 1 9 5 0 0 0 0 0 0 0 0 0 0 3 16 11 7 8 4 0
38 34 18 15 11 8 34 31 4 7 0 21 87 149 212 158 46 7 0 0 0 8 10 21 31 7 1 0 0 0 0 0 0 0 0 0 0 0 2 8 1 0 0
33 134 50 34 18 2 30 36 43 28 14 30 110 152 189 189 119 23 0 0 0 12 19 40 27 19 0 0 0 0 0 0 0 0 0 0 0 0 0 0 0 0 0
15 49 24 11 11 3 25 21 19 0 7 58 96 120 137 157 159 101 29 2 8 6 36 45 48 20 4 0 0 0 0 0 0 0 0 0 0 0 0 0 0 0 0
1 32 28 27 40 10 2 15 31 8 56 96 100 128 126 150 168 125 58 5 9 18 34 30 35 36 17 0 0 0 0 0 0 0 0 0 0 0 0 0 0 0 0
12 9 9 40 46 17 10 17 12 0 40 75 73 51 27 58 85 79 35 14 13 23 28 22 13 30 0 0 0 0 0 0 0 0 0 0 0 0 0 0 0 0 0
3 3 0 59 14 18 16 5 7 2 83 66 20 35 42 45 65 28 31 20 23 22 15 8 43 52 7 0 0 0 0 0 0 0 0 0 0 0 0 0 0 0 0
0 1 4 6 1 1 0 5 4 4 49 65 81 56 29 72 115 130 98 40 28 59 29 21 46 53 41 0 0 0 0 0 0 0 0 0 0 0 0 0 0 0 0
0 4 0 14 13 16 11 0 10 18 8 5 0 55 85 67 50 107 103 98 86 51 45 37 47 45 53 11 1 0 0 0 0 0 0 0 0 0 0 0 0 0 0
1 2 0 2 2 11 0 0 0 0 11 9 0 3 2 9 38 30 32 49 43 46 61 63 67 55 42 40 20 13 22 17 12 11 17 2 0 0 0 0 0 0 0
0 0 0 0 0 0 0 0 0 0 0 0 0 0 0 0 0 0 0 0 2 20 43 77 59 55 73 44 37 45 17 20 1 16 6 0 3 2 0 0 0 2 2

GFSSE_con_mucape_093.txt.gz
CAPE
1178 1268 1632 1899 1891 1885 1928 1746 1637 1676 1717 1655 1669 1553 1520 1551 1445 1423 1392 1129 991 884 433 165 324 86 20 23 22 28 33 27 31 34 28 23 18 18 10 24 13 6 26
1095 1333 1655 1861 1942 1862 2030 1906 1808 1845 1941 1909 1747 1643 1618 1554 1479 1401 1273 1097 913 711 117 30 85 16 22 22 13 12 13 24 25 32 43 28 24 55 43 66 60 47 56
1442 1360 1653 1809 1932 1883 2058 2208 2121 2189 2168 2042 1889 1761 1650 1565 1468 1306 1014 846 683 507 33 15 15 14 13 10 7 5 5 9 11 10 24 16 11 27 42 78 92 75 55
1835 1657 1426 1758 1866 2013 2033 2261 2226 2300 2199 2124 2000 1805 1662 1423 1190 986 714 578 522 450 51 10 5 8 7 6 7 5 3 0 0 8 2 5 27 41 48 42 42 48 49
1995 1918 1601 1713 1766 2027 2036 2211 2236 2190 2066 2027 1918 1766 1547 1223 1042 794 606 474 574 598 92 13 3 2 2 3 2 2 0 0 0 0 0 4 31 41 33 21 15 12 18
1691 1847 1411 1465 1711 1979 2109 2207 2203 2079 1916 1848 1718 1602 1382 1157 1121 900 711 720 786 687 528 49 0 0 0 0 1 2 0 0 0 0 0 5 7 18 16 13 12 11 9
1056 891 1006 1295 1380 1958 2158 2164 2018 1895 1753 1675 1531 1294 1052 1133 1038 852 796 751 660 727 542 187 169 0 0 1 1 0 0 0 0 0 1 4 13 13 11 10 9 10 11
491 376 264 868 1206 1110 2011 1888 1689 1616 1521 1450 1259 1027 917 976 816 832 808 752 584 399 214 347 36 0 0 0 0 0 0 0 0 0 0 4 11 9 10 7 7 7 7
181 159 137 140 295 537 689 1172 1436 1416 1338 1259 987 757 602 607 631 692 597 398 206 212 203 272 10 0 0 0 0 0 0 0 0 0 0 5 10 10 12 11 10 8 5
100 244 180 326 165 489 486 538 1187 1228 1209 1154 854 634 379 374 403 321 226 126 168 419 364 180 9 0 0 0 0 0 0 0 0 0 3 9 18 13 13 9 8 5 4
71 110 111 274 512 590 461 670 850 989 1089 1096 817 470 339 650 498 239 50 51 168 308 211 73 3 0 0 0 0 0 0 0 0 0 5 23 15 9 9 9 8 7 4
62 80 108 129 239 238 366 517 455 1043 1473 1250 1092 676 546 566 458 63 24 32 72 190 104 50 15 0 0 0 0 0 0 0 0 0 4 25 12 11 7 5 5 6 6
66 59 87 82 42 96 129 187 171 182 315 409 1202 360 325 292 93 77 16 0 48 152 102 37 2 0 0 0 0 0 0 0 1 4 5 21 12 9 10 8 7 7 1
58 29 29 40 77 124 81 167 56 13 68 420 377 437 114 94 75 40 0 0 0 75 114 23 0 0 0 0 0 0 0 0 0 2 5 14 17 8 10 10 8 7 3
51 24 23 24 42 56 57 86 71 33 20 94 122 236 82 79 30 0 0 0 0 0 1 10 0 0 0 0 0 0 0 0 0 4 4 7 15 12 9 7 6 6 2
64 20 39 16 52 12 13 29 98 9 11 53 92 33 108 130 10 0 0 0 0 0 3 6 0 0 0 0 0 0 0 0 0 5 3 0 2 17 15 8 5 2 0
30 17 36 1 16 1 0 3 22 34 13 31 65 94 83 80 4 0 0 0 0 0 10 8 0 6 1 0 0 0 0 0 0 1 3 3 0 6 14 17 5 3 0
7 11 21 0 9 0 7 26 3 13 18 18 38 71 106 73 5 11 0 15 2 1 11 11 14 15 17 8 0 0 0 0 0 0 1 1 2 2 1 21 11 0 0
4 0 9 0 4 10 12 33 17 31 21 11 85 72 95 71 15 0 7 0 0 2 11 20 33 34 55 27 0 0 0 0 0 0 0 0 0 0 0 0 0 0 0
14 14 8 7 11 6 32 11 2 25 24 16 28 59 83 81 45 18 10 12 2 2 14 27 41 57 71 52 0 0 0 0 0 0 0 0 0 0 0 0 0 0 0
14 10 6 29 12 4 25 24 4 26 12 12 71 49 60 77 89 63 35 44 21 21 37 31 43 51 74 75 0 0 0 0 0 0 0 0 0 0 0 0 0 0 0
12 0 1 0 4 6 9 9 25 6 2 1 56 48 68 72 97 118 92 60 59 28 30 31 23 48 56 44 0 0 0 0 0 0 0 0 0 0 0 0 0 0 0
0 0 0 0 12 3 4 17 14 6 2 1 49 21 47 45 64 68 87 90 74 53 23 20 31 31 46 43 1 0 0 0 0 0 0 0 0 0 0 0 0 0 0
0 0 1 0 19 2 1 24 9 19 0 1 5 19 1 32 53 65 39 63 74 67 30 16 26 17 44 36 38 3 2 0 2 0 1 3 4 0 0 0 0 0 0
0 0 0 0 4 0 5 7 3 4 21 11 12 22 11 21 40 50 89 74 128 83 48 49 65 33 46 50 47 28 24 11 5 1 3 0 0 5 5 6 1 0 0
0 0 0 0 3 1 9 6 0 0 6 11 13 1 0 1 0 41 35 79 114 101 44 65 68 62 57 57 59 48 26 28 23 6 0 12 6 0 0 1 3 1 0

GFSSE_con_mucape_096.txt.gz
CAPE
1325 1412 1458 1866 1981 2021 1723 1655 1612 1587 1688 1684 1646 1528 1576 1670 1484 1433 1257 1052 956 937 411 61 370 137 21 21 16 22 28 30 27 35 25 13 6 0 0 35 27 26 29
1507 1299 1452 1954 2099 2151 1994 1783 1773 1834 1839 1873 1640 1626 1628 1736 1767 1405 1333 1182 1026 808 104 38 163 24 21 18 7 18 24 21 20 30 48 59 39 28 23 58 34 18 15
1653 1447 1575 1880 2096 2276 2189 2018 2017 2091 2044 1960 1790 1802 1748 1873 1766 1614 1383 1038 937 672 57 18 13 15 16 11 7 0 3 15 24 28 41 47 46 59 58 67 75 45 33
1821 1680 1608 1799 1959 2320 2219 2081 2218 2276 2151 1965 2029 1962 1918 1876 1748 1569 1195 822 714 534 15 12 8 12 9 7 10 8 0 0 3 30 11 25 49 60 57 44 30 31 25
1445 1932 1636 1736 1838 2157 2320 2226 2287 2263 2037 1974 1951 1976 1909 1759 1586 1324 914 569 540 435 51 11 7 3 3 11 11 3 0 0 0 10 11 34 17 30 16 12 14 13 16
1417 1929 1466 1598 1745 2069 2398 2364 2331 2166 1942 1907 1798 1839 1778 1605 1360 989 654 535 593 470 51 4 1 2 6 4 4 0 0 0 0 0 2 15 8 13 11 0 3 5 13
1360 1749 985 933 1376 1833 2477 2414 2227 2052 1913 1763 1725 1540 1468 1309 1080 748 592 587 472 354 128 4 1 1 1 0 0 0 0 0 0 0 0 2 6 10 12 11 11 11 10
951 1062 280 169 182 425 1946 2156 2046 1913 1732 1587 1473 1281 1297 1095 882 781 725 600 614 383 156 52 3 3 0 0 0 0 0 0 0 0 0 2 16 11 11 11 7 6 8
709 575 174 73 86 79 596 1721 1582 1720 1567 1393 1121 1017 983 854 742 825 660 850 626 377 346 57 1 0 0 0 0 0 0 0 0 0 0 1 10 5 10 7 7 7 6
476 626 258 36 29 132 295 282 294 867 1175 1141 818 845 672 642 638 648 521 396 336 409 231 63 10 0 0 0 0 0 0 0 0 0 1 3 17 12 12 6 6 6 5
415 318 426 21 0 39 382 255 58 192 714 813 682 743 624 1025 817 581 328 230 326 345 152 66 2 0 0 0 0 0 0 0 0 2 3 21 22 13 10 8 5 4 4
732 323 294 144 101 98 151 261 102 78 742 1199 811 1042 609 1000 724 348 175 254 374 290 106 68 29 0 0 0 0 0 0 0 0 2 4 27 16 12 9 9 5 4 3
456 474 115 335 277 586 646 878 450 215 514 761 698 520 601 909 757 330 75 162 386 162 128 23 0 0 0 0 0 0 0 0 2 2 3 24 15 8 9 7 7 6 5
455 256 277 146 402 486 386 470 302 202 638 458 706 462 1077 902 651 154 16 93 235 161 143 63 23 38 9 0 0 0 0 0 2 0 4 14 24 12 14 8 5 5 4
257 84 191 250 301 236 424 466 215 665 156 462 321 371 561 348 86 66 74 111 119 169 168 138 100 48 11 0 0 0 0 1 1 2 5 11 19 22 13 13 9 5 3
40 30 123 175 107 153 189 178 91 68 169 317 444 220 221 163 34 30 59 38 104 179 184 138 82 9 0 0 0 0 0 0 0 2 6 12 16 26 21 10 8 6 2
4 5 12 8 40 21 31 40 137 85 71 190 184 150 45 13 15 14 69 2 1 50 76 77 24 0 0 0 0 0 0 0 0 0 6 7 12 11 17 17 4 3 1
3 31 2 28 0 9 49 12 26 73 39 62 163 141 27 5 33 70 36 2 0 10 29 3 0 5 5 0 0 1 0 0 0 5 7 14 9 9 15 30 17 3 0
17 6 10 1 0 1 0 4 20 18 32 43 92 87 23 11 44 82 79 7 0 0 0 0 2 8 16 7 5 6 0 0 0 0 6 18 13 4 8 13 20 11 9
6 41 43 4 8 0 10 10 28 3 14 24 9 59 6 4 31 76 38 33 3 0 0 2 3 24 47 53 39 19 0 0 0 0 2 3 3 2 0 4 2 0 0
0 4 11 5 0 4 0 4 16 8 7 17 8 6 25 8 79 98 42 50 25 10 16 9 11 24 63 62 62 37 0 0 0 0 0 0 0 0 0 0 0 0 0
0 0 4 2 4 7 5 9 9 22 15 22 14 10 19 49 100 84 58 90 87 46 37 20 18 27 59 69 71 45 1 0 0 0 0 0 0 0 0 0 0 0 0
0 0 0 0 0 21 3 2 11 31 31 36 25 15 11 34 81 78 79 84 109 109 71 53 21 14 48 76 68 43 3 0 0 0 0 0 0 0 0 0 0 0 0
0 0 0 0 0 10 0 2 2 29 0 3 5 8 24 15 37 93 101 111 123 113 107 73 18 27 34 43 48 43 31 7 0 0 8 0 0 1 8 1 1 0 0
1 0 0 0 0 0 3 7 2 13 4 7 6 9 37 2 44 35 61 62 93 107 131 139 75 55 45 66 9 50 34 41 24 13 14 1 0 0 1 0 2 2 0
10 13 0 0 0 0 0 6 9 2 10 0 0 2 53 47 105 56 40 63 71 131 157 193 212 167 86 54 79 29 29 31 26 26 35 31 0 0 0 0 16 3 2

GFSSE_con_mucape_099.txt.gz
CAPE
1202 1785 1822 2003 2135 1907 1687 1632 1625 1594 1654 1668 1679 1738 1675 1732 1584 1401 1178 942 864 803 301 86 289 124 11 7 2 100 33 18 24 29 17 12 2 4 32 172 67 32 35
1348 2000 1566 1925 2106 2170 1906 1820 1786 1743 1854 1860 1808 1815 1729 1706 1597 1469 1243 1134 1062 784 198 109 29 20 20 13 42 53 67 53 15 18 21 31 46 15 14 32 44 18 20
1709 1716 1583 1925 2060 2305 2188 2049 2020 2054 2121 2042 1920 1978 1833 1814 1681 1498 1390 1212 1027 699 144 74 21 21 20 8 43 55 17 10 107 48 73 27 31 27 20 38 44 20 18
1828 1818 1962 1828 2070 2349 2264 2105 2114 2304 2258 2007 2002 2113 2063 1871 1803 1704 1377 1070 855 803 178 143 20 19 17 13 9 3 0 0 4 34 23 29 38 43 30 16 11 7 11
1274 1692 1888 1766 1966 2335 2284 2138 2137 2212 2104 1933 2006 2203 2238 2006 1941 1625 1207 892 798 643 101 36 18 17 12 1 0 0 0 0 0 29 21 29 18 16 12 6 5 10 27
1069 1372 1624 1625 1825 2112 2273 2143 2181 2101 1798 1853 1958 2184 2233 2022 1704 1415 918 760 697 542 170 10 9 10 4 0 0 0 0 0 11 13 10 20 21 22 4 0 0 8 28
1013 1488 2168 1541 1642 1839 1900 1770 2022 1924 1715 1828 1929 2031 1946 1506 1508 1052 728 592 494 351 190 7 7 5 1 0 0 0 0 0 0 1 4 5 13 13 6 10 12 11 12
1134 1623 1516 869 743 691 613 326 1268 1652 1579 1624 1745 1770 1735 1417 1168 863 709 520 304 206 118 12 9 2 0 0 0 0 0 0 2 2 2 2 14 13 12 11 12 13 15
1207 1138 1101 426 173 52 170 40 84 1338 1407 1453 1488 1405 1239 944 759 838 723 461 245 152 59 4 3 0 0 0 0 0 0 0 6 1 0 3 19 13 14 11 12 13 14
906 777 832 45 3 146 169 10 3 931 1032 1078 1151 1032 818 634 662 652 678 490 257 140 64 2 0 0 0 0 0 0 0 0 3 1 1 4 14 14 10 9 9 10 10
787 638 677 330 27 16 119 113 190 493 543 858 833 750 663 941 735 660 457 432 346 90 46 24 2 0 0 0 0 0 0 12 12 2 0 21 12 11 12 6 9 8 6
1136 496 595 384 27 46 150 1 89 34 171 820 1227 1053 882 928 668 469 386 332 213 48 34 15 0 0 0 0 0 0 2 3 15 3 1 20 15 13 10 8 8 7 5
674 608 258 404 110 16 103 278 574 16 78 227 990 1081 525 918 832 928 643 460 248 22 0 0 0 0 0 0 0 6 0 0 18 6 2 21 16 16 13 10 7 4 5
491 381 403 415 417 401 374 754 684 208 2 183 1258 909 981 903 656 954 636 284 287 71 0 0 0 6 3 0 0 0 0 10 14 4 8 21 24 13 11 11 9 7 4
373 275 287 351 493 554 431 810 713 331 579 219 452 926 660 475 551 275 312 318 204 172 34 41 0 51 43 2 0 0 1 3 2 2 5 11 23 23 12 12 9 7 6
359 280 156 180 194 309 513 529 663 168 222 204 207 513 858 847 497 108 282 367 312 267 125 98 92 62 43 1 0 0 0 0 6 9 6 7 15 24 22 13 10 7 5
231 168 49 48 130 148 161 274 512 502 383 355 81 218 630 251 255 146 211 340 220 288 431 229 160 36 2 0 0 0 0 2 13 21 7 13 6 11 18 27 25 7 2
268 80 32 3 13 57 66 171 299 108 398 149 130 85 83 73 175 139 100 111 243 232 297 202 115 5 0 0 0 0 0 4 6 13 15 26 12 11 8 21 19 8 1
118 8 1 0 22 35 12 4 112 152 128 169 114 81 80 30 46 18 35 56 240 237 224 178 70 23 0 0 0 0 0 0 0 1 14 31 23 14 7 5 6 7 1
22 9 0 1 0 0 0 11 10 1 89 79 119 40 11 22 13 29 16 84 168 184 181 74 52 10 0 0 0 0 6 0 0 0 2 10 10 13 1 15 0 1 5
12 9 0 0 0 0 0 0 0 18 50 55 89 68 28 11 19 2 18 102 176 74 35 40 61 129 19 24 9 8 21 1 0 0 0 2 2 0 4 1 7 1 0
7 3 0 1 2 0 0 0 7 6 7 39 43 46 19 4 5 5 40 129 144 82 84 115 160 61 34 9 26 32 18 0 0 0 0 0 1 0 0 0 0 1 0
13 4 0 0 9 2 7 1 29 24 32 26 38 27 23 23 16 3 66 147 161 161 149 174 177 126 54 18 39 38 2 0 0 0 0 0 0 0 0 0 0 0 0
40 11 16 0 3 1 4 0 0 3 22 17 9 25 21 5 12 66 88 172 208 193 176 157 128 156 148 35 25 39 33 21 83 37 0 2 6 6 0 0 0 0 0
138 10 0 0 0 0 8 8 0 2 16 15 4 10 13 33 7 85 121 190 252 180 223 231 175 151 125 139 31 3 0 6 35 31 32 18 0 14 22 17 4 4 0
67 52 11 0 0 0 6 1 2 2 3 0 8 0 20 24 53 82 94 179 197 217 218 209 172 117 163 223 190 150 10 18 10 28 21 22 18 6 21 22 6 1 2

GFSSE_con_mucape_102.txt.gz
CAPE
1801 1468 1893 2001 1800 1703 1614 1617 1593 1587 1562 1635 1753 1762 1727 1535 1343 1170 998 832 777 758 397 317 348 197 120 35 0 144 81 36 30 130 64 70 33 36 147 166 37 15 137
1822 1579 1863 2119 2010 1819 1783 1781 1743 1763 1768 1858 1840 1796 1718 1553 1386 1198 1071 986 947 870 326 249 128 70 58 27 130 5 1 0 4 17 93 136 42 13 4 33 42 20 24
1695 1720 1621 1960 2249 2049 2006 2014 2023 2014 1960 1996 1949 1902 1845 1700 1517 1368 1338 1175 963 913 353 196 69 14 11 7 117 72 43 29 7 72 21 0 0 16 12 25 44 28 35
1220 1826 1808 1802 2094 2282 2134 2087 2062 2217 2080 2061 2086 1910 1813 1816 1640 1634 1401 1058 877 858 269 126 71 15 14 116 58 106 171 104 159 55 11 11 18 24 21 18 16 9 14
1112 1209 2272 1773 1906 2265 2216 2114 2080 2177 2039 2011 1959 1588 1602 1485 1699 1682 1239 921 934 887 157 102 89 50 16 19 34 11 4 6 37 13 9 14 9 18 19 17 12 14 31
899 1720 1528 1664 1804 2119 2149 2178 2077 1835 1933 1759 1338 758 1527 1448 1706 1484 1065 904 868 661 118 107 74 11 5 0 0 0 0 0 1 0 3 11 3 23 12 6 2 7 29
899 1906 2011 1614 1685 2040 2267 2107 2030 1828 1792 1691 1566 1429 1350 1186 1297 1243 960 801 598 463 163 41 9 0 0 0 0 0 0 0 0 0 0 0 8 17 8 10 11 14 13
1229 2118 2168 1237 1286 1619 1970 1820 1710 1656 1182 1521 1660 1333 920 953 786 868 847 706 410 183 107 55 21 0 0 0 0 0 0 0 0 0 0 0 18 13 12 13 13 15 17
1662 1546 1652 1359 747 685 1192 1189 983 636 97 879 1264 862 307 472 684 783 723 507 231 124 91 48 13 0 0 0 0 0 0 0 0 0 0 1 26 13 15 17 18 15 15
1311 1231 1214 886 386 187 289 192 299 282 0 9 804 612 598 613 519 533 337 252 124 83 4 0 0 0 0 0 0 0 0 0 0 0 0 1 12 18 16 17 17 12 10
1122 1086 1055 775 368 209 32 69 73 39 15 16 460 493 592 456 506 314 186 118 85 26 4 0 0 0 0 0 0 0 0 1 0 0 0 20 23 19 20 14 9 6 7
1523 998 1072 820 390 58 28 1 37 2 2 18 330 364 440 455 410 276 130 86 29 4 0 0 0 0 0 0 0 0 0 11 0 0 0 27 18 20 12 7 6 7 7
1216 1257 722 605 311 0 96 20 62 0 3 1 185 209 331 472 259 260 181 7 0 0 0 0 0 0 0 0 0 0 0 16 0 0 2 21 17 12 9 6 6 9 9
1166 888 680 469 102 6 123 15 61 50 84 141 320 269 392 277 219 251 139 1 0 0 0 0 0 0 0 0 0 2 3 14 0 0 1 12 16 12 12 9 8 8 8
732 653 543 431 365 219 127 89 93 22 17 94 126 239 224 122 259 186 140 53 0 0 0 0 0 0 0 0 0 0 3 12 0 0 0 3 12 20 15 11 8 7 8
576 554 415 345 412 443 278 129 103 60 5 16 139 235 221 178 267 154 116 102 1 0 0 0 0 6 0 0 0 0 0 6 0 0 0 0 10 19 21 11 6 7 6
445 343 149 269 296 267 211 251 208 151 18 104 64 135 245 236 195 70 72 110 70 8 18 0 0 16 3 0 0 0 0 0 2 0 0 0 0 6 16 24 7 4 4
376 146 39 9 55 113 130 244 222 189 153 66 7 64 85 182 136 55 62 75 99 73 85 38 59 5 0 0 0 0 0 0 12 0 0 0 0 0 4 11 8 13 7
301 44 9 9 8 36 32 54 156 161 113 92 12 21 31 67 66 93 74 116 155 111 121 110 81 0 0 0 0 0 0 0 2 1 0 0 0 0 0 0 0 9 6
190 22 6 5 11 8 0 0 16 64 135 132 28 5 22 13 42 51 76 114 62 80 110 70 45 0 0 0 0 0 0 0 0 5 0 5 0 0 0 0 0 0 0
30 3 5 2 2 0 0 0 5 1 10 114 76 32 14 15 25 44 68 49 38 51 60 71 31 10 0 0 0 0 0 0 0 0 0 0 0 0 0 0 0 0 0
0 9 1 3 0 0 0 3 0 0 0 34 99 45 32 5 12 23 31 42 65 14 1 45 33 22 23 14 8 0 0 0 4 0 0 0 0 0 0 0 0 0 0
0 40 13 0 0 0 0 0 0 0 27 51 88 45 11 10 7 8 4 4 1 22 42 62 58 51 53 38 25 1 2 0 0 0 0 0 0 0 0 0 1 0 0
1 21 12 46 0 0 0 0 0 0 2 6 55 20 31 20 9 14 10 11 2 26 60 63 99 122 82 59 31 22 19 13 16 0 0 0 0 0 1 4 7 13 9
1 22 141 13 33 0 0 0 16 0 34 29 28 6 27 3 14 24 8 10 2 7 96 93 118 113 81 63 47 27 31 17 12 0 0 0 0 0 8 6 24 11 10
62 26 46 60 73 0 0 0 0 13 4 11 18 27 23 20 17 6 8 2 36 49 76 93 116 100 113 67 41 29 17 13 3 0 0 0 1 2 2 4 0 0 11

GFSSE_con_mucape_105.txt.gz
CAPE
1410 1660 1608 1732 1710 1681 1631 1601 1546 1535 1758 1881 1862 1699 1600 1500 1369 1236 1136 1009 1006 1120 803 661 673 465 401 348 366 520 481 369 342 411 444 347 154 94 52 93 82 33 111
1427 1849 1746 1801 1772 1763 1786 1752 1723 1760 1957 2010 1942 1725 1590 1457 1315 1191 1102 1070 1100 1118 698 617 404 382 221 110 238 136 98 100 89 135 242 260 171 47 38 40 59 55 60
1568 1940 2032 1809 1844 1922 2023 1969 1954 1959 2110 2102 2003 1829 1716 1552 1396 1279 1195 1118 1073 1027 577 507 419 246 29 122 84 55 69 82 4 8 12 0 7 26 26 41 63 47 44
1670 1748 2044 1993 1934 2017 2071 2105 2070 2109 2184 2121 2107 1986 1820 1682 1598 1500 1288 1107 1002 958 348 238 231 71 58 109 58 15 40 181 0 7 0 1 3 24 36 38 31 35 27
1707 1708 1793 2066 2015 2054 2099 2127 2115 2086 2117 2007 1984 2045 1814 1729 1760 1650 1253 1077 1010 910 272 192 138 116 228 134 180 190 198 49 30 0 0 1 8 14 15 10 11 23 28
1116 1892 1867 1892 2135 2077 2169 2154 2153 2171 1997 1852 1743 1780 1635 1575 1460 1325 1213 1054 959 814 502 146 107 235 71 28 0 4 16 1 0 0 0 15 1 10 12 19 19 39 38
1370 1483 1583 1629 1888 2214 2317 2244 2043 2114 1905 1830 1031 1047 660 1009 1067 714 815 1121 840 691 548 249 130 66 30 0 0 0 0 0 0 0 0 1 9 10 21 18 16 10 6
1329 1807 1601 1502 1651 1972 2291 2182 1945 1888 1746 1454 1014 689 646 546 559 710 638 801 658 448 284 148 66 32 33 0 0 0 0 0 0 0 0 0 17 16 21 13 14 13 14
1176 1682 1620 1316 1091 1422 1739 2184 2002 1713 1416 1069 446 661 679 403 522 773 801 693 416 220 185 131 35 15 15 0 0 0 0 0 0 0 0 0 24 15 14 13 11 14 15
1133 950 997 991 790 365 592 1394 1689 1662 1329 670 476 350 320 356 476 576 534 394 234 183 158 121 22 0 0 0 0 0 0 0 0 0 0 3 19 9 11 9 12 15 11
841 671 617 625 298 21 0 74 352 736 710 434 253 138 141 168 339 347 222 215 188 134 95 36 9 0 0 0 0 0 0 0 0 0 0 15 10 7 7 11 10 10 11
984 938 829 640 293 106 4 0 6 21 127 213 193 16 114 143 176 137 154 162 106 58 31 3 0 0 0 0 0 0 0 0 0 0 0 13 10 11 12 8 10 14 9
1159 1102 920 589 290 90 14 0 0 15 39 41 102 3 123 244 196 109 34 26 10 2 0 0 0 0 0 0 0 0 0 0 0 0 0 12 20 13 12 11 10 8 9
1065 973 547 410 138 0 0 0 1 0 2 10 5 17 147 209 189 103 0 3 0 0 0 0 0 0 0 0 0 0 0 0 0 0 0 8 20 15 15 11 7 7 6
850 562 428 286 146 0 0 0 8 34 20 30 3 103 166 159 145 50 0 0 0 0 0 0 0 0 0 0 0 0 0 0 0 0 0 4 16 19 13 10 7 5 6
550 457 298 217 198 6 0 0 5 12 10 12 23 96 127 93 110 18 0 0 0 0 0 0 0 0 0 0 0 0 0 0 0 0 0 0 6 24 21 7 5 6 7
412 349 235 161 156 80 40 2 13 32 23 44 78 134 138 159 255 26 0 0 0 0 0 0 0 0 0 0 0 0 0 0 0 0 0 0 0 3 10 11 8 5 9
485 310 157 148 90 56 73 43 47 51 37 45 50 129 125 206 161 70 14 0 0 0 0 0 0 0 0 0 0 0 0 0 0 0 0 0 0 0 0 4 12 11 7
227 174 65 37 23 19 32 90 93 73 28 73 70 104 93 124 163 81 49 7 18 0 0 0 0 0 0 0 0 0 0 0 0 0 0 0 0 0 0 0 0 1 12
167 105 1 0 6 9 1 14 90 91 42 24 9 59 103 97 87 68 74 40 39 8 38 0 19 5 0 0 0 0 0 0 0 0 0 0 0 0 0 0 0 0 0
109 38 0 1 8 1 0 0 6 42 57 38 12 55 108 87 38 28 65 50 86 65 52 36 52 26 0 0 0 0 0 0 0 0 0 0 0 0 0 0 0 0 0
86 0 0 8 35 2 0 0 0 0 31 69 25 18 92 24 9 20 21 40 62 52 84 67 64 42 3 0 0 1 0 0 0 0 0 0 0 0 0 0 0 0 0
35 0 0 22 0 0 0 0 0 0 0 28 85 49 19 32 30 3 11 34 51 42 44 40 60 66 5 0 0 8 0 0 0 0 0 0 0 0 0 0 0 0 0
3 0 5 34 1 0 5 3 2 1 0 0 20 25 26 24 22 10 10 27 38 33 25 11 34 55 20 23 12 32 9 15 4 0 0 2 0 0 0 0 0 0 0
0 0 0 36 82 0 12 0 0 4 0 2 18 42 7 18 8 11 7 25 25 10 3 6 15 58 59 50 35 26 35 43 13 3 0 10 0 0 0 0 0 0 0
3 0 0 74 10 0 10 11 0 0 2 6 9 1 10 27 6 12 5 1 15 4 3 4 39 62 52 64 79 66 29 43 37 27 4 2 1 0 0 0 0 0 0

GFSSE_con_mucape_108.txt.gz
CAPE
1466 1425 1569 1768 1767 1625 1578 1471 1508 1714 1734 1766 1710 1654 1630 1613 1545 1514 1460 1341 1364 1425 1109 1013 1211 1372 1125 798 858 891 811 675 604 627 601 276 168 120 109 107 143 57 123
1423 1533 1583 1773 1791 1712 1731 1640 1722 1897 1967 1919 1824 1669 1536 1472 1410 1377 1372 1386 1442 1352 957 847 880 917 859 591 682 475 400 366 393 405 368 274 85 79 65 58 125 51 64
1596 1627 1582 1687 1868 1892 1911 1864 1973 2159 2208 2023 1855 1686 1592 1520 1402 1335 1349 1389 1397 1274 654 507 531 642 524 519 460 376 143 49 18 13 0 3 27 52 41 43 123 54 57
1680 1719 1618 1654 1857 2001 2006 2009 2137 2248 2248 2037 1894 1735 1625 1536 1513 1518 1358 1215 1262 1170 785 887 486 362 370 417 327 228 60 16 0 0 0 0 14 35 35 32 36 43 38
1627 1894 1728 1621 1783 1988 2095 2086 2151 2246 2136 2017 1897 1835 1721 1703 1650 1506 1247 1077 1111 1062 631 621 420 175 258 140 184 224 69 2 0 0 0 0 1 25 25 32 27 15 21
1448 1704 1924 1597 1688 1952 2176 2220 2207 2231 2007 1915 1927 1855 1917 1889 1764 1487 1254 1169 1095 954 600 406 307 414 299 245 288 17 35 0 0 0 0 9 11 28 24 25 24 20 21
1532 1610 1773 1764 1714 1973 2273 2296 2179 2127 1951 1887 1783 1289 883 1351 1549 1335 1184 1071 933 850 692 593 527 330 129 47 14 0 0 0 0 0 0 5 13 10 13 17 6 8 9
1235 1729 1621 1871 1974 2030 2168 2151 2086 1835 1868 1590 1052 593 465 856 1234 1147 1105 992 774 657 466 439 241 52 2 12 0 0 0 0 0 0 0 1 23 17 14 9 9 14 10
1275 1365 1454 1499 1718 2032 2206 2182 2028 1821 1373 1076 609 341 653 594 539 826 878 901 698 483 396 292 99 31 6 13 0 8 0 0 0 0 0 0 30 19 14 14 14 12 10
1618 1529 1429 1280 1194 1395 1735 1871 2086 1850 1263 755 312 288 252 34 173 577 632 725 568 390 283 189 67 15 0 0 6 0 0 0 0 0 0 2 27 15 13 17 14 13 16
947 990 1060 1004 814 549 378 1009 1725 1688 1350 668 304 242 156 48 129 580 446 354 318 205 178 146 54 22 1 0 1 0 0 0 0 0 0 22 17 16 18 15 12 11 9
741 580 608 682 466 370 206 15 141 875 823 600 272 211 141 46 164 284 292 173 166 141 121 86 26 0 0 0 0 0 0 0 0 0 0 19 17 15 19 12 8 7 7
638 685 809 710 616 420 180 58 6 0 82 269 185 152 168 140 156 180 182 77 43 53 4 4 0 0 0 0 0 0 0 0 0 0 0 11 11 11 11 6 5 6 7
827 876 962 861 524 398 97 49 0 0 0 106 185 120 109 102 82 157 136 23 0 0 0 0 0 0 0 0 0 0 0 0 0 0 0 5 9 7 4 6 6 7 8
753 968 993 588 431 253 0 0 0 1 4 21 62 20 54 111 92 73 132 30 0 0 0 0 0 0 0 0 0 0 0 0 0 0 0 0 10 7 4 4 7 7 12
807 980 567 478 279 29 0 0 0 1 12 8 8 6 38 76 91 49 70 1 0 0 0 0 0 0 0 0 0 0 0 0 0 0 0 0 0 9 9 6 6 8 12
717 554 431 196 148 69 7 2 0 5 6 24 5 5 0 93 87 67 98 1 0 0 0 0 0 0 0 0 0 0 0 0 0 0 0 0 0 0 7 10 9 9 11
515 431 323 281 178 111 54 25 0 0 36 45 26 81 76 50 71 77 101 0 0 0 0 0 0 0 0 0 0 0 0 0 0 0 0 0 0 0 0 7 16 17 14
558 447 353 199 129 19 54 41 0 10 8 34 17 80 110 103 82 53 76 0 0 0 0 0 0 0 0 0 0 0 0 0 0 0 0 0 0 0 0 0 7 11 12
532 444 303 97 65 3 31 86 45 55 7 54 66 39 109 111 88 46 49 0 0 0 0 0 0 0 0 0 0 0 0 0 0 0 0 0 0 0 0 0 0 0 0
489 333 196 17 9 12 0 88 139 80 0 31 39 41 72 78 130 74 4 0 0 0 0 0 0 0 0 0 0 0 0 0 0 0 0 1 0 0 0 0 0 0 0
350 253 46 0 0 4 0 2 51 49 24 8 6 38 93 66 56 21 1 0 0 0 1 0 12 15 0 1 0 0 0 0 0 2 3 9 0 1 0 0 0 0 0
301 154 0 0 2 0 0 0 5 39 52 26 22 61 45 24 47 23 15 2 1 0 0 0 5 9 15 11 0 0 0 0 0 0 5 4 4 10 2 0 0 0 0
282 114 0 0 2 12 0 0 0 0 4 82 30 39 62 74 38 39 41 11 11 7 7 0 0 17 22 17 0 0 0 0 8 0 16 4 2 0 2 0 0 0 0
313 50 0 0 1 2 0 0 0 0 0 9 79 107 26 83 79 71 70 47 28 34 20 13 4 52 66 16 4 0 5 3 10 7 14 34 12 14 10 0 0 0 0
284 1 0 0 1 1 0 2 4 3 0 18 2 8 58 35 71 64 8 30 4 29 43 43 53 47 63 4 29 9 7 0 30 15 42 45 28 16 5 0 0 0 0

GFSSE_con_mucape_111.txt.gz
CAPE
1185 1080 1469 1706 1692 1576 1461 1598 1610 1658 1728 1943 1941 1859 1786 1719 1615 1593 1558 1564 1616 1705 1437 1323 1632 1583 1166 1058 1011 1051 865 676 633 599 470 292 178 141 203 173 168 54 251
1128 1232 1459 1759 1720 1639 1580 1742 1760 1831 1921 2014 2009 1930 1835 1750 1739 1691 1716 1674 1687 1664 1165 1374 1648 1151 967 889 1071 934 834 646 521 445 450 391 168 93 177 139 171 70 223
1311 1305 1463 1719 1781 1780 1770 1959 1978 2063 2049 1952 1998 1945 1907 1863 1772 1717 1778 1729 1700 1285 1206 1051 1155 1162 893 776 794 733 614 452 286 208 53 6 31 88 98 92 166 77 60
1356 1324 1436 1658 1786 1921 1878 2019 2127 2164 2077 2002 1975 1937 1892 1853 1786 1785 1748 1642 1582 1462 1011 1189 1216 991 706 747 541 409 234 96 27 10 0 1 17 46 53 49 31 24 36
1518 1385 1399 1595 1739 1956 1982 2113 2191 2165 2045 1964 1906 1937 1859 1832 1857 1870 1654 1470 1386 1265 810 1015 904 826 756 434 321 198 48 16 0 0 0 0 3 24 20 13 20 23 35
1585 1586 1465 1523 1705 1938 2048 2155 2271 2142 1991 1875 1822 1850 1890 1939 1876 1767 1503 1438 1375 976 860 896 690 692 424 327 191 36 1 0 0 0 0 0 0 15 12 12 17 29 34
1406 1680 1534 1431 1654 1988 2203 2201 2225 2069 1931 1830 1780 1740 1671 1720 1401 1338 1372 1350 1203 1225 1250 907 626 417 457 178 188 0 0 0 0 0 0 0 3 17 27 14 10 13 11
1308 1467 1620 1402 1574 1882 2112 2085 2089 1972 1852 1693 1423 1535 1423 1001 918 865 1309 1238 1029 957 779 622 500 427 127 1 1 0 0 0 0 0 0 0 27 11 10 12 9 13 11
1315 1368 1490 1509 1560 1779 2049 2036 2003 1851 1691 1454 965 703 768 474 515 758 949 826 950 735 674 541 278 54 23 0 0 0 0 0 0 0 0 2 29 21 16 18 13 11 10
1137 1499 1519 1649 1747 1805 1769 1879 1959 1787 1637 1178 809 338 353 375 323 424 541 744 781 592 571 333 75 29 14 0 0 0 0 0 0 0 0 2 26 22 20 15 16 15 17
1107 1161 1297 1372 1572 1725 1829 1800 1907 1883 1503 998 530 301 412 281 243 215 505 651 684 482 370 158 33 36 30 16 0 0 0 0 0 0 0 19 19 20 14 12 17 17 15
1136 1205 1198 1172 1081 1038 1176 1548 1568 1721 1669 806 474 354 248 163 142 116 362 492 354 311 244 82 27 36 13 0 0 0 0 0 0 0 0 18 15 16 18 13 14 14 16
742 792 847 925 677 411 297 241 480 1162 1263 1018 370 183 221 134 92 268 254 284 176 158 104 8 13 8 0 0 0 0 0 0 0 0 0 17 25 16 13 13 9 10 6
523 637 638 537 488 450 397 294 34 0 154 431 340 223 144 102 111 90 108 148 127 59 43 1 0 0 0 0 0 0 0 0 0 0 0 12 24 17 12 15 12 12 11
365 431 522 537 649 596 369 249 32 4 0 19 120 235 87 97 47 53 131 123 96 12 0 0 0 0 0 0 0 0 0 0 0 0 0 2 14 18 11 14 13 11 8
294 537 704 790 803 508 381 15 0 0 1 15 70 84 145 97 61 121 95 87 69 0 0 0 0 0 0 0 0 0 0 0 0 0 0 0 7 11 12 10 11 6 5
248 451 718 883 728 398 42 0 0 0 0 0 7 13 91 61 50 112 52 33 93 0 0 0 0 0 0 0 0 0 0 0 0 0 0 0 0 0 6 16 11 4 2
396 550 797 915 469 153 35 1 0 0 0 16 56 12 37 59 72 100 39 49 69 0 0 0 0 0 0 0 0 0 0 0 0 0 0 0 0 0 1 8 13 11 3
475 674 927 541 281 139 50 44 7 0 0 14 37 7 5 45 25 54 36 36 78 0 0 0 0 0 0 0 0 0 0 0 0 0 0 0 0 0 0 0 3 6 8
591 772 623 355 248 113 129 98 43 20 1 5 11 5 2 56 22 22 12 44 60 0 0 0 0 0 0 0 0 0 0 0 0 0 0 0 0 0 0 0 0 0 0
667 727 514 393 228 64 93 505 42 26 85 3 8 4 27 50 52 33 57 74 14 0 0 0 0 0 0 0 0 0 0 0 0 0 0 0 0 0 0 0 0 0 0
675 646 490 378 205 34 32 239 174 64 34 16 37 59 55 61 16 10 15 37 11 0 0 0 0 0 0 0 0 0 0 0 0 4 2 3 1 1 0 0 0 0 0
666 620 496 331 131 9 10 44 37 62 26 35 25 60 73 77 25 14 7 31 12 0 0 0 0 0 0 0 0 0 0 0 0 2 8 12 23 11 15 4 0 0 0
658 604 414 293 19 0 10 8 20 95 1 6 129 22 64 83 64 39 45 38 44 0 0 0 0 0 0 0 0 0 0 0 0 0 3 13 4 8 23 31 18 3 0
578 548 380 236 0 0 3 6 0 8 172 14 5 49 59 64 71 78 58 65 46 0 0 0 0 3 0 7 7 0 0 0 1 0 0 19 1 12 2 1 5 2 0
491 504 343 203 0 1 5 0 0 0 0 18 33 26 23 65 79 86 90 74 28 0 3 0 0 15 39 39 56 43 5 5 0 6 0 21 12 24 22 10 0 0 0

GFSSE_con_mucape_114.txt.gz
CAPE
1112 1129 1376 1456 1588 1210 1501 1521 1570 1736 1923 1863 1890 1879 1867 1862 1734 1683 1718 1760 1624 1676 1739 1616 1719 1597 1506 1135 1225 1106 884 778 761 713 676 493 253 205 346 329 279 150 556
833 1147 1264 1443 1560 1143 1580 1626 1427 1746 2095 2157 2052 1984 1933 1866 1840 1895 1918 1897 1888 1823 1460 1735 1752 1665 1344 1160 1131 1030 891 720 690 670 716 664 505 158 224 215 327 231 393
988 994 1289 1618 1529 1585 1743 1823 1638 1764 2147 2266 2191 2088 2002 1986 1980 2053 2006 1953 1885 1700 1270 1495 1665 1472 1273 1111 1090 961 807 661 571 526 390 60 95 230 211 258 274 345 173
1130 1135 1299 1674 1611 1720 1809 1897 2035 1943 1839 1842 2074 2182 2117 2047 2023 2096 2052 1869 1804 1814 1374 1541 1495 1326 1172 1076 916 730 563 416 220 50 15 36 68 177 119 86 107 119 113
1299 1216 1321 1604 1608 1735 1894 1937 2094 1954 1750 1872 1948 2254 2198 2096 2020 1949 1722 1696 1820 1865 1583 1571 1457 1234 1043 726 560 376 180 24 9 11 10 7 24 84 57 44 27 15 76
1391 1288 1345 1615 1644 1785 1964 2056 2059 2045 1932 1885 1956 1893 2175 2139 2059 1916 1758 1705 1701 1594 1418 1516 1387 1035 680 433 239 80 9 1 0 0 0 0 2 27 8 4 17 19 40
1451 1366 1332 1604 1673 1873 2098 2147 2043 1880 1800 1787 1753 1283 1576 1408 1748 1674 1496 1311 1488 1356 1324 1236 1157 768 503 271 116 18 0 0 0 0 0 0 0 14 2 4 7 21 31
1440 1502 1423 1528 1672 1845 1992 2068 1983 1861 1684 1622 1478 1415 1265 891 1071 993 1217 1191 1340 1206 1036 1102 818 658 395 159 28 0 0 0 0 0 0 0 22 14 7 8 14 8 19
1362 1544 1575 1434 1636 1844 1899 2014 1963 1813 1635 1577 1306 1013 893 802 754 776 782 932 1015 919 961 788 635 225 275 80 1 0 0 0 0 0 0 0 30 18 19 13 13 14 17
1425 1412 1609 1427 1486 1718 1757 1757 1884 1788 1649 1375 1044 951 778 277 272 684 550 650 898 939 818 725 254 99 144 14 0 0 0 0 0 0 0 0 36 12 12 14 7 11 13
1531 1396 1503 1557 1591 1553 1874 1808 1835 1770 1697 1334 874 567 464 308 109 385 419 570 707 612 599 401 169 59 43 9 0 0 0 0 0 0 0 16 15 16 17 11 2 8 7
1073 1227 1544 1572 1510 1547 2021 2040 2171 1716 1476 1368 885 458 333 142 125 127 210 363 426 431 352 208 125 70 15 15 21 6 0 0 0 0 0 10 25 19 10 12 5 7 6
900 1040 1252 1434 1588 1680 1702 1790 1421 1850 1538 1168 889 500 256 119 107 72 153 213 210 243 109 82 103 90 56 18 22 4 0 0 0 0 0 11 30 17 17 8 8 8 7
721 999 1177 1280 1318 1302 1260 1353 1431 1658 1146 1126 931 486 255 223 180 115 205 232 169 105 54 60 104 102 69 16 12 2 0 0 0 0 0 10 23 12 20 9 6 17 10
508 580 842 1065 1044 845 461 327 341 427 739 661 575 692 285 209 111 76 136 133 111 63 57 62 81 58 26 2 0 0 0 0 0 0 0 10 22 25 16 17 17 15 11
427 480 564 758 918 576 453 491 442 305 69 8 378 180 239 192 116 68 71 67 57 18 29 17 41 12 0 0 0 0 0 0 0 0 0 2 7 16 20 14 14 11 11
213 425 444 451 597 455 650 663 404 78 0 6 56 155 112 152 94 62 72 59 64 41 7 0 0 0 0 0 0 0 0 0 0 0 0 0 0 2 14 28 21 11 8
74 223 340 412 598 680 813 548 155 2 0 1 9 108 133 70 66 60 75 26 4 79 0 0 0 0 0 0 0 0 0 0 0 0 0 0 0 0 5 15 24 15 8
12 187 293 468 691 827 724 306 27 10 0 0 0 4 35 77 51 47 60 34 47 96 0 0 0 0 0 0 0 0 0 0 0 0 0 0 0 0 0 4 4 6 14
26 249 325 486 768 855 498 162 37 43 0 0 0 1 56 21 78 39 28 33 57 86 0 0 0 0 0 0 0 0 0 0 0 0 0 0 0 0 0 0 0 0 1
248 345 408 596 903 633 353 79 42 40 16 0 5 3 16 3 25 3 17 21 33 84 0 0 0 0 0 0 0 0 0 0 0 0 0 0 0 0 0 0 0 0 0
267 421 498 804 746 492 265 147 53 132 58 9 2 23 3 11 0 17 26 30 2 83 0 0 0 0 0 0 0 0 0 0 0 0 0 0 0 0 0 0 0 0 0
285 427 580 803 653 444 225 121 292 206 50 17 9 9 3 10 38 29 45 51 46 96 0 0 0 0 0 0 0 0 0 0 0 0 0 0 0 7 4 1 8 1 0
193 314 586 736 570 418 163 30 59 107 25 7 4 10 3 25 16 27 15 35 49 84 0 0 0 0 0 0 0 0 0 0 0 0 0 4 8 22 11 3 14 11 13
121 261 521 666 501 379 146 34 88 73 15 41 29 73 19 22 14 48 33 44 32 69 12 0 0 0 0 0 0 0 0 0 0 0 0 14 7 29 11 6 9 9 4
114 240 506 663 524 365 149 17 23 18 50 42 22 30 83 60 40 20 23 28 22 26 52 0 0 0 0 0 0 0 0 6 6 0 0 0 3 4 0 0 0 0 0

GFSSE_con_mucape_117.txt.gz
CAPE
1202 1236 1338 1165 1202 1500 1575 1592 1663 1842 1793 1840 1895 1924 1934 1959 1917 1901 1924 1944 1801 1754 1647 1512 1720 1650 1477 1293 1338 1154 1061 1002 900 958 924 750 528 475 472 661 487 230 705
1301 1400 1309 1299 1203 1535 1667 1703 1579 1978 2046 2085 2049 2050 1999 1932 1902 1915 1866 1852 1839 1905 1646 1702 1915 1802 1491 1293 1244 1112 996 905 803 787 798 707 362 392 399 537 419 400 624
1463 1480 1459 1085 1453 1319 1770 1705 1525 1951 2375 2309 2234 2158 2065 2013 2057 2115 2018 1853 1889 2012 1792 1728 1948 1556 1295 1325 1181 1062 954 818 741 741 628 286 343 338 327 476 487 470 304
1465 1495 1514 1215 1345 1435 1870 1721 1603 1836 2227 2395 2331 2234 2132 2122 2162 2215 2153 1928 1890 1918 1886 1674 1482 1507 1301 1209 1063 941 783 599 348 353 190 179 266 297 195 149 407 363 229
1480 1428 1572 1376 1455 1710 1890 1997 1726 1995 2173 2276 2227 2256 2215 2215 2230 2164 1989 1914 1818 1914 1918 1673 1511 1444 1308 1002 825 694 429 216 99 175 198 214 243 237 187 143 154 173 164
1664 1563 1325 1470 1499 1665 1939 2150 1793 1743 1787 1846 2127 2229 2293 1991 1455 1213 1210 1517 1408 1581 1951 1605 1500 1272 922 671 486 301 142 52 84 140 184 234 82 80 16 6 67 86 89
1862 1695 1648 1482 1553 1819 2080 2163 2019 1909 1739 1819 2168 2005 2049 1390 899 1161 859 1412 1484 1425 1493 1493 1169 1011 709 503 326 171 53 16 115 75 82 71 19 14 1 0 3 31 41
1929 1740 1868 1655 1664 1731 2002 2009 2013 1874 1788 1837 1994 1782 1619 1299 1127 954 1096 1146 1245 1490 1253 1044 1013 863 567 380 221 113 22 0 6 13 16 27 22 15 1 0 0 13 22
1955 1851 1853 1792 1728 1716 1853 1980 1813 1887 1807 1866 1763 1205 1357 1003 819 971 961 1027 1048 992 1042 857 861 689 447 255 142 49 0 0 1 10 10 28 29 18 2 4 8 14 19
1872 2062 1769 1729 2305 2202 2002 1915 1870 1727 1785 1825 1393 1212 957 683 767 911 863 991 951 899 878 912 669 538 285 112 27 0 0 0 0 3 9 23 33 18 26 7 14 24 18
1640 1817 1780 1558 2318 2403 1971 1915 1780 1681 1570 1519 1268 892 663 856 920 631 326 586 795 754 755 518 429 270 100 7 0 0 0 0 0 3 7 24 37 21 22 8 16 9 19
1868 1663 1553 1747 1778 2384 2139 1722 2095 1829 2176 2013 1653 1195 1303 782 626 473 296 464 743 569 455 266 225 138 39 31 2 0 0 0 0 1 7 22 34 28 25 20 14 20 12
1303 1649 1443 1639 2046 2215 2194 1985 1985 1854 1793 1625 1675 1531 997 361 314 652 613 851 922 506 335 201 120 251 151 81 16 0 3 0 6 1 9 26 42 29 21 10 9 14 23
749 1175 1352 1329 1779 2126 2198 1795 1694 1731 1505 1228 1026 1011 625 394 558 451 771 846 787 536 326 180 159 103 139 64 16 0 0 0 0 5 8 15 45 31 17 17 16 16 12
528 873 1186 1229 1353 1512 1649 1809 1731 1525 996 1173 989 749 529 413 504 87 174 323 384 241 266 103 46 41 27 2 25 3 0 0 0 5 23 14 24 22 14 10 15 13 11
435 655 878 1154 1203 1324 1485 1464 1398 1557 984 823 872 640 424 340 353 200 120 183 217 115 149 37 58 99 124 85 16 0 0 0 0 5 10 12 2 7 26 11 14 10 16
17 258 616 825 1116 1165 1184 1063 774 635 617 635 745 388 242 267 178 150 57 77 87 68 45 21 105 63 142 17 3 0 0 0 4 5 8 8 6 7 17 30 25 15 11
0 0 264 416 798 894 977 840 408 529 611 437 116 163 193 203 181 100 63 44 26 45 14 22 98 61 114 0 0 0 0 0 5 4 5 9 14 18 8 19 20 19 13
0 0 34 456 692 799 791 730 501 723 592 118 17 47 118 177 184 206 97 44 17 38 12 8 46 81 36 0 0 0 0 0 4 2 6 7 10 11 10 9 4 5 12
0 0 14 563 573 623 581 571 694 781 308 8 8 42 54 128 61 65 71 31 38 9 20 8 9 51 4 0 0 0 1 0 7 4 4 3 6 7 5 10 11 4 1
0 0 182 489 522 456 550 731 864 556 118 15 0 0 16 7 57 76 4 31 26 7 8 6 0 8 0 0 2 0 0 0 0 3 3 3 3 3 2 4 0 1 1
0 114 289 482 307 562 698 933 689 364 23 126 39 13 3 23 18 38 35 13 7 29 1 2 0 0 0 0 0 3 1 0 0 0 2 3 2 2 0 0 0 0 1
0 83 300 423 292 543 830 817 501 226 56 102 41 20 56 1 3 4 40 33 15 24 14 8 0 0 0 1 0 0 12 32 1 0 1 2 2 0 0 0 0 0 0
0 124 337 315 419 695 920 636 411 220 39 320 47 44 14 0 0 16 1 19 12 23 5 19 0 0 0 0 0 0 0 0 1 0 0 0 0 0 0 0 5 2 0
0 85 291 275 473 834 792 585 404 176 277 180 89 112 36 18 4 6 27 53 39 34 4 13 0 0 2 1 0 0 0 0 0 1 33 1 0 0 1 4 26 9 3
5 13 98 257 544 804 707 530 381 170 339 77 85 30 65 19 10 42 44 35 52 17 4 37 0 0 0 0 0 0 0 0 0 2 0 16 34 0 8 6 19 15 8

GFSSE_con_mucape_123.txt.gz
CAPE
290 1342 1495 1667 1612 1774 1846 1902 2059 1979 1878 1951 1973 2065 2083 2118 2166 2054 2044 1978 1949 1945 1602 1564 1423 1279 1198 1230 1447 1403 1317 1128 1058 1183 1211 999 786 637 633 536 579 426 602
368 1251 1304 1526 1626 1735 1790 1918 2085 2074 2054 2127 2076 2163 2147 2102 2211 2160 2181 2102 2027 1861 1653 1585 1522 1630 1570 1445 1381 1272 1198 1096 1025 988 1018 1031 962 646 647 678 722 614 902
408 1324 1539 1418 1668 1751 1792 1908 2223 2305 2286 2250 2253 2236 2081 2052 2300 2276 2264 1857 1779 1708 1692 1639 1581 1541 1508 1397 1376 1314 1219 1095 995 830 841 421 565 733 679 693 876 910 794
443 1303 1653 1364 1688 1900 2042 2098 2409 2506 2460 2352 2347 2198 2249 2282 2341 2269 2216 1799 1385 1510 1715 1618 1528 1355 1549 1437 1314 1209 1115 1005 931 946 346 201 249 628 615 576 719 708 710
426 896 1929 1315 1443 1904 2063 2057 2366 2502 2452 2386 2285 2224 2210 1998 2300 2294 1488 1090 1121 1361 1622 1632 1453 1574 1289 1238 1144 1073 985 882 923 820 284 214 310 562 601 631 522 592 517
404 634 1649 1263 1373 1871 2032 2060 2172 2421 2341 2174 2177 2348 2432 2387 2282 1536 612 560 299 326 912 1284 1159 1396 1107 973 879 814 730 703 559 589 467 571 238 449 430 438 533 459 413
526 1143 2121 1257 1451 1910 2220 2145 2003 2222 2312 2157 2318 2361 2329 2106 1886 1107 108 53 179 9 499 868 1192 1196 915 763 688 529 430 453 522 140 155 421 360 349 362 252 242 309 78
1079 1467 2598 1344 1475 1873 2230 2159 1882 2007 2262 2321 2292 2326 2151 2036 1368 664 579 630 603 742 788 1026 1063 994 775 621 496 356 258 191 310 90 355 336 302 206 172 95 1 12 12
1875 2280 2557 2184 1805 1659 1997 2128 1841 1909 2019 2250 2280 2229 2023 1620 1024 706 872 830 841 875 999 1146 833 740 646 523 458 356 198 252 261 206 346 134 293 65 18 2 0 0 0
2389 2869 2704 2578 2351 2297 2319 2084 1849 1616 1834 2051 2265 2091 1933 1500 913 934 875 863 1127 1297 1087 996 635 553 539 479 416 316 182 74 228 69 160 64 169 23 23 19 8 1 0
2412 2926 2851 2913 2665 2723 2524 2275 2032 1758 1652 1784 2127 2068 1927 1762 1245 1086 788 968 1251 1077 1002 770 537 482 475 434 382 278 132 16 56 63 107 19 39 20 18 16 4 0 0
2026 2590 2907 3050 2877 2841 2250 2580 2403 2443 2154 2189 2398 2466 2431 2121 1762 1186 799 782 1004 875 772 510 368 308 368 343 342 201 169 44 45 77 19 0 16 16 10 11 0 0 0
1039 2024 2555 2989 3148 2880 2643 2572 2424 2438 2334 2301 2510 2721 2747 1979 2117 1606 1585 858 1078 731 921 561 231 611 607 461 335 225 104 75 43 80 0 0 38 31 20 11 13 14 12
6 1277 2257 2714 3133 2916 2652 2612 2729 2616 2578 2634 2430 3162 2905 2369 2275 1544 1742 1333 901 944 1027 633 494 371 547 422 120 46 203 27 25 61 0 6 41 29 8 21 14 10 22
3 419 1718 2648 3002 2818 3010 2418 2628 2855 2557 2525 2733 3104 2972 2386 1959 1685 1657 943 817 1111 748 820 593 659 447 115 30 197 165 46 20 29 4 9 28 52 30 29 11 27 18
2 150 1078 1918 2712 2729 2813 2384 2532 3069 2753 2693 2887 2816 3239 2462 2303 1546 1461 1524 1050 1140 797 357 683 182 175 154 152 127 70 44 14 28 10 20 20 36 50 41 29 24 14
0 0 113 1002 1771 2801 2516 2409 2404 2629 2709 2824 2848 3278 3003 2689 2242 1789 1248 1444 999 570 180 165 574 110 122 130 179 166 69 36 7 26 15 27 12 13 32 46 32 32 20
0 0 0 0 820 2153 2756 2379 2560 2569 2399 2716 2690 2515 2718 2835 2192 1831 1336 1203 788 272 90 79 89 87 117 194 227 94 51 22 10 20 30 14 9 18 13 32 31 36 23
0 0 0 0 121 1399 2092 2521 2383 1773 1907 2082 2546 2234 1775 2232 2031 1651 1213 685 696 641 121 80 53 65 193 129 182 119 112 27 18 11 29 20 13 12 16 10 24 18 23
0 0 0 0 67 351 1550 2384 2548 2332 1794 1788 1934 2206 2160 2094 1833 1546 921 625 744 205 137 60 38 57 202 228 138 107 62 47 39 32 19 12 27 51 21 0 8 3 3
0 11 10 27 305 48 370 1322 2261 2441 1719 1242 1793 2161 1968 1496 1613 943 801 431 337 86 230 44 33 23 174 193 161 76 88 87 99 42 14 10 29 28 52 5 0 0 0
0 2 279 248 280 364 383 1043 1848 1919 1074 1129 1374 1420 1454 1363 920 841 679 142 154 293 16 55 15 14 17 195 141 37 76 85 67 34 14 17 61 14 26 19 1 0 0
0 252 436 352 465 732 793 1187 1108 1333 919 1274 1004 780 975 664 896 740 385 126 101 39 127 45 35 16 0 94 121 81 44 54 43 37 52 8 59 33 28 11 5 3 4
0 241 661 630 628 841 1043 1262 989 871 903 907 940 701 822 664 565 466 597 164 92 103 97 25 33 17 11 54 137 131 128 38 44 43 34 20 49 36 61 21 4 5 13
0 5 294 785 772 824 858 1074 910 1122 1171 1184 1282 786 707 672 618 757 590 217 41 67 115 13 16 28 27 74 127 119 145 167 100 52 66 32 23 40 40 40 55 43 8
9 88 59 254 363 423 800 809 872 1258 1450 1415 1069 823 798 954 720 517 412 99 26 16 41 1 15 32 5 54 106 191 147 130 43 163 108 110 56 114 79 89 101 58 97